<?xml version="1.0" encoding="UTF-8" standalone="no" ?>
<gpx xmlns="http://www.topografix.com/GPX/1/1" creator="www.cicloide.com" version="1.1" xmlns:xsi="http://www.w3.org/2001/XMLSchema-instance" xsi:schemaLocation="http://www.topografix.com/GPX/1/1 http://www.topografix.com/GPX/1/1/gpx.xsd">
  <wpt lat="41.674878" lon="2.5073561">
    <ele>317.1</ele>
    <time>2012-11-25T09:56:27Z</time>
    <name>miradora</name>
    <cmt>miradora</cmt>
    <desc>11328_15630</desc>
  </wpt>
  <trk>
    <name>www.cicloide.com 11328</name>
    <desc>www.cicloide.com 11328</desc>
    <trkseg>
      <trkpt lat="41.614209700" lon="2.535034500">
        <ele>97.70</ele>
        <time>2012-11-25T07:45:10Z</time>
      </trkpt>
      <trkpt lat="41.614342000" lon="2.534637400">
        <ele>97.70</ele>
        <time>2012-11-25T07:45:22Z</time>
      </trkpt>
      <trkpt lat="41.614417800" lon="2.534410600">
        <ele>97.70</ele>
        <time>2012-11-25T07:45:29Z</time>
      </trkpt>
      <trkpt lat="41.614478000" lon="2.534185500">
        <ele>97.70</ele>
        <time>2012-11-25T07:45:36Z</time>
      </trkpt>
      <trkpt lat="41.614485400" lon="2.534156000">
        <ele>97.70</ele>
        <time>2012-11-25T07:45:36Z</time>
      </trkpt>
      <trkpt lat="41.614495200" lon="2.534123000">
        <ele>97.70</ele>
        <time>2012-11-25T07:45:38Z</time>
      </trkpt>
      <trkpt lat="41.614518300" lon="2.534058200">
        <ele>97.70</ele>
        <time>2012-11-25T07:45:40Z</time>
      </trkpt>
      <trkpt lat="41.614527900" lon="2.534024300">
        <ele>97.70</ele>
        <time>2012-11-25T07:45:41Z</time>
      </trkpt>
      <trkpt lat="41.614545100" lon="2.533954500">
        <ele>97.70</ele>
        <time>2012-11-25T07:45:43Z</time>
      </trkpt>
      <trkpt lat="41.614569800" lon="2.533886700">
        <ele>97.70</ele>
        <time>2012-11-25T07:45:45Z</time>
      </trkpt>
      <trkpt lat="41.614588000" lon="2.533817900">
        <ele>101.60</ele>
        <time>2012-11-25T07:45:47Z</time>
      </trkpt>
      <trkpt lat="41.614603900" lon="2.533747300">
        <ele>104.90</ele>
        <time>2012-11-25T07:45:48Z</time>
      </trkpt>
      <trkpt lat="41.614624500" lon="2.533680200">
        <ele>108.30</ele>
        <time>2012-11-25T07:45:50Z</time>
      </trkpt>
      <trkpt lat="41.614651500" lon="2.533614900">
        <ele>111.70</ele>
        <time>2012-11-25T07:45:52Z</time>
      </trkpt>
      <trkpt lat="41.614679100" lon="2.533513700">
        <ele>115.50</ele>
        <time>2012-11-25T07:45:55Z</time>
      </trkpt>
      <trkpt lat="41.614670300" lon="2.533443000">
        <ele>119.30</ele>
        <time>2012-11-25T07:45:59Z</time>
      </trkpt>
      <trkpt lat="41.614692900" lon="2.533342900">
        <ele>123.20</ele>
        <time>2012-11-25T07:46:02Z</time>
      </trkpt>
      <trkpt lat="41.614725100" lon="2.533232500">
        <ele>126.60</ele>
        <time>2012-11-25T07:46:04Z</time>
      </trkpt>
      <trkpt lat="41.614754700" lon="2.533126200">
        <ele>128.50</ele>
        <time>2012-11-25T07:46:07Z</time>
      </trkpt>
      <trkpt lat="41.614796700" lon="2.532982000">
        <ele>131.40</ele>
        <time>2012-11-25T07:46:11Z</time>
      </trkpt>
      <trkpt lat="41.614852600" lon="2.532806900">
        <ele>134.70</ele>
        <time>2012-11-25T07:46:16Z</time>
      </trkpt>
      <trkpt lat="41.614931900" lon="2.532556600">
        <ele>137.60</ele>
        <time>2012-11-25T07:46:23Z</time>
      </trkpt>
      <trkpt lat="41.614992900" lon="2.532305200">
        <ele>141.00</ele>
        <time>2012-11-25T07:46:30Z</time>
      </trkpt>
      <trkpt lat="41.615000900" lon="2.532267700">
        <ele>141.00</ele>
        <time>2012-11-25T07:46:32Z</time>
      </trkpt>
      <trkpt lat="41.615071600" lon="2.531912200">
        <ele>143.90</ele>
        <time>2012-11-25T07:46:42Z</time>
      </trkpt>
      <trkpt lat="41.615094100" lon="2.531649500">
        <ele>146.30</ele>
        <time>2012-11-25T07:46:49Z</time>
      </trkpt>
      <trkpt lat="41.615106700" lon="2.531303000">
        <ele>149.10</ele>
        <time>2012-11-25T07:46:58Z</time>
      </trkpt>
      <trkpt lat="41.615124400" lon="2.530962300">
        <ele>151.10</ele>
        <time>2012-11-25T07:47:07Z</time>
      </trkpt>
      <trkpt lat="41.615156400" lon="2.530566100">
        <ele>153.00</ele>
        <time>2012-11-25T07:47:17Z</time>
      </trkpt>
      <trkpt lat="41.615168600" lon="2.530263000">
        <ele>154.90</ele>
        <time>2012-11-25T07:47:24Z</time>
      </trkpt>
      <trkpt lat="41.615182600" lon="2.529936500">
        <ele>155.90</ele>
        <time>2012-11-25T07:47:33Z</time>
      </trkpt>
      <trkpt lat="41.615187200" lon="2.529596200">
        <ele>157.30</ele>
        <time>2012-11-25T07:47:43Z</time>
      </trkpt>
      <trkpt lat="41.615197800" lon="2.529259000">
        <ele>158.30</ele>
        <time>2012-11-25T07:47:52Z</time>
      </trkpt>
      <trkpt lat="41.615214000" lon="2.528969400">
        <ele>159.20</ele>
        <time>2012-11-25T07:47:59Z</time>
      </trkpt>
      <trkpt lat="41.615265700" lon="2.528628200">
        <ele>159.70</ele>
        <time>2012-11-25T07:48:09Z</time>
      </trkpt>
      <trkpt lat="41.615339100" lon="2.528301800">
        <ele>160.70</ele>
        <time>2012-11-25T07:48:18Z</time>
      </trkpt>
      <trkpt lat="41.615415300" lon="2.527925100">
        <ele>161.60</ele>
        <time>2012-11-25T07:48:27Z</time>
      </trkpt>
      <trkpt lat="41.615479400" lon="2.527606900">
        <ele>162.60</ele>
        <time>2012-11-25T07:48:37Z</time>
      </trkpt>
      <trkpt lat="41.615517700" lon="2.527359900">
        <ele>163.60</ele>
        <time>2012-11-25T07:48:44Z</time>
      </trkpt>
      <trkpt lat="41.615562300" lon="2.527123500">
        <ele>164.50</ele>
        <time>2012-11-25T07:48:51Z</time>
      </trkpt>
      <trkpt lat="41.615593900" lon="2.526798900">
        <ele>166.00</ele>
        <time>2012-11-25T07:49:00Z</time>
      </trkpt>
      <trkpt lat="41.615585300" lon="2.526499000">
        <ele>167.40</ele>
        <time>2012-11-25T07:49:09Z</time>
      </trkpt>
      <trkpt lat="41.615559700" lon="2.526208100">
        <ele>167.90</ele>
        <time>2012-11-25T07:49:17Z</time>
      </trkpt>
      <trkpt lat="41.615533400" lon="2.525629800">
        <ele>169.80</ele>
        <time>2012-11-25T07:49:33Z</time>
      </trkpt>
      <trkpt lat="41.615535800" lon="2.525368300">
        <ele>170.80</ele>
        <time>2012-11-25T07:49:40Z</time>
      </trkpt>
      <trkpt lat="41.615546100" lon="2.525119000">
        <ele>171.70</ele>
        <time>2012-11-25T07:49:47Z</time>
      </trkpt>
      <trkpt lat="41.615558700" lon="2.524815500">
        <ele>172.20</ele>
        <time>2012-11-25T07:49:54Z</time>
      </trkpt>
      <trkpt lat="41.615579000" lon="2.524525800">
        <ele>173.70</ele>
        <time>2012-11-25T07:50:03Z</time>
      </trkpt>
      <trkpt lat="41.615620900" lon="2.524152800">
        <ele>175.10</ele>
        <time>2012-11-25T07:50:13Z</time>
      </trkpt>
      <trkpt lat="41.615638200" lon="2.523900500">
        <ele>177.00</ele>
        <time>2012-11-25T07:50:20Z</time>
      </trkpt>
      <trkpt lat="41.615665400" lon="2.523633200">
        <ele>178.00</ele>
        <time>2012-11-25T07:50:29Z</time>
      </trkpt>
      <trkpt lat="41.615670800" lon="2.523411400">
        <ele>178.50</ele>
        <time>2012-11-25T07:50:34Z</time>
      </trkpt>
      <trkpt lat="41.615701200" lon="2.523139900">
        <ele>179.40</ele>
        <time>2012-11-25T07:50:43Z</time>
      </trkpt>
      <trkpt lat="41.615739800" lon="2.522865900">
        <ele>180.40</ele>
        <time>2012-11-25T07:50:50Z</time>
      </trkpt>
      <trkpt lat="41.615782000" lon="2.522664600">
        <ele>180.90</ele>
        <time>2012-11-25T07:50:57Z</time>
      </trkpt>
      <trkpt lat="41.615823000" lon="2.522319100">
        <ele>182.80</ele>
        <time>2012-11-25T07:51:05Z</time>
      </trkpt>
      <trkpt lat="41.615859200" lon="2.522054600">
        <ele>183.80</ele>
        <time>2012-11-25T07:51:14Z</time>
      </trkpt>
      <trkpt lat="41.615885600" lon="2.521826000">
        <ele>184.20</ele>
        <time>2012-11-25T07:51:21Z</time>
      </trkpt>
      <trkpt lat="41.615916200" lon="2.521568500">
        <ele>184.70</ele>
        <time>2012-11-25T07:51:26Z</time>
      </trkpt>
      <trkpt lat="41.615950200" lon="2.521297200">
        <ele>185.70</ele>
        <time>2012-11-25T07:51:35Z</time>
      </trkpt>
      <trkpt lat="41.615995100" lon="2.520994800">
        <ele>186.10</ele>
        <time>2012-11-25T07:51:42Z</time>
      </trkpt>
      <trkpt lat="41.616046500" lon="2.520765300">
        <ele>186.10</ele>
        <time>2012-11-25T07:51:49Z</time>
      </trkpt>
      <trkpt lat="41.616132900" lon="2.520477900">
        <ele>187.10</ele>
        <time>2012-11-25T07:51:56Z</time>
      </trkpt>
      <trkpt lat="41.616228000" lon="2.520225100">
        <ele>187.60</ele>
        <time>2012-11-25T07:52:05Z</time>
      </trkpt>
      <trkpt lat="41.616312200" lon="2.520042400">
        <ele>187.60</ele>
        <time>2012-11-25T07:52:13Z</time>
      </trkpt>
      <trkpt lat="41.616494900" lon="2.519884900">
        <ele>186.60</ele>
        <time>2012-11-25T07:52:18Z</time>
      </trkpt>
      <trkpt lat="41.616675500" lon="2.519785300">
        <ele>187.60</ele>
        <time>2012-11-25T07:52:24Z</time>
      </trkpt>
      <trkpt lat="41.616866900" lon="2.519717300">
        <ele>189.00</ele>
        <time>2012-11-25T07:52:32Z</time>
      </trkpt>
      <trkpt lat="41.617065600" lon="2.519684600">
        <ele>189.50</ele>
        <time>2012-11-25T07:52:39Z</time>
      </trkpt>
      <trkpt lat="41.617278000" lon="2.519655400">
        <ele>191.00</ele>
        <time>2012-11-25T07:52:48Z</time>
      </trkpt>
      <trkpt lat="41.617506400" lon="2.519633900">
        <ele>191.90</ele>
        <time>2012-11-25T07:52:57Z</time>
      </trkpt>
      <trkpt lat="41.617701500" lon="2.519605300">
        <ele>192.90</ele>
        <time>2012-11-25T07:53:04Z</time>
      </trkpt>
      <trkpt lat="41.617806600" lon="2.519610200">
        <ele>193.40</ele>
        <time>2012-11-25T07:53:11Z</time>
      </trkpt>
      <trkpt lat="41.617819800" lon="2.519626600">
        <ele>194.30</ele>
        <time>2012-11-25T07:53:18Z</time>
      </trkpt>
      <trkpt lat="41.617830000" lon="2.519684700">
        <ele>194.80</ele>
        <time>2012-11-25T07:53:28Z</time>
      </trkpt>
      <trkpt lat="41.617837900" lon="2.519690300">
        <ele>194.30</ele>
        <time>2012-11-25T07:53:39Z</time>
      </trkpt>
      <trkpt lat="41.617826600" lon="2.519685800">
        <ele>194.80</ele>
        <time>2012-11-25T07:53:49Z</time>
      </trkpt>
      <trkpt lat="41.617831800" lon="2.519707100">
        <ele>194.80</ele>
        <time>2012-11-25T07:54:01Z</time>
      </trkpt>
      <trkpt lat="41.617840300" lon="2.519691200">
        <ele>194.80</ele>
        <time>2012-11-25T07:54:13Z</time>
      </trkpt>
      <trkpt lat="41.617839000" lon="2.519678400">
        <ele>194.80</ele>
        <time>2012-11-25T07:54:24Z</time>
      </trkpt>
      <trkpt lat="41.617858400" lon="2.519706300">
        <ele>194.80</ele>
        <time>2012-11-25T07:54:41Z</time>
      </trkpt>
      <trkpt lat="41.617874700" lon="2.519737900">
        <ele>194.80</ele>
        <time>2012-11-25T07:54:45Z</time>
      </trkpt>
      <trkpt lat="41.617917300" lon="2.519806700">
        <ele>195.80</ele>
        <time>2012-11-25T07:54:50Z</time>
      </trkpt>
      <trkpt lat="41.617929300" lon="2.519838800">
        <ele>195.80</ele>
        <time>2012-11-25T07:54:52Z</time>
      </trkpt>
      <trkpt lat="41.617894600" lon="2.519994900">
        <ele>197.20</ele>
        <time>2012-11-25T07:55:00Z</time>
      </trkpt>
      <trkpt lat="41.617789800" lon="2.520096100">
        <ele>199.10</ele>
        <time>2012-11-25T07:55:09Z</time>
      </trkpt>
      <trkpt lat="41.617695100" lon="2.520243500">
        <ele>201.10</ele>
        <time>2012-11-25T07:55:18Z</time>
      </trkpt>
      <trkpt lat="41.617705900" lon="2.520405000">
        <ele>203.00</ele>
        <time>2012-11-25T07:55:25Z</time>
      </trkpt>
      <trkpt lat="41.617675100" lon="2.520577200">
        <ele>203.50</ele>
        <time>2012-11-25T07:55:34Z</time>
      </trkpt>
      <trkpt lat="41.617696200" lon="2.520771100">
        <ele>204.40</ele>
        <time>2012-11-25T07:55:42Z</time>
      </trkpt>
      <trkpt lat="41.617772200" lon="2.521001500">
        <ele>205.40</ele>
        <time>2012-11-25T07:55:51Z</time>
      </trkpt>
      <trkpt lat="41.617826100" lon="2.521241900">
        <ele>206.30</ele>
        <time>2012-11-25T07:56:01Z</time>
      </trkpt>
      <trkpt lat="41.617881000" lon="2.521455700">
        <ele>207.80</ele>
        <time>2012-11-25T07:56:10Z</time>
      </trkpt>
      <trkpt lat="41.617938700" lon="2.521621900">
        <ele>209.70</ele>
        <time>2012-11-25T07:56:19Z</time>
      </trkpt>
      <trkpt lat="41.618026600" lon="2.521568900">
        <ele>211.10</ele>
        <time>2012-11-25T07:56:26Z</time>
      </trkpt>
      <trkpt lat="41.618043600" lon="2.521520200">
        <ele>211.60</ele>
        <time>2012-11-25T07:56:29Z</time>
      </trkpt>
      <trkpt lat="41.618120800" lon="2.521344900">
        <ele>214.00</ele>
        <time>2012-11-25T07:56:40Z</time>
      </trkpt>
      <trkpt lat="41.618183900" lon="2.521217200">
        <ele>215.50</ele>
        <time>2012-11-25T07:56:47Z</time>
      </trkpt>
      <trkpt lat="41.618259000" lon="2.521056700">
        <ele>217.40</ele>
        <time>2012-11-25T07:56:57Z</time>
      </trkpt>
      <trkpt lat="41.618312100" lon="2.520891400">
        <ele>219.80</ele>
        <time>2012-11-25T07:57:08Z</time>
      </trkpt>
      <trkpt lat="41.618373600" lon="2.520696300">
        <ele>221.70</ele>
        <time>2012-11-25T07:57:18Z</time>
      </trkpt>
      <trkpt lat="41.618440400" lon="2.520611700">
        <ele>222.70</ele>
        <time>2012-11-25T07:57:25Z</time>
      </trkpt>
      <trkpt lat="41.618487000" lon="2.520586800">
        <ele>223.20</ele>
        <time>2012-11-25T07:57:30Z</time>
      </trkpt>
      <trkpt lat="41.618653700" lon="2.520555100">
        <ele>225.10</ele>
        <time>2012-11-25T07:57:41Z</time>
      </trkpt>
      <trkpt lat="41.618783100" lon="2.520526900">
        <ele>226.50</ele>
        <time>2012-11-25T07:57:51Z</time>
      </trkpt>
      <trkpt lat="41.618918000" lon="2.520461600">
        <ele>228.40</ele>
        <time>2012-11-25T07:58:00Z</time>
      </trkpt>
      <trkpt lat="41.619031300" lon="2.520399800">
        <ele>230.40</ele>
        <time>2012-11-25T07:58:10Z</time>
      </trkpt>
      <trkpt lat="41.619169800" lon="2.520333100">
        <ele>232.30</ele>
        <time>2012-11-25T07:58:19Z</time>
      </trkpt>
      <trkpt lat="41.619282700" lon="2.520281300">
        <ele>234.20</ele>
        <time>2012-11-25T07:58:28Z</time>
      </trkpt>
      <trkpt lat="41.619411300" lon="2.520303000">
        <ele>235.70</ele>
        <time>2012-11-25T07:58:38Z</time>
      </trkpt>
      <trkpt lat="41.619510300" lon="2.520348800">
        <ele>238.10</ele>
        <time>2012-11-25T07:58:45Z</time>
      </trkpt>
      <trkpt lat="41.619538700" lon="2.520352300">
        <ele>238.50</ele>
        <time>2012-11-25T07:58:47Z</time>
      </trkpt>
      <trkpt lat="41.619591400" lon="2.520325700">
        <ele>239.00</ele>
        <time>2012-11-25T07:58:52Z</time>
      </trkpt>
      <trkpt lat="41.619615100" lon="2.520316100">
        <ele>239.50</ele>
        <time>2012-11-25T07:58:54Z</time>
      </trkpt>
      <trkpt lat="41.619706800" lon="2.520288800">
        <ele>240.90</ele>
        <time>2012-11-25T07:59:01Z</time>
      </trkpt>
      <trkpt lat="41.619822700" lon="2.520228000">
        <ele>243.40</ele>
        <time>2012-11-25T07:59:11Z</time>
      </trkpt>
      <trkpt lat="41.619945100" lon="2.520161700">
        <ele>245.30</ele>
        <time>2012-11-25T07:59:20Z</time>
      </trkpt>
      <trkpt lat="41.620091800" lon="2.520082400">
        <ele>247.20</ele>
        <time>2012-11-25T07:59:30Z</time>
      </trkpt>
      <trkpt lat="41.620202700" lon="2.520083000">
        <ele>249.10</ele>
        <time>2012-11-25T07:59:39Z</time>
      </trkpt>
      <trkpt lat="41.620313400" lon="2.520115200">
        <ele>250.60</ele>
        <time>2012-11-25T07:59:48Z</time>
      </trkpt>
      <trkpt lat="41.620395000" lon="2.520134500">
        <ele>251.00</ele>
        <time>2012-11-25T07:59:53Z</time>
      </trkpt>
      <trkpt lat="41.620520700" lon="2.520163800">
        <ele>252.50</ele>
        <time>2012-11-25T08:00:02Z</time>
      </trkpt>
      <trkpt lat="41.620605000" lon="2.520192000">
        <ele>253.90</ele>
        <time>2012-11-25T08:00:09Z</time>
      </trkpt>
      <trkpt lat="41.620631100" lon="2.520198900">
        <ele>254.40</ele>
        <time>2012-11-25T08:00:11Z</time>
      </trkpt>
      <trkpt lat="41.620754500" lon="2.520214000">
        <ele>255.90</ele>
        <time>2012-11-25T08:00:19Z</time>
      </trkpt>
      <trkpt lat="41.620878300" lon="2.520236400">
        <ele>257.30</ele>
        <time>2012-11-25T08:00:26Z</time>
      </trkpt>
      <trkpt lat="41.620981600" lon="2.520262700">
        <ele>258.20</ele>
        <time>2012-11-25T08:00:33Z</time>
      </trkpt>
      <trkpt lat="41.621118500" lon="2.520286400">
        <ele>259.70</ele>
        <time>2012-11-25T08:00:42Z</time>
      </trkpt>
      <trkpt lat="41.621241100" lon="2.520286000">
        <ele>261.10</ele>
        <time>2012-11-25T08:00:52Z</time>
      </trkpt>
      <trkpt lat="41.621358200" lon="2.520289700">
        <ele>263.10</ele>
        <time>2012-11-25T08:00:59Z</time>
      </trkpt>
      <trkpt lat="41.621496100" lon="2.520356700">
        <ele>264.50</ele>
        <time>2012-11-25T08:01:08Z</time>
      </trkpt>
      <trkpt lat="41.621575600" lon="2.520390300">
        <ele>265.90</ele>
        <time>2012-11-25T08:01:15Z</time>
      </trkpt>
      <trkpt lat="41.621693700" lon="2.520409300">
        <ele>268.40</ele>
        <time>2012-11-25T08:01:22Z</time>
      </trkpt>
      <trkpt lat="41.621837100" lon="2.520441500">
        <ele>271.20</ele>
        <time>2012-11-25T08:01:32Z</time>
      </trkpt>
      <trkpt lat="41.621942200" lon="2.520443500">
        <ele>273.60</ele>
        <time>2012-11-25T08:01:41Z</time>
      </trkpt>
      <trkpt lat="41.622041400" lon="2.520433500">
        <ele>275.60</ele>
        <time>2012-11-25T08:01:48Z</time>
      </trkpt>
      <trkpt lat="41.622146800" lon="2.520407400">
        <ele>277.00</ele>
        <time>2012-11-25T08:01:55Z</time>
      </trkpt>
      <trkpt lat="41.622303500" lon="2.520370100">
        <ele>278.90</ele>
        <time>2012-11-25T08:02:05Z</time>
      </trkpt>
      <trkpt lat="41.622408100" lon="2.520360300">
        <ele>280.40</ele>
        <time>2012-11-25T08:02:11Z</time>
      </trkpt>
      <trkpt lat="41.622475500" lon="2.520459500">
        <ele>281.30</ele>
        <time>2012-11-25T08:02:19Z</time>
      </trkpt>
      <trkpt lat="41.622430800" lon="2.520496700">
        <ele>281.80</ele>
        <time>2012-11-25T08:02:23Z</time>
      </trkpt>
      <trkpt lat="41.622299400" lon="2.520533600">
        <ele>284.20</ele>
        <time>2012-11-25T08:02:33Z</time>
      </trkpt>
      <trkpt lat="41.622287700" lon="2.520540200">
        <ele>284.20</ele>
        <time>2012-11-25T08:02:35Z</time>
      </trkpt>
      <trkpt lat="41.622259300" lon="2.520566100">
        <ele>284.70</ele>
        <time>2012-11-25T08:02:37Z</time>
      </trkpt>
      <trkpt lat="41.622216200" lon="2.520601300">
        <ele>285.20</ele>
        <time>2012-11-25T08:02:42Z</time>
      </trkpt>
      <trkpt lat="41.622103800" lon="2.520696500">
        <ele>287.10</ele>
        <time>2012-11-25T08:02:51Z</time>
      </trkpt>
      <trkpt lat="41.622017800" lon="2.520770000">
        <ele>288.50</ele>
        <time>2012-11-25T08:02:58Z</time>
      </trkpt>
      <trkpt lat="41.621913000" lon="2.520865600">
        <ele>290.00</ele>
        <time>2012-11-25T08:03:05Z</time>
      </trkpt>
      <trkpt lat="41.621867800" lon="2.520914900">
        <ele>290.50</ele>
        <time>2012-11-25T08:03:10Z</time>
      </trkpt>
      <trkpt lat="41.621723800" lon="2.521014300">
        <ele>291.40</ele>
        <time>2012-11-25T08:03:22Z</time>
      </trkpt>
      <trkpt lat="41.621617400" lon="2.521012400">
        <ele>291.90</ele>
        <time>2012-11-25T08:03:29Z</time>
      </trkpt>
      <trkpt lat="41.621532900" lon="2.520990400">
        <ele>292.90</ele>
        <time>2012-11-25T08:03:34Z</time>
      </trkpt>
      <trkpt lat="41.621457100" lon="2.520964600">
        <ele>292.90</ele>
        <time>2012-11-25T08:03:40Z</time>
      </trkpt>
      <trkpt lat="41.621314900" lon="2.520981600">
        <ele>293.80</ele>
        <time>2012-11-25T08:03:48Z</time>
      </trkpt>
      <trkpt lat="41.621205000" lon="2.521002800">
        <ele>294.80</ele>
        <time>2012-11-25T08:03:55Z</time>
      </trkpt>
      <trkpt lat="41.621122100" lon="2.521029700">
        <ele>295.30</ele>
        <time>2012-11-25T08:04:02Z</time>
      </trkpt>
      <trkpt lat="41.621106000" lon="2.521097300">
        <ele>296.20</ele>
        <time>2012-11-25T08:04:06Z</time>
      </trkpt>
      <trkpt lat="41.621160800" lon="2.521134300">
        <ele>296.70</ele>
        <time>2012-11-25T08:04:11Z</time>
      </trkpt>
      <trkpt lat="41.621255800" lon="2.521107700">
        <ele>298.60</ele>
        <time>2012-11-25T08:04:18Z</time>
      </trkpt>
      <trkpt lat="41.621363000" lon="2.521231300">
        <ele>300.50</ele>
        <time>2012-11-25T08:04:28Z</time>
      </trkpt>
      <trkpt lat="41.621437100" lon="2.521342900">
        <ele>302.50</ele>
        <time>2012-11-25T08:04:37Z</time>
      </trkpt>
      <trkpt lat="41.621476400" lon="2.521394000">
        <ele>302.50</ele>
        <time>2012-11-25T08:04:41Z</time>
      </trkpt>
      <trkpt lat="41.621593000" lon="2.521565400">
        <ele>304.40</ele>
        <time>2012-11-25T08:04:51Z</time>
      </trkpt>
      <trkpt lat="41.621679400" lon="2.521688900">
        <ele>306.30</ele>
        <time>2012-11-25T08:05:00Z</time>
      </trkpt>
      <trkpt lat="41.621722200" lon="2.521749400">
        <ele>306.80</ele>
        <time>2012-11-25T08:05:03Z</time>
      </trkpt>
      <trkpt lat="41.621733400" lon="2.521791000">
        <ele>307.80</ele>
        <time>2012-11-25T08:05:07Z</time>
      </trkpt>
      <trkpt lat="41.621780300" lon="2.521924600">
        <ele>308.70</ele>
        <time>2012-11-25T08:05:14Z</time>
      </trkpt>
      <trkpt lat="41.621833400" lon="2.522062800">
        <ele>310.60</ele>
        <time>2012-11-25T08:05:22Z</time>
      </trkpt>
      <trkpt lat="41.621891500" lon="2.522204900">
        <ele>311.60</ele>
        <time>2012-11-25T08:05:31Z</time>
      </trkpt>
      <trkpt lat="41.621928500" lon="2.522306100">
        <ele>313.00</ele>
        <time>2012-11-25T08:05:36Z</time>
      </trkpt>
      <trkpt lat="41.621981000" lon="2.522272700">
        <ele>313.50</ele>
        <time>2012-11-25T08:05:43Z</time>
      </trkpt>
      <trkpt lat="41.621954200" lon="2.522118700">
        <ele>314.50</ele>
        <time>2012-11-25T08:05:50Z</time>
      </trkpt>
      <trkpt lat="41.621951900" lon="2.522001600">
        <ele>315.90</ele>
        <time>2012-11-25T08:05:57Z</time>
      </trkpt>
      <trkpt lat="41.621977000" lon="2.521834100">
        <ele>317.40</ele>
        <time>2012-11-25T08:06:06Z</time>
      </trkpt>
      <trkpt lat="41.622030700" lon="2.521631800">
        <ele>318.80</ele>
        <time>2012-11-25T08:06:16Z</time>
      </trkpt>
      <trkpt lat="41.622108800" lon="2.521528700">
        <ele>319.80</ele>
        <time>2012-11-25T08:06:23Z</time>
      </trkpt>
      <trkpt lat="41.622199200" lon="2.521506600">
        <ele>321.20</ele>
        <time>2012-11-25T08:06:32Z</time>
      </trkpt>
      <trkpt lat="41.622299200" lon="2.521592600">
        <ele>322.20</ele>
        <time>2012-11-25T08:06:39Z</time>
      </trkpt>
      <trkpt lat="41.622414100" lon="2.521681300">
        <ele>323.10</ele>
        <time>2012-11-25T08:06:48Z</time>
      </trkpt>
      <trkpt lat="41.622547100" lon="2.521799200">
        <ele>325.10</ele>
        <time>2012-11-25T08:06:58Z</time>
      </trkpt>
      <trkpt lat="41.622627500" lon="2.521856500">
        <ele>326.50</ele>
        <time>2012-11-25T08:07:05Z</time>
      </trkpt>
      <trkpt lat="41.622794600" lon="2.521866800">
        <ele>328.00</ele>
        <time>2012-11-25T08:07:16Z</time>
      </trkpt>
      <trkpt lat="41.622941200" lon="2.521841400">
        <ele>329.40</ele>
        <time>2012-11-25T08:07:24Z</time>
      </trkpt>
      <trkpt lat="41.623096400" lon="2.521794900">
        <ele>330.80</ele>
        <time>2012-11-25T08:07:33Z</time>
      </trkpt>
      <trkpt lat="41.623130500" lon="2.521784600">
        <ele>331.30</ele>
        <time>2012-11-25T08:07:35Z</time>
      </trkpt>
      <trkpt lat="41.623229800" lon="2.521833500">
        <ele>331.80</ele>
        <time>2012-11-25T08:07:42Z</time>
      </trkpt>
      <trkpt lat="41.623357400" lon="2.521981900">
        <ele>332.80</ele>
        <time>2012-11-25T08:07:50Z</time>
      </trkpt>
      <trkpt lat="41.623464300" lon="2.522114000">
        <ele>333.70</ele>
        <time>2012-11-25T08:07:59Z</time>
      </trkpt>
      <trkpt lat="41.623577300" lon="2.522227800">
        <ele>334.20</ele>
        <time>2012-11-25T08:08:06Z</time>
      </trkpt>
      <trkpt lat="41.623627900" lon="2.522264500">
        <ele>334.70</ele>
        <time>2012-11-25T08:08:11Z</time>
      </trkpt>
      <trkpt lat="41.623695500" lon="2.522327900">
        <ele>335.20</ele>
        <time>2012-11-25T08:08:15Z</time>
      </trkpt>
      <trkpt lat="41.623841100" lon="2.522436600">
        <ele>335.60</ele>
        <time>2012-11-25T08:08:25Z</time>
      </trkpt>
      <trkpt lat="41.623973300" lon="2.522564400">
        <ele>336.10</ele>
        <time>2012-11-25T08:08:34Z</time>
      </trkpt>
      <trkpt lat="41.624054100" lon="2.522705900">
        <ele>336.60</ele>
        <time>2012-11-25T08:08:41Z</time>
      </trkpt>
      <trkpt lat="41.624150900" lon="2.522909100">
        <ele>337.10</ele>
        <time>2012-11-25T08:08:50Z</time>
      </trkpt>
      <trkpt lat="41.624227900" lon="2.523137200">
        <ele>337.60</ele>
        <time>2012-11-25T08:08:58Z</time>
      </trkpt>
      <trkpt lat="41.624298700" lon="2.523368200">
        <ele>337.60</ele>
        <time>2012-11-25T08:09:07Z</time>
      </trkpt>
      <trkpt lat="41.624361800" lon="2.523588600">
        <ele>339.00</ele>
        <time>2012-11-25T08:09:16Z</time>
      </trkpt>
      <trkpt lat="41.624431100" lon="2.523759200">
        <ele>340.40</ele>
        <time>2012-11-25T08:09:24Z</time>
      </trkpt>
      <trkpt lat="41.624527500" lon="2.523958300">
        <ele>341.40</ele>
        <time>2012-11-25T08:09:33Z</time>
      </trkpt>
      <trkpt lat="41.624598800" lon="2.524134300">
        <ele>342.90</ele>
        <time>2012-11-25T08:09:42Z</time>
      </trkpt>
      <trkpt lat="41.624655300" lon="2.524280600">
        <ele>343.80</ele>
        <time>2012-11-25T08:09:49Z</time>
      </trkpt>
      <trkpt lat="41.624712300" lon="2.524463500">
        <ele>344.80</ele>
        <time>2012-11-25T08:09:56Z</time>
      </trkpt>
      <trkpt lat="41.624782500" lon="2.524674600">
        <ele>345.70</ele>
        <time>2012-11-25T08:10:06Z</time>
      </trkpt>
      <trkpt lat="41.624836600" lon="2.524842900">
        <ele>346.20</ele>
        <time>2012-11-25T08:10:13Z</time>
      </trkpt>
      <trkpt lat="41.624915200" lon="2.525046300">
        <ele>347.20</ele>
        <time>2012-11-25T08:10:22Z</time>
      </trkpt>
      <trkpt lat="41.625027700" lon="2.525197200">
        <ele>347.20</ele>
        <time>2012-11-25T08:10:29Z</time>
      </trkpt>
      <trkpt lat="41.625167200" lon="2.525353900">
        <ele>347.60</ele>
        <time>2012-11-25T08:10:38Z</time>
      </trkpt>
      <trkpt lat="41.625293600" lon="2.525501300">
        <ele>348.10</ele>
        <time>2012-11-25T08:10:46Z</time>
      </trkpt>
      <trkpt lat="41.625415800" lon="2.525690500">
        <ele>348.60</ele>
        <time>2012-11-25T08:10:55Z</time>
      </trkpt>
      <trkpt lat="41.625556600" lon="2.525933700">
        <ele>348.60</ele>
        <time>2012-11-25T08:11:06Z</time>
      </trkpt>
      <trkpt lat="41.625754200" lon="2.526147900">
        <ele>348.60</ele>
        <time>2012-11-25T08:11:14Z</time>
      </trkpt>
      <trkpt lat="41.625948200" lon="2.526285300">
        <ele>348.10</ele>
        <time>2012-11-25T08:11:23Z</time>
      </trkpt>
      <trkpt lat="41.626081200" lon="2.526413000">
        <ele>348.60</ele>
        <time>2012-11-25T08:11:30Z</time>
      </trkpt>
      <trkpt lat="41.626209200" lon="2.526593800">
        <ele>349.10</ele>
        <time>2012-11-25T08:11:39Z</time>
      </trkpt>
      <trkpt lat="41.626308700" lon="2.526772000">
        <ele>350.10</ele>
        <time>2012-11-25T08:11:47Z</time>
      </trkpt>
      <trkpt lat="41.626349300" lon="2.526918800">
        <ele>350.10</ele>
        <time>2012-11-25T08:11:54Z</time>
      </trkpt>
      <trkpt lat="41.626397000" lon="2.526979200">
        <ele>350.10</ele>
        <time>2012-11-25T08:11:58Z</time>
      </trkpt>
      <trkpt lat="41.626447300" lon="2.527058900">
        <ele>350.50</ele>
        <time>2012-11-25T08:12:03Z</time>
      </trkpt>
      <trkpt lat="41.626452000" lon="2.527245300">
        <ele>351.00</ele>
        <time>2012-11-25T08:12:10Z</time>
      </trkpt>
      <trkpt lat="41.626520600" lon="2.527303800">
        <ele>351.50</ele>
        <time>2012-11-25T08:12:15Z</time>
      </trkpt>
      <trkpt lat="41.626675700" lon="2.527305500">
        <ele>353.40</ele>
        <time>2012-11-25T08:12:24Z</time>
      </trkpt>
      <trkpt lat="41.626801300" lon="2.527310800">
        <ele>356.30</ele>
        <time>2012-11-25T08:12:34Z</time>
      </trkpt>
      <trkpt lat="41.626953700" lon="2.527350400">
        <ele>358.20</ele>
        <time>2012-11-25T08:12:43Z</time>
      </trkpt>
      <trkpt lat="41.626983900" lon="2.527356500">
        <ele>358.70</ele>
        <time>2012-11-25T08:12:45Z</time>
      </trkpt>
      <trkpt lat="41.627111900" lon="2.527401600">
        <ele>360.60</ele>
        <time>2012-11-25T08:12:54Z</time>
      </trkpt>
      <trkpt lat="41.627188200" lon="2.527431800">
        <ele>361.10</ele>
        <time>2012-11-25T08:12:57Z</time>
      </trkpt>
      <trkpt lat="41.627298700" lon="2.527487900">
        <ele>362.50</ele>
        <time>2012-11-25T08:13:04Z</time>
      </trkpt>
      <trkpt lat="41.627427600" lon="2.527558600">
        <ele>363.50</ele>
        <time>2012-11-25T08:13:11Z</time>
      </trkpt>
      <trkpt lat="41.627540800" lon="2.527626300">
        <ele>364.50</ele>
        <time>2012-11-25T08:13:18Z</time>
      </trkpt>
      <trkpt lat="41.627647000" lon="2.527704700">
        <ele>365.40</ele>
        <time>2012-11-25T08:13:25Z</time>
      </trkpt>
      <trkpt lat="41.627797700" lon="2.527787300">
        <ele>366.40</ele>
        <time>2012-11-25T08:13:35Z</time>
      </trkpt>
      <trkpt lat="41.627910100" lon="2.527853500">
        <ele>367.80</ele>
        <time>2012-11-25T08:13:42Z</time>
      </trkpt>
      <trkpt lat="41.628059800" lon="2.527969000">
        <ele>369.30</ele>
        <time>2012-11-25T08:13:51Z</time>
      </trkpt>
      <trkpt lat="41.628200800" lon="2.528092500">
        <ele>370.70</ele>
        <time>2012-11-25T08:14:00Z</time>
      </trkpt>
      <trkpt lat="41.628375600" lon="2.528266500">
        <ele>372.60</ele>
        <time>2012-11-25T08:14:10Z</time>
      </trkpt>
      <trkpt lat="41.628540500" lon="2.528467100">
        <ele>374.10</ele>
        <time>2012-11-25T08:14:22Z</time>
      </trkpt>
      <trkpt lat="41.628653700" lon="2.528650800">
        <ele>374.10</ele>
        <time>2012-11-25T08:14:29Z</time>
      </trkpt>
      <trkpt lat="41.628777600" lon="2.528906000">
        <ele>374.10</ele>
        <time>2012-11-25T08:14:38Z</time>
      </trkpt>
      <trkpt lat="41.628930100" lon="2.529211700">
        <ele>374.10</ele>
        <time>2012-11-25T08:14:48Z</time>
      </trkpt>
      <trkpt lat="41.629095200" lon="2.529511200">
        <ele>373.60</ele>
        <time>2012-11-25T08:14:57Z</time>
      </trkpt>
      <trkpt lat="41.629244700" lon="2.529868900">
        <ele>375.00</ele>
        <time>2012-11-25T08:15:09Z</time>
      </trkpt>
      <trkpt lat="41.629329000" lon="2.530128100">
        <ele>377.00</ele>
        <time>2012-11-25T08:15:18Z</time>
      </trkpt>
      <trkpt lat="41.629374600" lon="2.530420300">
        <ele>378.90</ele>
        <time>2012-11-25T08:15:27Z</time>
      </trkpt>
      <trkpt lat="41.629383700" lon="2.530728700">
        <ele>380.80</ele>
        <time>2012-11-25T08:15:37Z</time>
      </trkpt>
      <trkpt lat="41.629371300" lon="2.530994300">
        <ele>382.30</ele>
        <time>2012-11-25T08:15:46Z</time>
      </trkpt>
      <trkpt lat="41.629436700" lon="2.531177600">
        <ele>382.70</ele>
        <time>2012-11-25T08:15:53Z</time>
      </trkpt>
      <trkpt lat="41.629587600" lon="2.531306700">
        <ele>381.80</ele>
        <time>2012-11-25T08:15:58Z</time>
      </trkpt>
      <trkpt lat="41.629831700" lon="2.531442800">
        <ele>379.40</ele>
        <time>2012-11-25T08:16:05Z</time>
      </trkpt>
      <trkpt lat="41.630096000" lon="2.531553900">
        <ele>377.50</ele>
        <time>2012-11-25T08:16:10Z</time>
      </trkpt>
      <trkpt lat="41.630298200" lon="2.531620900">
        <ele>376.50</ele>
        <time>2012-11-25T08:16:14Z</time>
      </trkpt>
      <trkpt lat="41.630511600" lon="2.531604500">
        <ele>376.00</ele>
        <time>2012-11-25T08:16:17Z</time>
      </trkpt>
      <trkpt lat="41.630655900" lon="2.531538700">
        <ele>375.50</ele>
        <time>2012-11-25T08:16:21Z</time>
      </trkpt>
      <trkpt lat="41.630748500" lon="2.531492100">
        <ele>375.00</ele>
        <time>2012-11-25T08:16:23Z</time>
      </trkpt>
      <trkpt lat="41.630990600" lon="2.531414700">
        <ele>375.00</ele>
        <time>2012-11-25T08:16:28Z</time>
      </trkpt>
      <trkpt lat="41.631219300" lon="2.531482800">
        <ele>375.00</ele>
        <time>2012-11-25T08:16:33Z</time>
      </trkpt>
      <trkpt lat="41.631372100" lon="2.531476600">
        <ele>374.60</ele>
        <time>2012-11-25T08:16:36Z</time>
      </trkpt>
      <trkpt lat="41.631627400" lon="2.531139300">
        <ele>374.10</ele>
        <time>2012-11-25T08:16:45Z</time>
      </trkpt>
      <trkpt lat="41.631837300" lon="2.530794300">
        <ele>372.20</ele>
        <time>2012-11-25T08:16:52Z</time>
      </trkpt>
      <trkpt lat="41.631986700" lon="2.530545800">
        <ele>371.20</ele>
        <time>2012-11-25T08:16:57Z</time>
      </trkpt>
      <trkpt lat="41.632101900" lon="2.530560600">
        <ele>370.20</ele>
        <time>2012-11-25T08:17:01Z</time>
      </trkpt>
      <trkpt lat="41.632361700" lon="2.530826000">
        <ele>368.30</ele>
        <time>2012-11-25T08:17:06Z</time>
      </trkpt>
      <trkpt lat="41.632443300" lon="2.530903100">
        <ele>367.80</ele>
        <time>2012-11-25T08:17:08Z</time>
      </trkpt>
      <trkpt lat="41.632544900" lon="2.531015400">
        <ele>368.30</ele>
        <time>2012-11-25T08:17:11Z</time>
      </trkpt>
      <trkpt lat="41.632851600" lon="2.531362800">
        <ele>366.40</ele>
        <time>2012-11-25T08:17:20Z</time>
      </trkpt>
      <trkpt lat="41.633046100" lon="2.531669600">
        <ele>366.90</ele>
        <time>2012-11-25T08:17:25Z</time>
      </trkpt>
      <trkpt lat="41.633161600" lon="2.531876900">
        <ele>368.30</ele>
        <time>2012-11-25T08:17:32Z</time>
      </trkpt>
      <trkpt lat="41.633205600" lon="2.532068200">
        <ele>370.20</ele>
        <time>2012-11-25T08:17:39Z</time>
      </trkpt>
      <trkpt lat="41.633215600" lon="2.532125500">
        <ele>370.70</ele>
        <time>2012-11-25T08:17:41Z</time>
      </trkpt>
      <trkpt lat="41.633218600" lon="2.532312200">
        <ele>372.20</ele>
        <time>2012-11-25T08:17:48Z</time>
      </trkpt>
      <trkpt lat="41.633221800" lon="2.532533100">
        <ele>374.10</ele>
        <time>2012-11-25T08:17:58Z</time>
      </trkpt>
      <trkpt lat="41.633218600" lon="2.532628500">
        <ele>375.50</ele>
        <time>2012-11-25T08:18:02Z</time>
      </trkpt>
      <trkpt lat="41.633223500" lon="2.532673100">
        <ele>376.00</ele>
        <time>2012-11-25T08:18:04Z</time>
      </trkpt>
      <trkpt lat="41.633343800" lon="2.532830900">
        <ele>376.00</ele>
        <time>2012-11-25T08:18:12Z</time>
      </trkpt>
      <trkpt lat="41.633391700" lon="2.532901600">
        <ele>375.00</ele>
        <time>2012-11-25T08:18:14Z</time>
      </trkpt>
      <trkpt lat="41.633481300" lon="2.533046600">
        <ele>373.10</ele>
        <time>2012-11-25T08:18:16Z</time>
      </trkpt>
      <trkpt lat="41.633651300" lon="2.533343400">
        <ele>369.30</ele>
        <time>2012-11-25T08:18:21Z</time>
      </trkpt>
      <trkpt lat="41.633808700" lon="2.533503300">
        <ele>367.40</ele>
        <time>2012-11-25T08:18:23Z</time>
      </trkpt>
      <trkpt lat="41.633982900" lon="2.533558500">
        <ele>368.80</ele>
        <time>2012-11-25T08:18:28Z</time>
      </trkpt>
      <trkpt lat="41.634206000" lon="2.533503600">
        <ele>367.80</ele>
        <time>2012-11-25T08:18:35Z</time>
      </trkpt>
      <trkpt lat="41.634302200" lon="2.533479800">
        <ele>366.40</ele>
        <time>2012-11-25T08:18:37Z</time>
      </trkpt>
      <trkpt lat="41.634396400" lon="2.533488300">
        <ele>365.40</ele>
        <time>2012-11-25T08:18:38Z</time>
      </trkpt>
      <trkpt lat="41.634595100" lon="2.533485600">
        <ele>364.00</ele>
        <time>2012-11-25T08:18:42Z</time>
      </trkpt>
      <trkpt lat="41.634684100" lon="2.533237600">
        <ele>363.00</ele>
        <time>2012-11-25T08:18:47Z</time>
      </trkpt>
      <trkpt lat="41.634629800" lon="2.532912000">
        <ele>361.10</ele>
        <time>2012-11-25T08:18:51Z</time>
      </trkpt>
      <trkpt lat="41.634623000" lon="2.532817600">
        <ele>360.60</ele>
        <time>2012-11-25T08:18:52Z</time>
      </trkpt>
      <trkpt lat="41.634621000" lon="2.532445700">
        <ele>358.20</ele>
        <time>2012-11-25T08:18:56Z</time>
      </trkpt>
      <trkpt lat="41.634622500" lon="2.532350400">
        <ele>357.80</ele>
        <time>2012-11-25T08:18:56Z</time>
      </trkpt>
      <trkpt lat="41.634713300" lon="2.532065400">
        <ele>357.30</ele>
        <time>2012-11-25T08:19:01Z</time>
      </trkpt>
      <trkpt lat="41.634884800" lon="2.531800900">
        <ele>359.20</ele>
        <time>2012-11-25T08:19:08Z</time>
      </trkpt>
      <trkpt lat="41.635003600" lon="2.531760500">
        <ele>361.10</ele>
        <time>2012-11-25T08:19:13Z</time>
      </trkpt>
      <trkpt lat="41.635140200" lon="2.531894300">
        <ele>363.50</ele>
        <time>2012-11-25T08:19:20Z</time>
      </trkpt>
      <trkpt lat="41.635263600" lon="2.532040100">
        <ele>364.50</ele>
        <time>2012-11-25T08:19:27Z</time>
      </trkpt>
      <trkpt lat="41.635421800" lon="2.532153600">
        <ele>364.50</ele>
        <time>2012-11-25T08:19:34Z</time>
      </trkpt>
      <trkpt lat="41.635529000" lon="2.532105400">
        <ele>364.00</ele>
        <time>2012-11-25T08:19:38Z</time>
      </trkpt>
      <trkpt lat="41.635576000" lon="2.531877600">
        <ele>363.50</ele>
        <time>2012-11-25T08:19:45Z</time>
      </trkpt>
      <trkpt lat="41.635631100" lon="2.531585300">
        <ele>364.00</ele>
        <time>2012-11-25T08:19:53Z</time>
      </trkpt>
      <trkpt lat="41.635682000" lon="2.531324900">
        <ele>366.90</ele>
        <time>2012-11-25T08:20:02Z</time>
      </trkpt>
      <trkpt lat="41.635715400" lon="2.531180500">
        <ele>368.30</ele>
        <time>2012-11-25T08:20:07Z</time>
      </trkpt>
      <trkpt lat="41.635757000" lon="2.531014100">
        <ele>369.80</ele>
        <time>2012-11-25T08:20:14Z</time>
      </trkpt>
      <trkpt lat="41.635882800" lon="2.530924400">
        <ele>371.20</ele>
        <time>2012-11-25T08:20:23Z</time>
      </trkpt>
      <trkpt lat="41.636024700" lon="2.530888700">
        <ele>372.20</ele>
        <time>2012-11-25T08:20:30Z</time>
      </trkpt>
      <trkpt lat="41.636208100" lon="2.530871500">
        <ele>373.10</ele>
        <time>2012-11-25T08:20:40Z</time>
      </trkpt>
      <trkpt lat="41.636247900" lon="2.530904300">
        <ele>373.10</ele>
        <time>2012-11-25T08:20:42Z</time>
      </trkpt>
      <trkpt lat="41.636340300" lon="2.531189400">
        <ele>372.60</ele>
        <time>2012-11-25T08:20:51Z</time>
      </trkpt>
      <trkpt lat="41.636332500" lon="2.531377900">
        <ele>372.60</ele>
        <time>2012-11-25T08:20:56Z</time>
      </trkpt>
      <trkpt lat="41.636357000" lon="2.531658400">
        <ele>372.20</ele>
        <time>2012-11-25T08:21:03Z</time>
      </trkpt>
      <trkpt lat="41.636419200" lon="2.531864100">
        <ele>372.20</ele>
        <time>2012-11-25T08:21:10Z</time>
      </trkpt>
      <trkpt lat="41.636536000" lon="2.532123500">
        <ele>372.60</ele>
        <time>2012-11-25T08:21:17Z</time>
      </trkpt>
      <trkpt lat="41.636544300" lon="2.532371700">
        <ele>373.10</ele>
        <time>2012-11-25T08:21:26Z</time>
      </trkpt>
      <trkpt lat="41.636437900" lon="2.532700600">
        <ele>372.60</ele>
        <time>2012-11-25T08:21:36Z</time>
      </trkpt>
      <trkpt lat="41.636433400" lon="2.532802800">
        <ele>372.60</ele>
        <time>2012-11-25T08:21:38Z</time>
      </trkpt>
      <trkpt lat="41.636494100" lon="2.532914900">
        <ele>372.60</ele>
        <time>2012-11-25T08:21:43Z</time>
      </trkpt>
      <trkpt lat="41.636692900" lon="2.533139000">
        <ele>372.20</ele>
        <time>2012-11-25T08:21:52Z</time>
      </trkpt>
      <trkpt lat="41.636739100" lon="2.533373800">
        <ele>372.60</ele>
        <time>2012-11-25T08:21:59Z</time>
      </trkpt>
      <trkpt lat="41.636682200" lon="2.533631300">
        <ele>372.60</ele>
        <time>2012-11-25T08:22:06Z</time>
      </trkpt>
      <trkpt lat="41.636602700" lon="2.533843900">
        <ele>372.20</ele>
        <time>2012-11-25T08:22:13Z</time>
      </trkpt>
      <trkpt lat="41.636572400" lon="2.533911300">
        <ele>372.20</ele>
        <time>2012-11-25T08:22:14Z</time>
      </trkpt>
      <trkpt lat="41.636609300" lon="2.534080000">
        <ele>372.20</ele>
        <time>2012-11-25T08:22:20Z</time>
      </trkpt>
      <trkpt lat="41.636695200" lon="2.534126200">
        <ele>372.20</ele>
        <time>2012-11-25T08:22:23Z</time>
      </trkpt>
      <trkpt lat="41.636840900" lon="2.534171800">
        <ele>371.70</ele>
        <time>2012-11-25T08:22:27Z</time>
      </trkpt>
      <trkpt lat="41.637188700" lon="2.534411900">
        <ele>369.80</ele>
        <time>2012-11-25T08:22:35Z</time>
      </trkpt>
      <trkpt lat="41.637317700" lon="2.534491000">
        <ele>369.30</ele>
        <time>2012-11-25T08:22:37Z</time>
      </trkpt>
      <trkpt lat="41.637487900" lon="2.534554500">
        <ele>368.80</ele>
        <time>2012-11-25T08:22:42Z</time>
      </trkpt>
      <trkpt lat="41.637640100" lon="2.534659400">
        <ele>367.80</ele>
        <time>2012-11-25T08:22:46Z</time>
      </trkpt>
      <trkpt lat="41.637707100" lon="2.534735000">
        <ele>367.40</ele>
        <time>2012-11-25T08:22:48Z</time>
      </trkpt>
      <trkpt lat="41.637880700" lon="2.534921900">
        <ele>365.90</ele>
        <time>2012-11-25T08:22:54Z</time>
      </trkpt>
      <trkpt lat="41.637939300" lon="2.534911100">
        <ele>365.90</ele>
        <time>2012-11-25T08:22:56Z</time>
      </trkpt>
      <trkpt lat="41.638218000" lon="2.534658200">
        <ele>364.00</ele>
        <time>2012-11-25T08:23:03Z</time>
      </trkpt>
      <trkpt lat="41.638253500" lon="2.534629900">
        <ele>364.00</ele>
        <time>2012-11-25T08:23:05Z</time>
      </trkpt>
      <trkpt lat="41.638330900" lon="2.534590100">
        <ele>363.50</ele>
        <time>2012-11-25T08:23:07Z</time>
      </trkpt>
      <trkpt lat="41.638488400" lon="2.534597500">
        <ele>363.50</ele>
        <time>2012-11-25T08:23:10Z</time>
      </trkpt>
      <trkpt lat="41.638598200" lon="2.534652000">
        <ele>363.50</ele>
        <time>2012-11-25T08:23:14Z</time>
      </trkpt>
      <trkpt lat="41.638977400" lon="2.534881400">
        <ele>363.00</ele>
        <time>2012-11-25T08:23:24Z</time>
      </trkpt>
      <trkpt lat="41.639212000" lon="2.534924300">
        <ele>364.00</ele>
        <time>2012-11-25T08:23:31Z</time>
      </trkpt>
      <trkpt lat="41.639360800" lon="2.534947100">
        <ele>365.40</ele>
        <time>2012-11-25T08:23:36Z</time>
      </trkpt>
      <trkpt lat="41.639590500" lon="2.534958400">
        <ele>367.40</ele>
        <time>2012-11-25T08:23:45Z</time>
      </trkpt>
      <trkpt lat="41.639770600" lon="2.535013500">
        <ele>369.30</ele>
        <time>2012-11-25T08:23:52Z</time>
      </trkpt>
      <trkpt lat="41.639791600" lon="2.535021300">
        <ele>369.30</ele>
        <time>2012-11-25T08:23:54Z</time>
      </trkpt>
      <trkpt lat="41.640025900" lon="2.535134700">
        <ele>371.20</ele>
        <time>2012-11-25T08:24:04Z</time>
      </trkpt>
      <trkpt lat="41.640224600" lon="2.535249200">
        <ele>372.60</ele>
        <time>2012-11-25T08:24:13Z</time>
      </trkpt>
      <trkpt lat="41.640429900" lon="2.535201900">
        <ele>373.10</ele>
        <time>2012-11-25T08:24:20Z</time>
      </trkpt>
      <trkpt lat="41.640616200" lon="2.535189100">
        <ele>373.60</ele>
        <time>2012-11-25T08:24:29Z</time>
      </trkpt>
      <trkpt lat="41.640782000" lon="2.535223300">
        <ele>374.60</ele>
        <time>2012-11-25T08:24:37Z</time>
      </trkpt>
      <trkpt lat="41.640973400" lon="2.535398300">
        <ele>374.10</ele>
        <time>2012-11-25T08:24:44Z</time>
      </trkpt>
      <trkpt lat="41.641080100" lon="2.535571300">
        <ele>374.60</ele>
        <time>2012-11-25T08:24:51Z</time>
      </trkpt>
      <trkpt lat="41.641171700" lon="2.535787700">
        <ele>375.00</ele>
        <time>2012-11-25T08:24:58Z</time>
      </trkpt>
      <trkpt lat="41.641278300" lon="2.536063900">
        <ele>377.00</ele>
        <time>2012-11-25T08:25:07Z</time>
      </trkpt>
      <trkpt lat="41.641333900" lon="2.536261900">
        <ele>378.40</ele>
        <time>2012-11-25T08:25:14Z</time>
      </trkpt>
      <trkpt lat="41.641390000" lon="2.536470900">
        <ele>379.90</ele>
        <time>2012-11-25T08:25:23Z</time>
      </trkpt>
      <trkpt lat="41.641468500" lon="2.536685400">
        <ele>381.30</ele>
        <time>2012-11-25T08:25:31Z</time>
      </trkpt>
      <trkpt lat="41.641596600" lon="2.536885400">
        <ele>383.20</ele>
        <time>2012-11-25T08:25:40Z</time>
      </trkpt>
      <trkpt lat="41.641647400" lon="2.537093300">
        <ele>383.20</ele>
        <time>2012-11-25T08:25:47Z</time>
      </trkpt>
      <trkpt lat="41.641586400" lon="2.537356400">
        <ele>382.70</ele>
        <time>2012-11-25T08:25:52Z</time>
      </trkpt>
      <trkpt lat="41.641608500" lon="2.537632800">
        <ele>383.20</ele>
        <time>2012-11-25T08:26:01Z</time>
      </trkpt>
      <trkpt lat="41.641637000" lon="2.537874000">
        <ele>384.20</ele>
        <time>2012-11-25T08:26:08Z</time>
      </trkpt>
      <trkpt lat="41.641748300" lon="2.538154500">
        <ele>384.70</ele>
        <time>2012-11-25T08:26:17Z</time>
      </trkpt>
      <trkpt lat="41.641794000" lon="2.538230700">
        <ele>384.70</ele>
        <time>2012-11-25T08:26:18Z</time>
      </trkpt>
      <trkpt lat="41.641854800" lon="2.538312700">
        <ele>384.20</ele>
        <time>2012-11-25T08:26:20Z</time>
      </trkpt>
      <trkpt lat="41.642007900" lon="2.538432300">
        <ele>383.70</ele>
        <time>2012-11-25T08:26:25Z</time>
      </trkpt>
      <trkpt lat="41.642266700" lon="2.538504200">
        <ele>384.20</ele>
        <time>2012-11-25T08:26:32Z</time>
      </trkpt>
      <trkpt lat="41.642457100" lon="2.538534500">
        <ele>385.60</ele>
        <time>2012-11-25T08:26:41Z</time>
      </trkpt>
      <trkpt lat="41.642657900" lon="2.538711100">
        <ele>386.10</ele>
        <time>2012-11-25T08:26:50Z</time>
      </trkpt>
      <trkpt lat="41.642858400" lon="2.538886700">
        <ele>384.70</ele>
        <time>2012-11-25T08:26:57Z</time>
      </trkpt>
      <trkpt lat="41.643020900" lon="2.538991100">
        <ele>383.70</ele>
        <time>2012-11-25T08:27:02Z</time>
      </trkpt>
      <trkpt lat="41.643236600" lon="2.539110000">
        <ele>381.30</ele>
        <time>2012-11-25T08:27:07Z</time>
      </trkpt>
      <trkpt lat="41.643319100" lon="2.539199100">
        <ele>379.90</ele>
        <time>2012-11-25T08:27:11Z</time>
      </trkpt>
      <trkpt lat="41.643363900" lon="2.539279500">
        <ele>378.90</ele>
        <time>2012-11-25T08:27:12Z</time>
      </trkpt>
      <trkpt lat="41.643544200" lon="2.539465700">
        <ele>376.00</ele>
        <time>2012-11-25T08:27:19Z</time>
      </trkpt>
      <trkpt lat="41.643798500" lon="2.539596500">
        <ele>373.10</ele>
        <time>2012-11-25T08:27:24Z</time>
      </trkpt>
      <trkpt lat="41.644060500" lon="2.539870200">
        <ele>369.80</ele>
        <time>2012-11-25T08:27:30Z</time>
      </trkpt>
      <trkpt lat="41.644154400" lon="2.539988900">
        <ele>368.30</ele>
        <time>2012-11-25T08:27:33Z</time>
      </trkpt>
      <trkpt lat="41.644304800" lon="2.540348900">
        <ele>364.00</ele>
        <time>2012-11-25T08:27:37Z</time>
      </trkpt>
      <trkpt lat="41.644370600" lon="2.540464900">
        <ele>361.60</ele>
        <time>2012-11-25T08:27:40Z</time>
      </trkpt>
      <trkpt lat="41.644497300" lon="2.540368100">
        <ele>359.70</ele>
        <time>2012-11-25T08:27:44Z</time>
      </trkpt>
      <trkpt lat="41.644537800" lon="2.540221500">
        <ele>358.70</ele>
        <time>2012-11-25T08:27:45Z</time>
      </trkpt>
      <trkpt lat="41.644593200" lon="2.539956600">
        <ele>355.80</ele>
        <time>2012-11-25T08:27:49Z</time>
      </trkpt>
      <trkpt lat="41.644744100" lon="2.539847100">
        <ele>352.90</ele>
        <time>2012-11-25T08:27:52Z</time>
      </trkpt>
      <trkpt lat="41.644789000" lon="2.539875100">
        <ele>352.50</ele>
        <time>2012-11-25T08:27:54Z</time>
      </trkpt>
      <trkpt lat="41.644923500" lon="2.539952800">
        <ele>351.00</ele>
        <time>2012-11-25T08:27:56Z</time>
      </trkpt>
      <trkpt lat="41.645133900" lon="2.540069500">
        <ele>349.60</ele>
        <time>2012-11-25T08:28:01Z</time>
      </trkpt>
      <trkpt lat="41.645343400" lon="2.540146100">
        <ele>347.60</ele>
        <time>2012-11-25T08:28:05Z</time>
      </trkpt>
      <trkpt lat="41.645619100" lon="2.540192100">
        <ele>345.70</ele>
        <time>2012-11-25T08:28:10Z</time>
      </trkpt>
      <trkpt lat="41.645838200" lon="2.540294700">
        <ele>347.20</ele>
        <time>2012-11-25T08:28:15Z</time>
      </trkpt>
      <trkpt lat="41.645990200" lon="2.540455100">
        <ele>349.10</ele>
        <time>2012-11-25T08:28:24Z</time>
      </trkpt>
      <trkpt lat="41.646120300" lon="2.540596700">
        <ele>351.50</ele>
        <time>2012-11-25T08:28:31Z</time>
      </trkpt>
      <trkpt lat="41.646271000" lon="2.540681100">
        <ele>353.40</ele>
        <time>2012-11-25T08:28:39Z</time>
      </trkpt>
      <trkpt lat="41.646372000" lon="2.540708000">
        <ele>355.30</ele>
        <time>2012-11-25T08:28:46Z</time>
      </trkpt>
      <trkpt lat="41.646500500" lon="2.540754700">
        <ele>358.20</ele>
        <time>2012-11-25T08:28:55Z</time>
      </trkpt>
      <trkpt lat="41.646610400" lon="2.540802800">
        <ele>360.60</ele>
        <time>2012-11-25T08:29:02Z</time>
      </trkpt>
      <trkpt lat="41.646722900" lon="2.540780100">
        <ele>362.50</ele>
        <time>2012-11-25T08:29:11Z</time>
      </trkpt>
      <trkpt lat="41.646872300" lon="2.540731900">
        <ele>364.00</ele>
        <time>2012-11-25T08:29:19Z</time>
      </trkpt>
      <trkpt lat="41.647045700" lon="2.540711900">
        <ele>365.00</ele>
        <time>2012-11-25T08:29:30Z</time>
      </trkpt>
      <trkpt lat="41.647182300" lon="2.540711600">
        <ele>365.90</ele>
        <time>2012-11-25T08:29:37Z</time>
      </trkpt>
      <trkpt lat="41.647357900" lon="2.540748600">
        <ele>366.90</ele>
        <time>2012-11-25T08:29:47Z</time>
      </trkpt>
      <trkpt lat="41.647465100" lon="2.540800000">
        <ele>368.80</ele>
        <time>2012-11-25T08:29:54Z</time>
      </trkpt>
      <trkpt lat="41.647631300" lon="2.540921800">
        <ele>371.20</ele>
        <time>2012-11-25T08:30:05Z</time>
      </trkpt>
      <trkpt lat="41.647737500" lon="2.541021300">
        <ele>373.10</ele>
        <time>2012-11-25T08:30:13Z</time>
      </trkpt>
      <trkpt lat="41.647863400" lon="2.541129700">
        <ele>375.00</ele>
        <time>2012-11-25T08:30:24Z</time>
      </trkpt>
      <trkpt lat="41.647974200" lon="2.541208700">
        <ele>377.00</ele>
        <time>2012-11-25T08:30:31Z</time>
      </trkpt>
      <trkpt lat="41.648099600" lon="2.541237100">
        <ele>378.40</ele>
        <time>2012-11-25T08:30:40Z</time>
      </trkpt>
      <trkpt lat="41.648199000" lon="2.541257100">
        <ele>378.90</ele>
        <time>2012-11-25T08:30:45Z</time>
      </trkpt>
      <trkpt lat="41.648356600" lon="2.541320700">
        <ele>379.40</ele>
        <time>2012-11-25T08:30:55Z</time>
      </trkpt>
      <trkpt lat="41.648478500" lon="2.541349700">
        <ele>380.80</ele>
        <time>2012-11-25T08:31:02Z</time>
      </trkpt>
      <trkpt lat="41.648610100" lon="2.541364600">
        <ele>381.80</ele>
        <time>2012-11-25T08:31:09Z</time>
      </trkpt>
      <trkpt lat="41.648764900" lon="2.541414900">
        <ele>382.70</ele>
        <time>2012-11-25T08:31:18Z</time>
      </trkpt>
      <trkpt lat="41.648904200" lon="2.541511700">
        <ele>383.70</ele>
        <time>2012-11-25T08:31:27Z</time>
      </trkpt>
      <trkpt lat="41.649016000" lon="2.541654700">
        <ele>384.70</ele>
        <time>2012-11-25T08:31:35Z</time>
      </trkpt>
      <trkpt lat="41.649085500" lon="2.541932000">
        <ele>385.60</ele>
        <time>2012-11-25T08:31:46Z</time>
      </trkpt>
      <trkpt lat="41.649062700" lon="2.542141900">
        <ele>386.10</ele>
        <time>2012-11-25T08:31:53Z</time>
      </trkpt>
      <trkpt lat="41.649073600" lon="2.542306100">
        <ele>386.60</ele>
        <time>2012-11-25T08:32:00Z</time>
      </trkpt>
      <trkpt lat="41.649112000" lon="2.542505500">
        <ele>387.50</ele>
        <time>2012-11-25T08:32:08Z</time>
      </trkpt>
      <trkpt lat="41.649170500" lon="2.542696600">
        <ele>388.00</ele>
        <time>2012-11-25T08:32:15Z</time>
      </trkpt>
      <trkpt lat="41.649269900" lon="2.542917900">
        <ele>389.00</ele>
        <time>2012-11-25T08:32:24Z</time>
      </trkpt>
      <trkpt lat="41.649310800" lon="2.543109100">
        <ele>389.50</ele>
        <time>2012-11-25T08:32:31Z</time>
      </trkpt>
      <trkpt lat="41.649382100" lon="2.543388700">
        <ele>390.90</ele>
        <time>2012-11-25T08:32:43Z</time>
      </trkpt>
      <trkpt lat="41.649428500" lon="2.543606200">
        <ele>391.90</ele>
        <time>2012-11-25T08:32:50Z</time>
      </trkpt>
      <trkpt lat="41.649459400" lon="2.543870600">
        <ele>393.80</ele>
        <time>2012-11-25T08:33:01Z</time>
      </trkpt>
      <trkpt lat="41.649475400" lon="2.544103100">
        <ele>395.20</ele>
        <time>2012-11-25T08:33:11Z</time>
      </trkpt>
      <trkpt lat="41.649514100" lon="2.544320400">
        <ele>395.70</ele>
        <time>2012-11-25T08:33:20Z</time>
      </trkpt>
      <trkpt lat="41.649636800" lon="2.544534700">
        <ele>396.70</ele>
        <time>2012-11-25T08:33:30Z</time>
      </trkpt>
      <trkpt lat="41.649730400" lon="2.544665500">
        <ele>397.60</ele>
        <time>2012-11-25T08:33:37Z</time>
      </trkpt>
      <trkpt lat="41.649876400" lon="2.544718900">
        <ele>398.60</ele>
        <time>2012-11-25T08:33:46Z</time>
      </trkpt>
      <trkpt lat="41.650000100" lon="2.544677000">
        <ele>400.00</ele>
        <time>2012-11-25T08:33:53Z</time>
      </trkpt>
      <trkpt lat="41.650159100" lon="2.544608000">
        <ele>401.50</ele>
        <time>2012-11-25T08:34:03Z</time>
      </trkpt>
      <trkpt lat="41.650294900" lon="2.544614700">
        <ele>402.90</ele>
        <time>2012-11-25T08:34:12Z</time>
      </trkpt>
      <trkpt lat="41.650440400" lon="2.544628600">
        <ele>403.40</ele>
        <time>2012-11-25T08:34:19Z</time>
      </trkpt>
      <trkpt lat="41.650587200" lon="2.544675300">
        <ele>404.40</ele>
        <time>2012-11-25T08:34:28Z</time>
      </trkpt>
      <trkpt lat="41.650720700" lon="2.544764500">
        <ele>405.30</ele>
        <time>2012-11-25T08:34:35Z</time>
      </trkpt>
      <trkpt lat="41.650849000" lon="2.544888700">
        <ele>407.30</ele>
        <time>2012-11-25T08:34:45Z</time>
      </trkpt>
      <trkpt lat="41.650967100" lon="2.544998500">
        <ele>408.70</ele>
        <time>2012-11-25T08:34:54Z</time>
      </trkpt>
      <trkpt lat="41.651106500" lon="2.544975800">
        <ele>410.10</ele>
        <time>2012-11-25T08:35:03Z</time>
      </trkpt>
      <trkpt lat="41.651248300" lon="2.544893700">
        <ele>411.10</ele>
        <time>2012-11-25T08:35:11Z</time>
      </trkpt>
      <trkpt lat="41.651380700" lon="2.544851500">
        <ele>412.50</ele>
        <time>2012-11-25T08:35:20Z</time>
      </trkpt>
      <trkpt lat="41.651549200" lon="2.544896400">
        <ele>414.50</ele>
        <time>2012-11-25T08:35:29Z</time>
      </trkpt>
      <trkpt lat="41.651665500" lon="2.544882100">
        <ele>415.90</ele>
        <time>2012-11-25T08:35:36Z</time>
      </trkpt>
      <trkpt lat="41.651752600" lon="2.544799300">
        <ele>416.90</ele>
        <time>2012-11-25T08:35:43Z</time>
      </trkpt>
      <trkpt lat="41.651877800" lon="2.544682900">
        <ele>419.30</ele>
        <time>2012-11-25T08:35:53Z</time>
      </trkpt>
      <trkpt lat="41.652005700" lon="2.544571100">
        <ele>421.70</ele>
        <time>2012-11-25T08:36:04Z</time>
      </trkpt>
      <trkpt lat="41.652097100" lon="2.544517000">
        <ele>423.60</ele>
        <time>2012-11-25T08:36:11Z</time>
      </trkpt>
      <trkpt lat="41.652260100" lon="2.544453800">
        <ele>425.00</ele>
        <time>2012-11-25T08:36:21Z</time>
      </trkpt>
      <trkpt lat="41.652416400" lon="2.544417000">
        <ele>426.00</ele>
        <time>2012-11-25T08:36:31Z</time>
      </trkpt>
      <trkpt lat="41.652573700" lon="2.544395600">
        <ele>427.00</ele>
        <time>2012-11-25T08:36:42Z</time>
      </trkpt>
      <trkpt lat="41.652733900" lon="2.544400500">
        <ele>428.40</ele>
        <time>2012-11-25T08:36:52Z</time>
      </trkpt>
      <trkpt lat="41.652886500" lon="2.544393800">
        <ele>429.90</ele>
        <time>2012-11-25T08:37:01Z</time>
      </trkpt>
      <trkpt lat="41.652976600" lon="2.544386600">
        <ele>430.80</ele>
        <time>2012-11-25T08:37:08Z</time>
      </trkpt>
      <trkpt lat="41.653122700" lon="2.544351900">
        <ele>432.70</ele>
        <time>2012-11-25T08:37:17Z</time>
      </trkpt>
      <trkpt lat="41.653262700" lon="2.544341800">
        <ele>434.60</ele>
        <time>2012-11-25T08:37:25Z</time>
      </trkpt>
      <trkpt lat="41.653382200" lon="2.544363200">
        <ele>437.10</ele>
        <time>2012-11-25T08:37:34Z</time>
      </trkpt>
      <trkpt lat="41.653491600" lon="2.544462500">
        <ele>439.00</ele>
        <time>2012-11-25T08:37:43Z</time>
      </trkpt>
      <trkpt lat="41.653610500" lon="2.544542300">
        <ele>440.40</ele>
        <time>2012-11-25T08:37:50Z</time>
      </trkpt>
      <trkpt lat="41.653709600" lon="2.544599000">
        <ele>441.90</ele>
        <time>2012-11-25T08:37:59Z</time>
      </trkpt>
      <trkpt lat="41.653745800" lon="2.544511200">
        <ele>443.30</ele>
        <time>2012-11-25T08:38:04Z</time>
      </trkpt>
      <trkpt lat="41.653787800" lon="2.544324100">
        <ele>444.80</ele>
        <time>2012-11-25T08:38:14Z</time>
      </trkpt>
      <trkpt lat="41.653874700" lon="2.544128500">
        <ele>444.30</ele>
        <time>2012-11-25T08:38:21Z</time>
      </trkpt>
      <trkpt lat="41.653966100" lon="2.543933800">
        <ele>444.80</ele>
        <time>2012-11-25T08:38:28Z</time>
      </trkpt>
      <trkpt lat="41.654117100" lon="2.543763700">
        <ele>444.80</ele>
        <time>2012-11-25T08:38:37Z</time>
      </trkpt>
      <trkpt lat="41.654310500" lon="2.543723400">
        <ele>443.80</ele>
        <time>2012-11-25T08:38:42Z</time>
      </trkpt>
      <trkpt lat="41.654344200" lon="2.543713000">
        <ele>443.80</ele>
        <time>2012-11-25T08:38:44Z</time>
      </trkpt>
      <trkpt lat="41.654573300" lon="2.543581200">
        <ele>443.80</ele>
        <time>2012-11-25T08:38:51Z</time>
      </trkpt>
      <trkpt lat="41.654706200" lon="2.543512500">
        <ele>444.30</ele>
        <time>2012-11-25T08:38:56Z</time>
      </trkpt>
      <trkpt lat="41.654797700" lon="2.543450500">
        <ele>444.30</ele>
        <time>2012-11-25T08:39:01Z</time>
      </trkpt>
      <trkpt lat="41.654860100" lon="2.543389100">
        <ele>443.80</ele>
        <time>2012-11-25T08:39:03Z</time>
      </trkpt>
      <trkpt lat="41.655137800" lon="2.543138500">
        <ele>442.80</ele>
        <time>2012-11-25T08:39:10Z</time>
      </trkpt>
      <trkpt lat="41.655267900" lon="2.542857400">
        <ele>444.80</ele>
        <time>2012-11-25T08:39:19Z</time>
      </trkpt>
      <trkpt lat="41.655304700" lon="2.542786300">
        <ele>445.20</ele>
        <time>2012-11-25T08:39:22Z</time>
      </trkpt>
      <trkpt lat="41.655437300" lon="2.542787600">
        <ele>445.70</ele>
        <time>2012-11-25T08:39:29Z</time>
      </trkpt>
      <trkpt lat="41.655605000" lon="2.542911600">
        <ele>446.20</ele>
        <time>2012-11-25T08:39:38Z</time>
      </trkpt>
      <trkpt lat="41.655747600" lon="2.543039800">
        <ele>447.10</ele>
        <time>2012-11-25T08:39:47Z</time>
      </trkpt>
      <trkpt lat="41.655874400" lon="2.543197400">
        <ele>448.10</ele>
        <time>2012-11-25T08:39:55Z</time>
      </trkpt>
      <trkpt lat="41.655982600" lon="2.543311100">
        <ele>449.50</ele>
        <time>2012-11-25T08:40:02Z</time>
      </trkpt>
      <trkpt lat="41.656039400" lon="2.543398800">
        <ele>450.50</ele>
        <time>2012-11-25T08:40:09Z</time>
      </trkpt>
      <trkpt lat="41.656164400" lon="2.543509900">
        <ele>451.50</ele>
        <time>2012-11-25T08:40:16Z</time>
      </trkpt>
      <trkpt lat="41.656293500" lon="2.543605900">
        <ele>452.90</ele>
        <time>2012-11-25T08:40:25Z</time>
      </trkpt>
      <trkpt lat="41.656403300" lon="2.543609300">
        <ele>453.90</ele>
        <time>2012-11-25T08:40:32Z</time>
      </trkpt>
      <trkpt lat="41.656568100" lon="2.543539400">
        <ele>455.80</ele>
        <time>2012-11-25T08:40:42Z</time>
      </trkpt>
      <trkpt lat="41.656693900" lon="2.543508300">
        <ele>456.80</ele>
        <time>2012-11-25T08:40:51Z</time>
      </trkpt>
      <trkpt lat="41.656742400" lon="2.543516100">
        <ele>457.20</ele>
        <time>2012-11-25T08:40:56Z</time>
      </trkpt>
      <trkpt lat="41.656786400" lon="2.543530400">
        <ele>458.20</ele>
        <time>2012-11-25T08:41:01Z</time>
      </trkpt>
      <trkpt lat="41.656815100" lon="2.543566400">
        <ele>458.70</ele>
        <time>2012-11-25T08:41:05Z</time>
      </trkpt>
      <trkpt lat="41.656842200" lon="2.543621800">
        <ele>459.20</ele>
        <time>2012-11-25T08:41:08Z</time>
      </trkpt>
      <trkpt lat="41.656855100" lon="2.543792200">
        <ele>461.10</ele>
        <time>2012-11-25T08:41:17Z</time>
      </trkpt>
      <trkpt lat="41.656849800" lon="2.543944000">
        <ele>461.60</ele>
        <time>2012-11-25T08:41:24Z</time>
      </trkpt>
      <trkpt lat="41.656842900" lon="2.544073600">
        <ele>463.50</ele>
        <time>2012-11-25T08:41:33Z</time>
      </trkpt>
      <trkpt lat="41.656840400" lon="2.544114400">
        <ele>464.00</ele>
        <time>2012-11-25T08:41:36Z</time>
      </trkpt>
      <trkpt lat="41.656850500" lon="2.544146900">
        <ele>464.50</ele>
        <time>2012-11-25T08:41:38Z</time>
      </trkpt>
      <trkpt lat="41.656883900" lon="2.544217000">
        <ele>465.40</ele>
        <time>2012-11-25T08:41:43Z</time>
      </trkpt>
      <trkpt lat="41.656924100" lon="2.544289500">
        <ele>465.90</ele>
        <time>2012-11-25T08:41:47Z</time>
      </trkpt>
      <trkpt lat="41.656942200" lon="2.544304000">
        <ele>466.40</ele>
        <time>2012-11-25T08:41:50Z</time>
      </trkpt>
      <trkpt lat="41.657001100" lon="2.544417600">
        <ele>467.30</ele>
        <time>2012-11-25T08:41:57Z</time>
      </trkpt>
      <trkpt lat="41.657004300" lon="2.544435100">
        <ele>467.30</ele>
        <time>2012-11-25T08:41:59Z</time>
      </trkpt>
      <trkpt lat="41.657030400" lon="2.544584600">
        <ele>469.70</ele>
        <time>2012-11-25T08:42:09Z</time>
      </trkpt>
      <trkpt lat="41.657028000" lon="2.544707000">
        <ele>471.70</ele>
        <time>2012-11-25T08:42:16Z</time>
      </trkpt>
      <trkpt lat="41.657027200" lon="2.544722600">
        <ele>472.10</ele>
        <time>2012-11-25T08:42:18Z</time>
      </trkpt>
      <trkpt lat="41.657021900" lon="2.544841300">
        <ele>473.60</ele>
        <time>2012-11-25T08:42:25Z</time>
      </trkpt>
      <trkpt lat="41.657031700" lon="2.544960900">
        <ele>474.10</ele>
        <time>2012-11-25T08:42:34Z</time>
      </trkpt>
      <trkpt lat="41.657049200" lon="2.545080300">
        <ele>474.50</ele>
        <time>2012-11-25T08:42:41Z</time>
      </trkpt>
      <trkpt lat="41.657111800" lon="2.545237100">
        <ele>476.00</ele>
        <time>2012-11-25T08:42:51Z</time>
      </trkpt>
      <trkpt lat="41.657119900" lon="2.545275300">
        <ele>476.00</ele>
        <time>2012-11-25T08:42:58Z</time>
      </trkpt>
      <trkpt lat="41.657120500" lon="2.545305300">
        <ele>476.50</ele>
        <time>2012-11-25T08:43:14Z</time>
      </trkpt>
      <trkpt lat="41.657112400" lon="2.545256300">
        <ele>475.50</ele>
        <time>2012-11-25T08:43:23Z</time>
      </trkpt>
      <trkpt lat="41.657094100" lon="2.545204200">
        <ele>474.50</ele>
        <time>2012-11-25T08:43:31Z</time>
      </trkpt>
      <trkpt lat="41.657097100" lon="2.545198000">
        <ele>474.50</ele>
        <time>2012-11-25T08:43:31Z</time>
      </trkpt>
      <trkpt lat="41.657177900" lon="2.545191300">
        <ele>473.10</ele>
        <time>2012-11-25T08:43:38Z</time>
      </trkpt>
      <trkpt lat="41.657321300" lon="2.545135800">
        <ele>471.20</ele>
        <time>2012-11-25T08:43:43Z</time>
      </trkpt>
      <trkpt lat="41.657542800" lon="2.545003200">
        <ele>469.70</ele>
        <time>2012-11-25T08:43:50Z</time>
      </trkpt>
      <trkpt lat="41.657658300" lon="2.544855400">
        <ele>469.30</ele>
        <time>2012-11-25T08:43:57Z</time>
      </trkpt>
      <trkpt lat="41.657715300" lon="2.544811900">
        <ele>469.30</ele>
        <time>2012-11-25T08:44:01Z</time>
      </trkpt>
      <trkpt lat="41.657764300" lon="2.544757600">
        <ele>468.80</ele>
        <time>2012-11-25T08:44:06Z</time>
      </trkpt>
      <trkpt lat="41.657889000" lon="2.544757900">
        <ele>466.40</ele>
        <time>2012-11-25T08:44:13Z</time>
      </trkpt>
      <trkpt lat="41.657992200" lon="2.544790100">
        <ele>464.90</ele>
        <time>2012-11-25T08:44:15Z</time>
      </trkpt>
      <trkpt lat="41.658071500" lon="2.544767300">
        <ele>463.50</ele>
        <time>2012-11-25T08:44:18Z</time>
      </trkpt>
      <trkpt lat="41.658105500" lon="2.544750600">
        <ele>463.00</ele>
        <time>2012-11-25T08:44:20Z</time>
      </trkpt>
      <trkpt lat="41.658342600" lon="2.544731100">
        <ele>461.60</ele>
        <time>2012-11-25T08:44:25Z</time>
      </trkpt>
      <trkpt lat="41.658457300" lon="2.544747400">
        <ele>460.60</ele>
        <time>2012-11-25T08:44:30Z</time>
      </trkpt>
      <trkpt lat="41.658592400" lon="2.544716300">
        <ele>458.20</ele>
        <time>2012-11-25T08:44:36Z</time>
      </trkpt>
      <trkpt lat="41.658651600" lon="2.544615400">
        <ele>456.80</ele>
        <time>2012-11-25T08:44:41Z</time>
      </trkpt>
      <trkpt lat="41.658647300" lon="2.544510900">
        <ele>455.80</ele>
        <time>2012-11-25T08:44:43Z</time>
      </trkpt>
      <trkpt lat="41.658593500" lon="2.544299100">
        <ele>455.30</ele>
        <time>2012-11-25T08:44:46Z</time>
      </trkpt>
      <trkpt lat="41.658590000" lon="2.544100400">
        <ele>456.80</ele>
        <time>2012-11-25T08:44:55Z</time>
      </trkpt>
      <trkpt lat="41.658569600" lon="2.543919300">
        <ele>455.80</ele>
        <time>2012-11-25T08:44:58Z</time>
      </trkpt>
      <trkpt lat="41.658558500" lon="2.543644300">
        <ele>454.40</ele>
        <time>2012-11-25T08:45:04Z</time>
      </trkpt>
      <trkpt lat="41.658484800" lon="2.543297600">
        <ele>452.40</ele>
        <time>2012-11-25T08:45:09Z</time>
      </trkpt>
      <trkpt lat="41.658437500" lon="2.543054600">
        <ele>452.00</ele>
        <time>2012-11-25T08:45:16Z</time>
      </trkpt>
      <trkpt lat="41.658418600" lon="2.542933400">
        <ele>451.50</ele>
        <time>2012-11-25T08:45:23Z</time>
      </trkpt>
      <trkpt lat="41.658427700" lon="2.542915800">
        <ele>451.50</ele>
        <time>2012-11-25T08:45:31Z</time>
      </trkpt>
      <trkpt lat="41.658328400" lon="2.542757900">
        <ele>450.00</ele>
        <time>2012-11-25T08:45:37Z</time>
      </trkpt>
      <trkpt lat="41.658303400" lon="2.542719700">
        <ele>448.60</ele>
        <time>2012-11-25T08:45:37Z</time>
      </trkpt>
      <trkpt lat="41.658188300" lon="2.542502600">
        <ele>444.80</ele>
        <time>2012-11-25T08:45:42Z</time>
      </trkpt>
      <trkpt lat="41.658098600" lon="2.542209300">
        <ele>439.90</ele>
        <time>2012-11-25T08:45:47Z</time>
      </trkpt>
      <trkpt lat="41.658000800" lon="2.542011700">
        <ele>437.50</ele>
        <time>2012-11-25T08:45:52Z</time>
      </trkpt>
      <trkpt lat="41.657923900" lon="2.541855000">
        <ele>433.20</ele>
        <time>2012-11-25T08:45:56Z</time>
      </trkpt>
      <trkpt lat="41.657906600" lon="2.541831600">
        <ele>433.20</ele>
        <time>2012-11-25T08:45:58Z</time>
      </trkpt>
      <trkpt lat="41.657851900" lon="2.541708400">
        <ele>431.30</ele>
        <time>2012-11-25T08:46:03Z</time>
      </trkpt>
      <trkpt lat="41.657814700" lon="2.541644400">
        <ele>430.30</ele>
        <time>2012-11-25T08:46:05Z</time>
      </trkpt>
      <trkpt lat="41.657771700" lon="2.541587100">
        <ele>428.90</ele>
        <time>2012-11-25T08:46:06Z</time>
      </trkpt>
      <trkpt lat="41.657778100" lon="2.541465300">
        <ele>426.50</ele>
        <time>2012-11-25T08:46:13Z</time>
      </trkpt>
      <trkpt lat="41.657792700" lon="2.541453200">
        <ele>427.00</ele>
        <time>2012-11-25T08:46:20Z</time>
      </trkpt>
      <trkpt lat="41.657807600" lon="2.541446000">
        <ele>427.00</ele>
        <time>2012-11-25T08:46:22Z</time>
      </trkpt>
      <trkpt lat="41.657917300" lon="2.541477800">
        <ele>424.10</ele>
        <time>2012-11-25T08:46:27Z</time>
      </trkpt>
      <trkpt lat="41.657987400" lon="2.541520400">
        <ele>423.60</ele>
        <time>2012-11-25T08:46:29Z</time>
      </trkpt>
      <trkpt lat="41.658104300" lon="2.541580100">
        <ele>421.20</ele>
        <time>2012-11-25T08:46:31Z</time>
      </trkpt>
      <trkpt lat="41.658230400" lon="2.541692900">
        <ele>419.30</ele>
        <time>2012-11-25T08:46:34Z</time>
      </trkpt>
      <trkpt lat="41.658460700" lon="2.541858700">
        <ele>417.80</ele>
        <time>2012-11-25T08:46:39Z</time>
      </trkpt>
      <trkpt lat="41.658543000" lon="2.541977500">
        <ele>417.80</ele>
        <time>2012-11-25T08:46:43Z</time>
      </trkpt>
      <trkpt lat="41.658677900" lon="2.542085200">
        <ele>415.40</ele>
        <time>2012-11-25T08:46:46Z</time>
      </trkpt>
      <trkpt lat="41.658805100" lon="2.541997300">
        <ele>412.50</ele>
        <time>2012-11-25T08:46:50Z</time>
      </trkpt>
      <trkpt lat="41.658801100" lon="2.541901000">
        <ele>412.10</ele>
        <time>2012-11-25T08:46:53Z</time>
      </trkpt>
      <trkpt lat="41.658773500" lon="2.541766100">
        <ele>413.50</ele>
        <time>2012-11-25T08:47:00Z</time>
      </trkpt>
      <trkpt lat="41.658739700" lon="2.541685100">
        <ele>414.50</ele>
        <time>2012-11-25T08:47:05Z</time>
      </trkpt>
      <trkpt lat="41.658710900" lon="2.541513700">
        <ele>415.00</ele>
        <time>2012-11-25T08:47:14Z</time>
      </trkpt>
      <trkpt lat="41.658731700" lon="2.541370200">
        <ele>415.00</ele>
        <time>2012-11-25T08:47:21Z</time>
      </trkpt>
      <trkpt lat="41.658789000" lon="2.541287700">
        <ele>415.00</ele>
        <time>2012-11-25T08:47:25Z</time>
      </trkpt>
      <trkpt lat="41.658813100" lon="2.541136900">
        <ele>415.40</ele>
        <time>2012-11-25T08:47:32Z</time>
      </trkpt>
      <trkpt lat="41.658759700" lon="2.540958700">
        <ele>416.40</ele>
        <time>2012-11-25T08:47:42Z</time>
      </trkpt>
      <trkpt lat="41.658650900" lon="2.540818300">
        <ele>418.80</ele>
        <time>2012-11-25T08:47:51Z</time>
      </trkpt>
      <trkpt lat="41.658557800" lon="2.540641700">
        <ele>420.70</ele>
        <time>2012-11-25T08:48:01Z</time>
      </trkpt>
      <trkpt lat="41.658482200" lon="2.540503900">
        <ele>422.20</ele>
        <time>2012-11-25T08:48:10Z</time>
      </trkpt>
      <trkpt lat="41.658468800" lon="2.540385300">
        <ele>423.60</ele>
        <time>2012-11-25T08:48:17Z</time>
      </trkpt>
      <trkpt lat="41.658533300" lon="2.540223800">
        <ele>425.50</ele>
        <time>2012-11-25T08:48:26Z</time>
      </trkpt>
      <trkpt lat="41.658600700" lon="2.540129200">
        <ele>426.50</ele>
        <time>2012-11-25T08:48:33Z</time>
      </trkpt>
      <trkpt lat="41.658699700" lon="2.540016500">
        <ele>427.90</ele>
        <time>2012-11-25T08:48:41Z</time>
      </trkpt>
      <trkpt lat="41.658775700" lon="2.539916000">
        <ele>429.40</ele>
        <time>2012-11-25T08:48:48Z</time>
      </trkpt>
      <trkpt lat="41.658840300" lon="2.539804600">
        <ele>431.30</ele>
        <time>2012-11-25T08:48:55Z</time>
      </trkpt>
      <trkpt lat="41.658843900" lon="2.539792700">
        <ele>431.30</ele>
        <time>2012-11-25T08:48:57Z</time>
      </trkpt>
      <trkpt lat="41.658814100" lon="2.539664900">
        <ele>432.20</ele>
        <time>2012-11-25T08:49:04Z</time>
      </trkpt>
      <trkpt lat="41.658712800" lon="2.539670100">
        <ele>432.70</ele>
        <time>2012-11-25T08:49:13Z</time>
      </trkpt>
      <trkpt lat="41.658586800" lon="2.539613100">
        <ele>432.20</ele>
        <time>2012-11-25T08:49:18Z</time>
      </trkpt>
      <trkpt lat="41.658470000" lon="2.539514000">
        <ele>432.20</ele>
        <time>2012-11-25T08:49:25Z</time>
      </trkpt>
      <trkpt lat="41.658413700" lon="2.539496100">
        <ele>432.70</ele>
        <time>2012-11-25T08:49:28Z</time>
      </trkpt>
      <trkpt lat="41.658189800" lon="2.539443400">
        <ele>433.70</ele>
        <time>2012-11-25T08:49:37Z</time>
      </trkpt>
      <trkpt lat="41.658051600" lon="2.539356500">
        <ele>433.70</ele>
        <time>2012-11-25T08:49:44Z</time>
      </trkpt>
      <trkpt lat="41.658024700" lon="2.539315200">
        <ele>434.20</ele>
        <time>2012-11-25T08:49:46Z</time>
      </trkpt>
      <trkpt lat="41.658038600" lon="2.539160200">
        <ele>434.60</ele>
        <time>2012-11-25T08:49:53Z</time>
      </trkpt>
      <trkpt lat="41.658135100" lon="2.538977700">
        <ele>436.10</ele>
        <time>2012-11-25T08:50:01Z</time>
      </trkpt>
      <trkpt lat="41.658222300" lon="2.538848000">
        <ele>437.50</ele>
        <time>2012-11-25T08:50:10Z</time>
      </trkpt>
      <trkpt lat="41.658263800" lon="2.538665500">
        <ele>439.50</ele>
        <time>2012-11-25T08:50:17Z</time>
      </trkpt>
      <trkpt lat="41.658270700" lon="2.538603800">
        <ele>439.90</ele>
        <time>2012-11-25T08:50:21Z</time>
      </trkpt>
      <trkpt lat="41.658238800" lon="2.538421500">
        <ele>441.40</ele>
        <time>2012-11-25T08:50:29Z</time>
      </trkpt>
      <trkpt lat="41.658218200" lon="2.538249800">
        <ele>442.30</ele>
        <time>2012-11-25T08:50:38Z</time>
      </trkpt>
      <trkpt lat="41.658212500" lon="2.537991800">
        <ele>442.80</ele>
        <time>2012-11-25T08:50:47Z</time>
      </trkpt>
      <trkpt lat="41.658289200" lon="2.537727000">
        <ele>442.80</ele>
        <time>2012-11-25T08:50:54Z</time>
      </trkpt>
      <trkpt lat="41.658320000" lon="2.537515800">
        <ele>443.30</ele>
        <time>2012-11-25T08:51:01Z</time>
      </trkpt>
      <trkpt lat="41.658237100" lon="2.537330400">
        <ele>444.30</ele>
        <time>2012-11-25T08:51:09Z</time>
      </trkpt>
      <trkpt lat="41.658189300" lon="2.537144700">
        <ele>446.70</ele>
        <time>2012-11-25T08:51:18Z</time>
      </trkpt>
      <trkpt lat="41.658152000" lon="2.536948800">
        <ele>449.10</ele>
        <time>2012-11-25T08:51:27Z</time>
      </trkpt>
      <trkpt lat="41.658124600" lon="2.536721700">
        <ele>451.00</ele>
        <time>2012-11-25T08:51:36Z</time>
      </trkpt>
      <trkpt lat="41.658134800" lon="2.536492400">
        <ele>452.90</ele>
        <time>2012-11-25T08:51:44Z</time>
      </trkpt>
      <trkpt lat="41.658226500" lon="2.536355700">
        <ele>452.40</ele>
        <time>2012-11-25T08:51:51Z</time>
      </trkpt>
      <trkpt lat="41.658254600" lon="2.536321600">
        <ele>452.40</ele>
        <time>2012-11-25T08:51:51Z</time>
      </trkpt>
      <trkpt lat="41.658323300" lon="2.535998200">
        <ele>451.00</ele>
        <time>2012-11-25T08:51:58Z</time>
      </trkpt>
      <trkpt lat="41.658310700" lon="2.535855100">
        <ele>450.50</ele>
        <time>2012-11-25T08:52:03Z</time>
      </trkpt>
      <trkpt lat="41.658234800" lon="2.535589200">
        <ele>449.50</ele>
        <time>2012-11-25T08:52:12Z</time>
      </trkpt>
      <trkpt lat="41.658099000" lon="2.535325800">
        <ele>449.10</ele>
        <time>2012-11-25T08:52:19Z</time>
      </trkpt>
      <trkpt lat="41.657999200" lon="2.535080500">
        <ele>447.60</ele>
        <time>2012-11-25T08:52:26Z</time>
      </trkpt>
      <trkpt lat="41.657907900" lon="2.534959100">
        <ele>446.70</ele>
        <time>2012-11-25T08:52:28Z</time>
      </trkpt>
      <trkpt lat="41.657745700" lon="2.534810200">
        <ele>442.30</ele>
        <time>2012-11-25T08:52:33Z</time>
      </trkpt>
      <trkpt lat="41.657535600" lon="2.534673500">
        <ele>439.00</ele>
        <time>2012-11-25T08:52:38Z</time>
      </trkpt>
      <trkpt lat="41.657297700" lon="2.534558000">
        <ele>436.10</ele>
        <time>2012-11-25T08:52:42Z</time>
      </trkpt>
      <trkpt lat="41.657248700" lon="2.534527600">
        <ele>435.60</ele>
        <time>2012-11-25T08:52:43Z</time>
      </trkpt>
      <trkpt lat="41.657156300" lon="2.534460100">
        <ele>435.10</ele>
        <time>2012-11-25T08:52:45Z</time>
      </trkpt>
      <trkpt lat="41.656982700" lon="2.534242700">
        <ele>433.70</ele>
        <time>2012-11-25T08:52:50Z</time>
      </trkpt>
      <trkpt lat="41.656846600" lon="2.533968300">
        <ele>433.70</ele>
        <time>2012-11-25T08:52:57Z</time>
      </trkpt>
      <trkpt lat="41.656734100" lon="2.533719000">
        <ele>434.20</ele>
        <time>2012-11-25T08:53:06Z</time>
      </trkpt>
      <trkpt lat="41.656725000" lon="2.533414000">
        <ele>433.70</ele>
        <time>2012-11-25T08:53:13Z</time>
      </trkpt>
      <trkpt lat="41.656729400" lon="2.533365000">
        <ele>433.20</ele>
        <time>2012-11-25T08:53:13Z</time>
      </trkpt>
      <trkpt lat="41.656723200" lon="2.533154700">
        <ele>431.80</ele>
        <time>2012-11-25T08:53:18Z</time>
      </trkpt>
      <trkpt lat="41.656711000" lon="2.533058200">
        <ele>430.80</ele>
        <time>2012-11-25T08:53:20Z</time>
      </trkpt>
      <trkpt lat="41.656734400" lon="2.533022400">
        <ele>431.30</ele>
        <time>2012-11-25T08:53:25Z</time>
      </trkpt>
      <trkpt lat="41.656843600" lon="2.533100600">
        <ele>431.30</ele>
        <time>2012-11-25T08:53:32Z</time>
      </trkpt>
      <trkpt lat="41.656895700" lon="2.533241400">
        <ele>429.90</ele>
        <time>2012-11-25T08:53:36Z</time>
      </trkpt>
      <trkpt lat="41.656983800" lon="2.533562100">
        <ele>427.90</ele>
        <time>2012-11-25T08:53:41Z</time>
      </trkpt>
      <trkpt lat="41.657068100" lon="2.533787900">
        <ele>427.00</ele>
        <time>2012-11-25T08:53:44Z</time>
      </trkpt>
      <trkpt lat="41.657180600" lon="2.533893600">
        <ele>426.50</ele>
        <time>2012-11-25T08:53:48Z</time>
      </trkpt>
      <trkpt lat="41.657215500" lon="2.533893800">
        <ele>426.50</ele>
        <time>2012-11-25T08:53:50Z</time>
      </trkpt>
      <trkpt lat="41.657436600" lon="2.533832300">
        <ele>427.00</ele>
        <time>2012-11-25T08:53:58Z</time>
      </trkpt>
      <trkpt lat="41.657627500" lon="2.533809200">
        <ele>428.40</ele>
        <time>2012-11-25T08:54:05Z</time>
      </trkpt>
      <trkpt lat="41.657710200" lon="2.533817000">
        <ele>429.90</ele>
        <time>2012-11-25T08:54:09Z</time>
      </trkpt>
      <trkpt lat="41.657815700" lon="2.533971600">
        <ele>431.30</ele>
        <time>2012-11-25T08:54:16Z</time>
      </trkpt>
      <trkpt lat="41.657830000" lon="2.534004700">
        <ele>431.30</ele>
        <time>2012-11-25T08:54:16Z</time>
      </trkpt>
      <trkpt lat="41.657965100" lon="2.534237200">
        <ele>430.30</ele>
        <time>2012-11-25T08:54:23Z</time>
      </trkpt>
      <trkpt lat="41.658138300" lon="2.534383800">
        <ele>429.90</ele>
        <time>2012-11-25T08:54:28Z</time>
      </trkpt>
      <trkpt lat="41.658341700" lon="2.534554700">
        <ele>427.40</ele>
        <time>2012-11-25T08:54:35Z</time>
      </trkpt>
      <trkpt lat="41.658420400" lon="2.534610500">
        <ele>426.00</ele>
        <time>2012-11-25T08:54:37Z</time>
      </trkpt>
      <trkpt lat="41.658454400" lon="2.534613000">
        <ele>425.50</ele>
        <time>2012-11-25T08:54:40Z</time>
      </trkpt>
      <trkpt lat="41.658561800" lon="2.534583900">
        <ele>422.60</ele>
        <time>2012-11-25T08:54:45Z</time>
      </trkpt>
      <trkpt lat="41.658623000" lon="2.534587500">
        <ele>421.20</ele>
        <time>2012-11-25T08:54:47Z</time>
      </trkpt>
      <trkpt lat="41.658711800" lon="2.534642100">
        <ele>420.20</ele>
        <time>2012-11-25T08:54:52Z</time>
      </trkpt>
      <trkpt lat="41.658811100" lon="2.534670200">
        <ele>417.80</ele>
        <time>2012-11-25T08:54:59Z</time>
      </trkpt>
      <trkpt lat="41.658853000" lon="2.534715500">
        <ele>416.40</ele>
        <time>2012-11-25T08:55:01Z</time>
      </trkpt>
      <trkpt lat="41.658908900" lon="2.534871700">
        <ele>415.90</ele>
        <time>2012-11-25T08:55:08Z</time>
      </trkpt>
      <trkpt lat="41.659014300" lon="2.535100700">
        <ele>415.00</ele>
        <time>2012-11-25T08:55:15Z</time>
      </trkpt>
      <trkpt lat="41.659088400" lon="2.535209400">
        <ele>415.00</ele>
        <time>2012-11-25T08:55:17Z</time>
      </trkpt>
      <trkpt lat="41.659268300" lon="2.535312900">
        <ele>413.00</ele>
        <time>2012-11-25T08:55:22Z</time>
      </trkpt>
      <trkpt lat="41.659407400" lon="2.535368900">
        <ele>411.60</ele>
        <time>2012-11-25T08:55:24Z</time>
      </trkpt>
      <trkpt lat="41.659663300" lon="2.535495500">
        <ele>408.70</ele>
        <time>2012-11-25T08:55:31Z</time>
      </trkpt>
      <trkpt lat="41.659822000" lon="2.535685100">
        <ele>408.20</ele>
        <time>2012-11-25T08:55:38Z</time>
      </trkpt>
      <trkpt lat="41.660007000" lon="2.535898800">
        <ele>407.70</ele>
        <time>2012-11-25T08:55:43Z</time>
      </trkpt>
      <trkpt lat="41.660255200" lon="2.536020200">
        <ele>407.70</ele>
        <time>2012-11-25T08:55:50Z</time>
      </trkpt>
      <trkpt lat="41.660397700" lon="2.536271400">
        <ele>407.30</ele>
        <time>2012-11-25T08:55:55Z</time>
      </trkpt>
      <trkpt lat="41.660394600" lon="2.536366000">
        <ele>407.70</ele>
        <time>2012-11-25T08:55:57Z</time>
      </trkpt>
      <trkpt lat="41.660390900" lon="2.536555700">
        <ele>407.70</ele>
        <time>2012-11-25T08:56:02Z</time>
      </trkpt>
      <trkpt lat="41.660585200" lon="2.536659200">
        <ele>406.30</ele>
        <time>2012-11-25T08:56:07Z</time>
      </trkpt>
      <trkpt lat="41.660645400" lon="2.536802300">
        <ele>406.30</ele>
        <time>2012-11-25T08:56:11Z</time>
      </trkpt>
      <trkpt lat="41.660715100" lon="2.536879800">
        <ele>406.30</ele>
        <time>2012-11-25T08:56:16Z</time>
      </trkpt>
      <trkpt lat="41.660822400" lon="2.536798400">
        <ele>406.30</ele>
        <time>2012-11-25T08:56:19Z</time>
      </trkpt>
      <trkpt lat="41.660978900" lon="2.536552500">
        <ele>401.00</ele>
        <time>2012-11-25T08:56:25Z</time>
      </trkpt>
      <trkpt lat="41.660992400" lon="2.536538200">
        <ele>401.00</ele>
        <time>2012-11-25T08:56:26Z</time>
      </trkpt>
      <trkpt lat="41.661016800" lon="2.536528400">
        <ele>400.50</ele>
        <time>2012-11-25T08:56:32Z</time>
      </trkpt>
      <trkpt lat="41.661121800" lon="2.536407400">
        <ele>399.10</ele>
        <time>2012-11-25T08:56:37Z</time>
      </trkpt>
      <trkpt lat="41.661203700" lon="2.536386200">
        <ele>397.60</ele>
        <time>2012-11-25T08:56:40Z</time>
      </trkpt>
      <trkpt lat="41.661379700" lon="2.536395900">
        <ele>396.70</ele>
        <time>2012-11-25T08:56:44Z</time>
      </trkpt>
      <trkpt lat="41.661415800" lon="2.536267000">
        <ele>397.20</ele>
        <time>2012-11-25T08:56:49Z</time>
      </trkpt>
      <trkpt lat="41.661400500" lon="2.535948300">
        <ele>396.20</ele>
        <time>2012-11-25T08:56:54Z</time>
      </trkpt>
      <trkpt lat="41.661400800" lon="2.535785500">
        <ele>394.30</ele>
        <time>2012-11-25T08:56:58Z</time>
      </trkpt>
      <trkpt lat="41.661425800" lon="2.535670400">
        <ele>393.30</ele>
        <time>2012-11-25T08:57:00Z</time>
      </trkpt>
      <trkpt lat="41.661558500" lon="2.535416400">
        <ele>393.80</ele>
        <time>2012-11-25T08:57:05Z</time>
      </trkpt>
      <trkpt lat="41.661672400" lon="2.535211500">
        <ele>395.20</ele>
        <time>2012-11-25T08:57:12Z</time>
      </trkpt>
      <trkpt lat="41.661771400" lon="2.535170000">
        <ele>395.20</ele>
        <time>2012-11-25T08:57:17Z</time>
      </trkpt>
      <trkpt lat="41.661956300" lon="2.535419000">
        <ele>394.80</ele>
        <time>2012-11-25T08:57:24Z</time>
      </trkpt>
      <trkpt lat="41.662107800" lon="2.535529500">
        <ele>394.80</ele>
        <time>2012-11-25T08:57:29Z</time>
      </trkpt>
      <trkpt lat="41.662228000" lon="2.535428100">
        <ele>395.20</ele>
        <time>2012-11-25T08:57:34Z</time>
      </trkpt>
      <trkpt lat="41.662344900" lon="2.535161100">
        <ele>395.70</ele>
        <time>2012-11-25T08:57:41Z</time>
      </trkpt>
      <trkpt lat="41.662396600" lon="2.535112800">
        <ele>396.20</ele>
        <time>2012-11-25T08:57:43Z</time>
      </trkpt>
      <trkpt lat="41.662598100" lon="2.535085000">
        <ele>398.60</ele>
        <time>2012-11-25T08:57:52Z</time>
      </trkpt>
      <trkpt lat="41.662755200" lon="2.535067600">
        <ele>402.00</ele>
        <time>2012-11-25T08:57:59Z</time>
      </trkpt>
      <trkpt lat="41.662892700" lon="2.535194600">
        <ele>402.00</ele>
        <time>2012-11-25T08:58:06Z</time>
      </trkpt>
      <trkpt lat="41.663018800" lon="2.535399800">
        <ele>402.00</ele>
        <time>2012-11-25T08:58:13Z</time>
      </trkpt>
      <trkpt lat="41.663150600" lon="2.535626400">
        <ele>402.90</ele>
        <time>2012-11-25T08:58:21Z</time>
      </trkpt>
      <trkpt lat="41.663304600" lon="2.535847900">
        <ele>404.40</ele>
        <time>2012-11-25T08:58:30Z</time>
      </trkpt>
      <trkpt lat="41.663396800" lon="2.535973800">
        <ele>405.30</ele>
        <time>2012-11-25T08:58:35Z</time>
      </trkpt>
      <trkpt lat="41.663406900" lon="2.535997800">
        <ele>405.30</ele>
        <time>2012-11-25T08:58:37Z</time>
      </trkpt>
      <trkpt lat="41.663458700" lon="2.536079400">
        <ele>406.80</ele>
        <time>2012-11-25T08:58:41Z</time>
      </trkpt>
      <trkpt lat="41.663525500" lon="2.536226200">
        <ele>406.80</ele>
        <time>2012-11-25T08:58:46Z</time>
      </trkpt>
      <trkpt lat="41.663579800" lon="2.536322900">
        <ele>407.30</ele>
        <time>2012-11-25T08:58:51Z</time>
      </trkpt>
      <trkpt lat="41.663677700" lon="2.536514700">
        <ele>408.20</ele>
        <time>2012-11-25T08:58:58Z</time>
      </trkpt>
      <trkpt lat="41.663775900" lon="2.536645200">
        <ele>409.20</ele>
        <time>2012-11-25T08:59:05Z</time>
      </trkpt>
      <trkpt lat="41.663862500" lon="2.536627000">
        <ele>410.10</ele>
        <time>2012-11-25T08:59:10Z</time>
      </trkpt>
      <trkpt lat="41.663989000" lon="2.536468400">
        <ele>411.60</ele>
        <time>2012-11-25T08:59:19Z</time>
      </trkpt>
      <trkpt lat="41.664047900" lon="2.536415700">
        <ele>412.50</ele>
        <time>2012-11-25T08:59:22Z</time>
      </trkpt>
      <trkpt lat="41.664068900" lon="2.536424900">
        <ele>413.00</ele>
        <time>2012-11-25T08:59:24Z</time>
      </trkpt>
      <trkpt lat="41.664108500" lon="2.536501200">
        <ele>412.50</ele>
        <time>2012-11-25T08:59:29Z</time>
      </trkpt>
      <trkpt lat="41.664241800" lon="2.536720700">
        <ele>412.50</ele>
        <time>2012-11-25T08:59:38Z</time>
      </trkpt>
      <trkpt lat="41.664286400" lon="2.536918800">
        <ele>412.10</ele>
        <time>2012-11-25T08:59:45Z</time>
      </trkpt>
      <trkpt lat="41.664321400" lon="2.537186900">
        <ele>411.10</ele>
        <time>2012-11-25T08:59:52Z</time>
      </trkpt>
      <trkpt lat="41.664423500" lon="2.537537900">
        <ele>410.60</ele>
        <time>2012-11-25T08:59:59Z</time>
      </trkpt>
      <trkpt lat="41.664471900" lon="2.537676900">
        <ele>410.10</ele>
        <time>2012-11-25T09:00:02Z</time>
      </trkpt>
      <trkpt lat="41.664523100" lon="2.537892400">
        <ele>409.70</ele>
        <time>2012-11-25T09:00:06Z</time>
      </trkpt>
      <trkpt lat="41.664654200" lon="2.538213700">
        <ele>408.70</ele>
        <time>2012-11-25T09:00:15Z</time>
      </trkpt>
      <trkpt lat="41.664680000" lon="2.538446100">
        <ele>408.70</ele>
        <time>2012-11-25T09:00:20Z</time>
      </trkpt>
      <trkpt lat="41.664669900" lon="2.538556300">
        <ele>409.20</ele>
        <time>2012-11-25T09:00:23Z</time>
      </trkpt>
      <trkpt lat="41.664790300" lon="2.538710600">
        <ele>409.20</ele>
        <time>2012-11-25T09:00:30Z</time>
      </trkpt>
      <trkpt lat="41.664809600" lon="2.538728100">
        <ele>409.20</ele>
        <time>2012-11-25T09:00:32Z</time>
      </trkpt>
      <trkpt lat="41.664887000" lon="2.538939900">
        <ele>408.70</ele>
        <time>2012-11-25T09:00:39Z</time>
      </trkpt>
      <trkpt lat="41.664875700" lon="2.539141500">
        <ele>408.20</ele>
        <time>2012-11-25T09:00:44Z</time>
      </trkpt>
      <trkpt lat="41.664859800" lon="2.539274400">
        <ele>408.20</ele>
        <time>2012-11-25T09:00:46Z</time>
      </trkpt>
      <trkpt lat="41.664990900" lon="2.539422900">
        <ele>407.30</ele>
        <time>2012-11-25T09:00:53Z</time>
      </trkpt>
      <trkpt lat="41.665027600" lon="2.539436200">
        <ele>407.30</ele>
        <time>2012-11-25T09:00:53Z</time>
      </trkpt>
      <trkpt lat="41.665164800" lon="2.539470300">
        <ele>405.80</ele>
        <time>2012-11-25T09:00:56Z</time>
      </trkpt>
      <trkpt lat="41.665357300" lon="2.539534900">
        <ele>403.40</ele>
        <time>2012-11-25T09:01:02Z</time>
      </trkpt>
      <trkpt lat="41.665528500" lon="2.539537300">
        <ele>402.90</ele>
        <time>2012-11-25T09:01:09Z</time>
      </trkpt>
      <trkpt lat="41.665563600" lon="2.539534700">
        <ele>402.90</ele>
        <time>2012-11-25T09:01:16Z</time>
      </trkpt>
      <trkpt lat="41.665607800" lon="2.539518200">
        <ele>402.90</ele>
        <time>2012-11-25T09:01:28Z</time>
      </trkpt>
      <trkpt lat="41.665614300" lon="2.539520100">
        <ele>402.90</ele>
        <time>2012-11-25T09:01:36Z</time>
      </trkpt>
      <trkpt lat="41.665619200" lon="2.539515100">
        <ele>402.90</ele>
        <time>2012-11-25T09:01:38Z</time>
      </trkpt>
      <trkpt lat="41.665671500" lon="2.539469600">
        <ele>402.50</ele>
        <time>2012-11-25T09:01:42Z</time>
      </trkpt>
      <trkpt lat="41.665802800" lon="2.539365300">
        <ele>402.50</ele>
        <time>2012-11-25T09:01:47Z</time>
      </trkpt>
      <trkpt lat="41.665894300" lon="2.539303200">
        <ele>401.50</ele>
        <time>2012-11-25T09:01:49Z</time>
      </trkpt>
      <trkpt lat="41.666121300" lon="2.539358600">
        <ele>400.00</ele>
        <time>2012-11-25T09:01:54Z</time>
      </trkpt>
      <trkpt lat="41.666312100" lon="2.539373500">
        <ele>397.60</ele>
        <time>2012-11-25T09:01:59Z</time>
      </trkpt>
      <trkpt lat="41.666350300" lon="2.539357900">
        <ele>396.70</ele>
        <time>2012-11-25T09:01:59Z</time>
      </trkpt>
      <trkpt lat="41.666391800" lon="2.539364600">
        <ele>397.60</ele>
        <time>2012-11-25T09:02:04Z</time>
      </trkpt>
      <trkpt lat="41.666458900" lon="2.539354300">
        <ele>398.10</ele>
        <time>2012-11-25T09:02:08Z</time>
      </trkpt>
      <trkpt lat="41.666601100" lon="2.539377100">
        <ele>400.50</ele>
        <time>2012-11-25T09:02:18Z</time>
      </trkpt>
      <trkpt lat="41.666709100" lon="2.539433700">
        <ele>402.50</ele>
        <time>2012-11-25T09:02:24Z</time>
      </trkpt>
      <trkpt lat="41.666858000" lon="2.539370000">
        <ele>402.90</ele>
        <time>2012-11-25T09:02:30Z</time>
      </trkpt>
      <trkpt lat="41.666997800" lon="2.539233000">
        <ele>403.40</ele>
        <time>2012-11-25T09:02:39Z</time>
      </trkpt>
      <trkpt lat="41.667138100" lon="2.539150900">
        <ele>405.30</ele>
        <time>2012-11-25T09:02:46Z</time>
      </trkpt>
      <trkpt lat="41.667278000" lon="2.539027500">
        <ele>406.30</ele>
        <time>2012-11-25T09:02:55Z</time>
      </trkpt>
      <trkpt lat="41.667385600" lon="2.538909000">
        <ele>407.70</ele>
        <time>2012-11-25T09:03:04Z</time>
      </trkpt>
      <trkpt lat="41.667483100" lon="2.538764300">
        <ele>409.20</ele>
        <time>2012-11-25T09:03:12Z</time>
      </trkpt>
      <trkpt lat="41.667505300" lon="2.538745100">
        <ele>409.70</ele>
        <time>2012-11-25T09:03:14Z</time>
      </trkpt>
      <trkpt lat="41.667531400" lon="2.538742000">
        <ele>409.70</ele>
        <time>2012-11-25T09:03:16Z</time>
      </trkpt>
      <trkpt lat="41.667685000" lon="2.538653500">
        <ele>410.60</ele>
        <time>2012-11-25T09:03:24Z</time>
      </trkpt>
      <trkpt lat="41.667803600" lon="2.538569700">
        <ele>413.00</ele>
        <time>2012-11-25T09:03:33Z</time>
      </trkpt>
      <trkpt lat="41.667940000" lon="2.538491200">
        <ele>414.50</ele>
        <time>2012-11-25T09:03:40Z</time>
      </trkpt>
      <trkpt lat="41.668061100" lon="2.538419400">
        <ele>416.40</ele>
        <time>2012-11-25T09:03:49Z</time>
      </trkpt>
      <trkpt lat="41.668186100" lon="2.538394500">
        <ele>417.80</ele>
        <time>2012-11-25T09:03:56Z</time>
      </trkpt>
      <trkpt lat="41.668349800" lon="2.538402800">
        <ele>419.30</ele>
        <time>2012-11-25T09:04:06Z</time>
      </trkpt>
      <trkpt lat="41.668485900" lon="2.538381900">
        <ele>419.80</ele>
        <time>2012-11-25T09:04:13Z</time>
      </trkpt>
      <trkpt lat="41.668576600" lon="2.538293500">
        <ele>421.20</ele>
        <time>2012-11-25T09:04:22Z</time>
      </trkpt>
      <trkpt lat="41.668620700" lon="2.538136300">
        <ele>424.60</ele>
        <time>2012-11-25T09:04:31Z</time>
      </trkpt>
      <trkpt lat="41.668623100" lon="2.537992200">
        <ele>425.50</ele>
        <time>2012-11-25T09:04:38Z</time>
      </trkpt>
      <trkpt lat="41.668632100" lon="2.537756500">
        <ele>425.00</ele>
        <time>2012-11-25T09:04:46Z</time>
      </trkpt>
      <trkpt lat="41.668643500" lon="2.537569900">
        <ele>425.50</ele>
        <time>2012-11-25T09:04:55Z</time>
      </trkpt>
      <trkpt lat="41.668689000" lon="2.537370500">
        <ele>427.40</ele>
        <time>2012-11-25T09:05:04Z</time>
      </trkpt>
      <trkpt lat="41.668727200" lon="2.537228300">
        <ele>429.40</ele>
        <time>2012-11-25T09:05:12Z</time>
      </trkpt>
      <trkpt lat="41.668784400" lon="2.537116800">
        <ele>431.30</ele>
        <time>2012-11-25T09:05:21Z</time>
      </trkpt>
      <trkpt lat="41.668870800" lon="2.536999900">
        <ele>432.20</ele>
        <time>2012-11-25T09:05:28Z</time>
      </trkpt>
      <trkpt lat="41.668920800" lon="2.536938000">
        <ele>433.70</ele>
        <time>2012-11-25T09:05:33Z</time>
      </trkpt>
      <trkpt lat="41.668969300" lon="2.536806900">
        <ele>435.10</ele>
        <time>2012-11-25T09:05:42Z</time>
      </trkpt>
      <trkpt lat="41.668977800" lon="2.536692400">
        <ele>436.60</ele>
        <time>2012-11-25T09:05:49Z</time>
      </trkpt>
      <trkpt lat="41.668947800" lon="2.536564500">
        <ele>438.50</ele>
        <time>2012-11-25T09:05:58Z</time>
      </trkpt>
      <trkpt lat="41.668903400" lon="2.536428100">
        <ele>440.40</ele>
        <time>2012-11-25T09:06:08Z</time>
      </trkpt>
      <trkpt lat="41.668854500" lon="2.536299300">
        <ele>441.40</ele>
        <time>2012-11-25T09:06:15Z</time>
      </trkpt>
      <trkpt lat="41.668788900" lon="2.536153200">
        <ele>442.30</ele>
        <time>2012-11-25T09:06:24Z</time>
      </trkpt>
      <trkpt lat="41.668731000" lon="2.536054000">
        <ele>443.80</ele>
        <time>2012-11-25T09:06:33Z</time>
      </trkpt>
      <trkpt lat="41.668715200" lon="2.536000700">
        <ele>444.30</ele>
        <time>2012-11-25T09:06:36Z</time>
      </trkpt>
      <trkpt lat="41.668727600" lon="2.535820100">
        <ele>446.20</ele>
        <time>2012-11-25T09:06:45Z</time>
      </trkpt>
      <trkpt lat="41.668795100" lon="2.535726300">
        <ele>447.10</ele>
        <time>2012-11-25T09:06:54Z</time>
      </trkpt>
      <trkpt lat="41.668846100" lon="2.535663600">
        <ele>448.10</ele>
        <time>2012-11-25T09:06:59Z</time>
      </trkpt>
      <trkpt lat="41.668952300" lon="2.535524300">
        <ele>448.60</ele>
        <time>2012-11-25T09:07:09Z</time>
      </trkpt>
      <trkpt lat="41.669043800" lon="2.535375200">
        <ele>450.00</ele>
        <time>2012-11-25T09:07:18Z</time>
      </trkpt>
      <trkpt lat="41.669114200" lon="2.535190200">
        <ele>451.50</ele>
        <time>2012-11-25T09:07:28Z</time>
      </trkpt>
      <trkpt lat="41.669171900" lon="2.535028600">
        <ele>453.40</ele>
        <time>2012-11-25T09:07:39Z</time>
      </trkpt>
      <trkpt lat="41.669239700" lon="2.534877600">
        <ele>454.80</ele>
        <time>2012-11-25T09:07:48Z</time>
      </trkpt>
      <trkpt lat="41.669232000" lon="2.534743100">
        <ele>456.80</ele>
        <time>2012-11-25T09:07:56Z</time>
      </trkpt>
      <trkpt lat="41.669185700" lon="2.534640400">
        <ele>458.70</ele>
        <time>2012-11-25T09:08:03Z</time>
      </trkpt>
      <trkpt lat="41.669161100" lon="2.534516000">
        <ele>459.60</ele>
        <time>2012-11-25T09:08:10Z</time>
      </trkpt>
      <trkpt lat="41.669212300" lon="2.534374100">
        <ele>462.00</ele>
        <time>2012-11-25T09:08:21Z</time>
      </trkpt>
      <trkpt lat="41.669297600" lon="2.534343800">
        <ele>464.00</ele>
        <time>2012-11-25T09:08:29Z</time>
      </trkpt>
      <trkpt lat="41.669369100" lon="2.534350400">
        <ele>465.90</ele>
        <time>2012-11-25T09:08:36Z</time>
      </trkpt>
      <trkpt lat="41.669463700" lon="2.534380500">
        <ele>468.30</ele>
        <time>2012-11-25T09:08:45Z</time>
      </trkpt>
      <trkpt lat="41.669556700" lon="2.534347700">
        <ele>468.30</ele>
        <time>2012-11-25T09:08:52Z</time>
      </trkpt>
      <trkpt lat="41.669738700" lon="2.534258000">
        <ele>468.30</ele>
        <time>2012-11-25T09:08:59Z</time>
      </trkpt>
      <trkpt lat="41.669877900" lon="2.534122200">
        <ele>466.40</ele>
        <time>2012-11-25T09:09:04Z</time>
      </trkpt>
      <trkpt lat="41.669995100" lon="2.534005700">
        <ele>462.50</ele>
        <time>2012-11-25T09:09:08Z</time>
      </trkpt>
      <trkpt lat="41.670067300" lon="2.533839900">
        <ele>460.60</ele>
        <time>2012-11-25T09:09:11Z</time>
      </trkpt>
      <trkpt lat="41.670038100" lon="2.533698100">
        <ele>461.60</ele>
        <time>2012-11-25T09:09:16Z</time>
      </trkpt>
      <trkpt lat="41.669923400" lon="2.533489500">
        <ele>461.60</ele>
        <time>2012-11-25T09:09:25Z</time>
      </trkpt>
      <trkpt lat="41.669789700" lon="2.533297900">
        <ele>458.70</ele>
        <time>2012-11-25T09:09:30Z</time>
      </trkpt>
      <trkpt lat="41.669663100" lon="2.533198300">
        <ele>454.80</ele>
        <time>2012-11-25T09:09:34Z</time>
      </trkpt>
      <trkpt lat="41.669580000" lon="2.533057500">
        <ele>452.90</ele>
        <time>2012-11-25T09:09:37Z</time>
      </trkpt>
      <trkpt lat="41.669514100" lon="2.532891200">
        <ele>450.00</ele>
        <time>2012-11-25T09:09:39Z</time>
      </trkpt>
      <trkpt lat="41.669480700" lon="2.532778500">
        <ele>448.10</ele>
        <time>2012-11-25T09:09:41Z</time>
      </trkpt>
      <trkpt lat="41.669413200" lon="2.532599500">
        <ele>444.30</ele>
        <time>2012-11-25T09:09:46Z</time>
      </trkpt>
      <trkpt lat="41.669356300" lon="2.532401300">
        <ele>442.80</ele>
        <time>2012-11-25T09:09:51Z</time>
      </trkpt>
      <trkpt lat="41.669334400" lon="2.532243700">
        <ele>441.40</ele>
        <time>2012-11-25T09:09:58Z</time>
      </trkpt>
      <trkpt lat="41.669334700" lon="2.532226300">
        <ele>441.40</ele>
        <time>2012-11-25T09:09:58Z</time>
      </trkpt>
      <trkpt lat="41.669416700" lon="2.532110500">
        <ele>439.50</ele>
        <time>2012-11-25T09:10:05Z</time>
      </trkpt>
      <trkpt lat="41.669462400" lon="2.532088000">
        <ele>439.90</ele>
        <time>2012-11-25T09:10:07Z</time>
      </trkpt>
      <trkpt lat="41.669587700" lon="2.531983800">
        <ele>441.40</ele>
        <time>2012-11-25T09:10:14Z</time>
      </trkpt>
      <trkpt lat="41.669715500" lon="2.531802600">
        <ele>441.90</ele>
        <time>2012-11-25T09:10:23Z</time>
      </trkpt>
      <trkpt lat="41.669768100" lon="2.531760000">
        <ele>441.90</ele>
        <time>2012-11-25T09:10:28Z</time>
      </trkpt>
      <trkpt lat="41.669754500" lon="2.531736400">
        <ele>441.90</ele>
        <time>2012-11-25T09:10:35Z</time>
      </trkpt>
      <trkpt lat="41.669742600" lon="2.531735700">
        <ele>441.40</ele>
        <time>2012-11-25T09:10:42Z</time>
      </trkpt>
      <trkpt lat="41.669689200" lon="2.531835700">
        <ele>441.40</ele>
        <time>2012-11-25T09:10:47Z</time>
      </trkpt>
      <trkpt lat="41.669601200" lon="2.531962400">
        <ele>441.40</ele>
        <time>2012-11-25T09:10:54Z</time>
      </trkpt>
      <trkpt lat="41.669462800" lon="2.532056100">
        <ele>440.40</ele>
        <time>2012-11-25T09:11:01Z</time>
      </trkpt>
      <trkpt lat="41.669416200" lon="2.532086100">
        <ele>439.90</ele>
        <time>2012-11-25T09:11:01Z</time>
      </trkpt>
      <trkpt lat="41.669332800" lon="2.532193900">
        <ele>441.40</ele>
        <time>2012-11-25T09:11:06Z</time>
      </trkpt>
      <trkpt lat="41.669358700" lon="2.532368500">
        <ele>442.30</ele>
        <time>2012-11-25T09:11:13Z</time>
      </trkpt>
      <trkpt lat="41.669369600" lon="2.532420400">
        <ele>442.80</ele>
        <time>2012-11-25T09:11:17Z</time>
      </trkpt>
      <trkpt lat="41.669359800" lon="2.532448900">
        <ele>442.80</ele>
        <time>2012-11-25T09:11:18Z</time>
      </trkpt>
      <trkpt lat="41.669269600" lon="2.532361300">
        <ele>439.50</ele>
        <time>2012-11-25T09:11:25Z</time>
      </trkpt>
      <trkpt lat="41.669258200" lon="2.532339600">
        <ele>439.00</ele>
        <time>2012-11-25T09:11:27Z</time>
      </trkpt>
      <trkpt lat="41.669119400" lon="2.532262300">
        <ele>435.10</ele>
        <time>2012-11-25T09:11:32Z</time>
      </trkpt>
      <trkpt lat="41.669012700" lon="2.532213700">
        <ele>432.70</ele>
        <time>2012-11-25T09:11:36Z</time>
      </trkpt>
      <trkpt lat="41.668924200" lon="2.532202800">
        <ele>431.80</ele>
        <time>2012-11-25T09:11:39Z</time>
      </trkpt>
      <trkpt lat="41.668734500" lon="2.532143700">
        <ele>428.40</ele>
        <time>2012-11-25T09:11:43Z</time>
      </trkpt>
      <trkpt lat="41.668638200" lon="2.532121500">
        <ele>427.00</ele>
        <time>2012-11-25T09:11:46Z</time>
      </trkpt>
      <trkpt lat="41.668559000" lon="2.532049300">
        <ele>424.60</ele>
        <time>2012-11-25T09:11:50Z</time>
      </trkpt>
      <trkpt lat="41.668523500" lon="2.531826700">
        <ele>421.20</ele>
        <time>2012-11-25T09:11:55Z</time>
      </trkpt>
      <trkpt lat="41.668464900" lon="2.531597200">
        <ele>418.80</ele>
        <time>2012-11-25T09:11:58Z</time>
      </trkpt>
      <trkpt lat="41.668329100" lon="2.531395800">
        <ele>414.00</ele>
        <time>2012-11-25T09:12:04Z</time>
      </trkpt>
      <trkpt lat="41.668304600" lon="2.531361700">
        <ele>414.00</ele>
        <time>2012-11-25T09:12:05Z</time>
      </trkpt>
      <trkpt lat="41.668203600" lon="2.531120700">
        <ele>413.00</ele>
        <time>2012-11-25T09:12:11Z</time>
      </trkpt>
      <trkpt lat="41.668113800" lon="2.530902500">
        <ele>409.70</ele>
        <time>2012-11-25T09:12:16Z</time>
      </trkpt>
      <trkpt lat="41.668108100" lon="2.530674700">
        <ele>406.80</ele>
        <time>2012-11-25T09:12:19Z</time>
      </trkpt>
      <trkpt lat="41.668109500" lon="2.530292200">
        <ele>402.00</ele>
        <time>2012-11-25T09:12:26Z</time>
      </trkpt>
      <trkpt lat="41.668117100" lon="2.530019600">
        <ele>399.10</ele>
        <time>2012-11-25T09:12:30Z</time>
      </trkpt>
      <trkpt lat="41.668132100" lon="2.529864700">
        <ele>396.70</ele>
        <time>2012-11-25T09:12:33Z</time>
      </trkpt>
      <trkpt lat="41.668044500" lon="2.529737200">
        <ele>392.80</ele>
        <time>2012-11-25T09:12:38Z</time>
      </trkpt>
      <trkpt lat="41.667945800" lon="2.529704300">
        <ele>389.50</ele>
        <time>2012-11-25T09:12:44Z</time>
      </trkpt>
      <trkpt lat="41.667900200" lon="2.529534000">
        <ele>385.60</ele>
        <time>2012-11-25T09:12:47Z</time>
      </trkpt>
      <trkpt lat="41.667868900" lon="2.529464200">
        <ele>384.20</ele>
        <time>2012-11-25T09:12:51Z</time>
      </trkpt>
      <trkpt lat="41.667788600" lon="2.529309300">
        <ele>382.30</ele>
        <time>2012-11-25T09:12:56Z</time>
      </trkpt>
      <trkpt lat="41.667773100" lon="2.529275300">
        <ele>382.30</ele>
        <time>2012-11-25T09:12:58Z</time>
      </trkpt>
      <trkpt lat="41.667673300" lon="2.529296500">
        <ele>379.40</ele>
        <time>2012-11-25T09:13:03Z</time>
      </trkpt>
      <trkpt lat="41.667672900" lon="2.529331400">
        <ele>378.90</ele>
        <time>2012-11-25T09:13:03Z</time>
      </trkpt>
      <trkpt lat="41.667683900" lon="2.529463400">
        <ele>377.50</ele>
        <time>2012-11-25T09:13:06Z</time>
      </trkpt>
      <trkpt lat="41.667611700" lon="2.529767800">
        <ele>374.10</ele>
        <time>2012-11-25T09:13:13Z</time>
      </trkpt>
      <trkpt lat="41.667561200" lon="2.529701000">
        <ele>372.20</ele>
        <time>2012-11-25T09:13:17Z</time>
      </trkpt>
      <trkpt lat="41.667506700" lon="2.529498300">
        <ele>369.80</ele>
        <time>2012-11-25T09:13:22Z</time>
      </trkpt>
      <trkpt lat="41.667375900" lon="2.529418600">
        <ele>366.40</ele>
        <time>2012-11-25T09:13:25Z</time>
      </trkpt>
      <trkpt lat="41.667325600" lon="2.529387600">
        <ele>365.40</ele>
        <time>2012-11-25T09:13:27Z</time>
      </trkpt>
      <trkpt lat="41.667261300" lon="2.529290300">
        <ele>364.00</ele>
        <time>2012-11-25T09:13:31Z</time>
      </trkpt>
      <trkpt lat="41.667158600" lon="2.529023400">
        <ele>359.70</ele>
        <time>2012-11-25T09:13:36Z</time>
      </trkpt>
      <trkpt lat="41.667110900" lon="2.528651000">
        <ele>358.20</ele>
        <time>2012-11-25T09:13:41Z</time>
      </trkpt>
      <trkpt lat="41.667054100" lon="2.528481200">
        <ele>357.80</ele>
        <time>2012-11-25T09:13:46Z</time>
      </trkpt>
      <trkpt lat="41.667032000" lon="2.528343800">
        <ele>357.30</ele>
        <time>2012-11-25T09:13:50Z</time>
      </trkpt>
      <trkpt lat="41.667069000" lon="2.528126100">
        <ele>358.20</ele>
        <time>2012-11-25T09:13:57Z</time>
      </trkpt>
      <trkpt lat="41.667143100" lon="2.528008000">
        <ele>357.30</ele>
        <time>2012-11-25T09:14:02Z</time>
      </trkpt>
      <trkpt lat="41.667237700" lon="2.527798700">
        <ele>352.50</ele>
        <time>2012-11-25T09:14:07Z</time>
      </trkpt>
      <trkpt lat="41.667254000" lon="2.527703400">
        <ele>351.00</ele>
        <time>2012-11-25T09:14:09Z</time>
      </trkpt>
      <trkpt lat="41.667189300" lon="2.527406800">
        <ele>347.20</ele>
        <time>2012-11-25T09:14:14Z</time>
      </trkpt>
      <trkpt lat="41.667046100" lon="2.527005800">
        <ele>343.80</ele>
        <time>2012-11-25T09:14:21Z</time>
      </trkpt>
      <trkpt lat="41.667038400" lon="2.526974800">
        <ele>343.30</ele>
        <time>2012-11-25T09:14:21Z</time>
      </trkpt>
      <trkpt lat="41.667007100" lon="2.526802000">
        <ele>340.40</ele>
        <time>2012-11-25T09:14:28Z</time>
      </trkpt>
      <trkpt lat="41.666941400" lon="2.526667300">
        <ele>336.60</ele>
        <time>2012-11-25T09:14:33Z</time>
      </trkpt>
      <trkpt lat="41.666893900" lon="2.526576600">
        <ele>333.20</ele>
        <time>2012-11-25T09:14:35Z</time>
      </trkpt>
      <trkpt lat="41.666872000" lon="2.526539300">
        <ele>332.30</ele>
        <time>2012-11-25T09:14:40Z</time>
      </trkpt>
      <trkpt lat="41.666873400" lon="2.526521500">
        <ele>332.30</ele>
        <time>2012-11-25T09:14:54Z</time>
      </trkpt>
      <trkpt lat="41.666887000" lon="2.526527000">
        <ele>332.80</ele>
        <time>2012-11-25T09:15:05Z</time>
      </trkpt>
      <trkpt lat="41.666915500" lon="2.526542500">
        <ele>332.80</ele>
        <time>2012-11-25T09:15:13Z</time>
      </trkpt>
      <trkpt lat="41.666958300" lon="2.526588800">
        <ele>333.70</ele>
        <time>2012-11-25T09:15:19Z</time>
      </trkpt>
      <trkpt lat="41.667009900" lon="2.526625600">
        <ele>334.20</ele>
        <time>2012-11-25T09:15:22Z</time>
      </trkpt>
      <trkpt lat="41.667139900" lon="2.526749000">
        <ele>335.60</ele>
        <time>2012-11-25T09:15:31Z</time>
      </trkpt>
      <trkpt lat="41.667155900" lon="2.526765200">
        <ele>335.60</ele>
        <time>2012-11-25T09:15:33Z</time>
      </trkpt>
      <trkpt lat="41.667225300" lon="2.526965300">
        <ele>337.10</ele>
        <time>2012-11-25T09:15:41Z</time>
      </trkpt>
      <trkpt lat="41.667273500" lon="2.527141000">
        <ele>338.00</ele>
        <time>2012-11-25T09:15:50Z</time>
      </trkpt>
      <trkpt lat="41.667343500" lon="2.527344100">
        <ele>339.50</ele>
        <time>2012-11-25T09:15:59Z</time>
      </trkpt>
      <trkpt lat="41.667435900" lon="2.527541200">
        <ele>342.40</ele>
        <time>2012-11-25T09:16:09Z</time>
      </trkpt>
      <trkpt lat="41.667510500" lon="2.527660300">
        <ele>343.80</ele>
        <time>2012-11-25T09:16:16Z</time>
      </trkpt>
      <trkpt lat="41.667578100" lon="2.527762600">
        <ele>345.70</ele>
        <time>2012-11-25T09:16:23Z</time>
      </trkpt>
      <trkpt lat="41.667655400" lon="2.527871400">
        <ele>347.60</ele>
        <time>2012-11-25T09:16:32Z</time>
      </trkpt>
      <trkpt lat="41.667663800" lon="2.527888700">
        <ele>348.10</ele>
        <time>2012-11-25T09:16:32Z</time>
      </trkpt>
      <trkpt lat="41.667680100" lon="2.527974100">
        <ele>349.10</ele>
        <time>2012-11-25T09:16:37Z</time>
      </trkpt>
      <trkpt lat="41.667678800" lon="2.528123500">
        <ele>351.00</ele>
        <time>2012-11-25T09:16:46Z</time>
      </trkpt>
      <trkpt lat="41.667731400" lon="2.528200900">
        <ele>352.00</ele>
        <time>2012-11-25T09:16:53Z</time>
      </trkpt>
      <trkpt lat="41.667791800" lon="2.528250400">
        <ele>353.40</ele>
        <time>2012-11-25T09:16:58Z</time>
      </trkpt>
      <trkpt lat="41.667856000" lon="2.528328100">
        <ele>354.90</ele>
        <time>2012-11-25T09:17:05Z</time>
      </trkpt>
      <trkpt lat="41.667936400" lon="2.528430800">
        <ele>356.30</ele>
        <time>2012-11-25T09:17:14Z</time>
      </trkpt>
      <trkpt lat="41.667956000" lon="2.528448700">
        <ele>357.30</ele>
        <time>2012-11-25T09:17:17Z</time>
      </trkpt>
      <trkpt lat="41.668000400" lon="2.528598100">
        <ele>358.20</ele>
        <time>2012-11-25T09:17:26Z</time>
      </trkpt>
      <trkpt lat="41.668039000" lon="2.528686200">
        <ele>359.20</ele>
        <time>2012-11-25T09:17:33Z</time>
      </trkpt>
      <trkpt lat="41.668094800" lon="2.528707100">
        <ele>360.10</ele>
        <time>2012-11-25T09:17:38Z</time>
      </trkpt>
      <trkpt lat="41.668190100" lon="2.528656500">
        <ele>362.10</ele>
        <time>2012-11-25T09:17:47Z</time>
      </trkpt>
      <trkpt lat="41.668277900" lon="2.528609100">
        <ele>363.50</ele>
        <time>2012-11-25T09:17:54Z</time>
      </trkpt>
      <trkpt lat="41.668289600" lon="2.528599200">
        <ele>363.50</ele>
        <time>2012-11-25T09:17:55Z</time>
      </trkpt>
      <trkpt lat="41.668346800" lon="2.528599800">
        <ele>364.50</ele>
        <time>2012-11-25T09:18:01Z</time>
      </trkpt>
      <trkpt lat="41.668366500" lon="2.528614800">
        <ele>364.50</ele>
        <time>2012-11-25T09:18:02Z</time>
      </trkpt>
      <trkpt lat="41.668417100" lon="2.528757200">
        <ele>364.50</ele>
        <time>2012-11-25T09:18:11Z</time>
      </trkpt>
      <trkpt lat="41.668433500" lon="2.528783900">
        <ele>365.00</ele>
        <time>2012-11-25T09:18:13Z</time>
      </trkpt>
      <trkpt lat="41.668529800" lon="2.528883600">
        <ele>365.00</ele>
        <time>2012-11-25T09:18:22Z</time>
      </trkpt>
      <trkpt lat="41.668547600" lon="2.528900300">
        <ele>365.00</ele>
        <time>2012-11-25T09:18:30Z</time>
      </trkpt>
      <trkpt lat="41.668572000" lon="2.528928800">
        <ele>365.00</ele>
        <time>2012-11-25T09:18:32Z</time>
      </trkpt>
      <trkpt lat="41.668621800" lon="2.528997400">
        <ele>365.00</ele>
        <time>2012-11-25T09:18:39Z</time>
      </trkpt>
      <trkpt lat="41.668719400" lon="2.529127200">
        <ele>364.50</ele>
        <time>2012-11-25T09:18:46Z</time>
      </trkpt>
      <trkpt lat="41.668835000" lon="2.529152500">
        <ele>364.00</ele>
        <time>2012-11-25T09:18:49Z</time>
      </trkpt>
      <trkpt lat="41.668966400" lon="2.528953700">
        <ele>362.50</ele>
        <time>2012-11-25T09:18:55Z</time>
      </trkpt>
      <trkpt lat="41.668949100" lon="2.528915500">
        <ele>363.00</ele>
        <time>2012-11-25T09:18:58Z</time>
      </trkpt>
      <trkpt lat="41.668839000" lon="2.528745600">
        <ele>361.60</ele>
        <time>2012-11-25T09:19:05Z</time>
      </trkpt>
      <trkpt lat="41.668716100" lon="2.528549700">
        <ele>358.20</ele>
        <time>2012-11-25T09:19:10Z</time>
      </trkpt>
      <trkpt lat="41.668503100" lon="2.528347700">
        <ele>352.90</ele>
        <time>2012-11-25T09:19:14Z</time>
      </trkpt>
      <trkpt lat="41.668304000" lon="2.528290500">
        <ele>348.10</ele>
        <time>2012-11-25T09:19:19Z</time>
      </trkpt>
      <trkpt lat="41.668275100" lon="2.528292100">
        <ele>347.20</ele>
        <time>2012-11-25T09:19:21Z</time>
      </trkpt>
      <trkpt lat="41.668152800" lon="2.528226700">
        <ele>343.30</ele>
        <time>2012-11-25T09:19:26Z</time>
      </trkpt>
      <trkpt lat="41.668137200" lon="2.528214900">
        <ele>342.90</ele>
        <time>2012-11-25T09:19:28Z</time>
      </trkpt>
      <trkpt lat="41.668104900" lon="2.528156600">
        <ele>341.40</ele>
        <time>2012-11-25T09:19:31Z</time>
      </trkpt>
      <trkpt lat="41.668051900" lon="2.527972700">
        <ele>338.00</ele>
        <time>2012-11-25T09:19:36Z</time>
      </trkpt>
      <trkpt lat="41.667996700" lon="2.527755200">
        <ele>336.10</ele>
        <time>2012-11-25T09:19:42Z</time>
      </trkpt>
      <trkpt lat="41.667990000" lon="2.527723200">
        <ele>335.60</ele>
        <time>2012-11-25T09:19:43Z</time>
      </trkpt>
      <trkpt lat="41.667907800" lon="2.527496300">
        <ele>333.70</ele>
        <time>2012-11-25T09:19:49Z</time>
      </trkpt>
      <trkpt lat="41.667817400" lon="2.527314300">
        <ele>331.80</ele>
        <time>2012-11-25T09:19:56Z</time>
      </trkpt>
      <trkpt lat="41.667729100" lon="2.527026300">
        <ele>329.40</ele>
        <time>2012-11-25T09:20:01Z</time>
      </trkpt>
      <trkpt lat="41.667680400" lon="2.526837800">
        <ele>327.50</ele>
        <time>2012-11-25T09:20:06Z</time>
      </trkpt>
      <trkpt lat="41.667581300" lon="2.526704100">
        <ele>325.10</ele>
        <time>2012-11-25T09:20:11Z</time>
      </trkpt>
      <trkpt lat="41.667447600" lon="2.526510700">
        <ele>321.20</ele>
        <time>2012-11-25T09:20:17Z</time>
      </trkpt>
      <trkpt lat="41.667424500" lon="2.526465400">
        <ele>320.30</ele>
        <time>2012-11-25T09:20:18Z</time>
      </trkpt>
      <trkpt lat="41.667333500" lon="2.526254700">
        <ele>316.90</ele>
        <time>2012-11-25T09:20:22Z</time>
      </trkpt>
      <trkpt lat="41.667273400" lon="2.526143100">
        <ele>315.00</ele>
        <time>2012-11-25T09:20:24Z</time>
      </trkpt>
      <trkpt lat="41.667215600" lon="2.526025700">
        <ele>312.60</ele>
        <time>2012-11-25T09:20:25Z</time>
      </trkpt>
      <trkpt lat="41.667146000" lon="2.525735100">
        <ele>308.20</ele>
        <time>2012-11-25T09:20:29Z</time>
      </trkpt>
      <trkpt lat="41.667081900" lon="2.525517800">
        <ele>306.30</ele>
        <time>2012-11-25T09:20:32Z</time>
      </trkpt>
      <trkpt lat="41.667016300" lon="2.525268500">
        <ele>301.50</ele>
        <time>2012-11-25T09:20:36Z</time>
      </trkpt>
      <trkpt lat="41.666937400" lon="2.525057600">
        <ele>299.10</ele>
        <time>2012-11-25T09:20:39Z</time>
      </trkpt>
      <trkpt lat="41.666748200" lon="2.524896700">
        <ele>297.70</ele>
        <time>2012-11-25T09:20:46Z</time>
      </trkpt>
      <trkpt lat="41.666655700" lon="2.524840800">
        <ele>297.70</ele>
        <time>2012-11-25T09:20:48Z</time>
      </trkpt>
      <trkpt lat="41.666601300" lon="2.524630100">
        <ele>297.20</ele>
        <time>2012-11-25T09:20:55Z</time>
      </trkpt>
      <trkpt lat="41.666577400" lon="2.524481000">
        <ele>296.20</ele>
        <time>2012-11-25T09:21:00Z</time>
      </trkpt>
      <trkpt lat="41.666567600" lon="2.524442300">
        <ele>295.70</ele>
        <time>2012-11-25T09:21:07Z</time>
      </trkpt>
      <trkpt lat="41.666580900" lon="2.524443800">
        <ele>295.70</ele>
        <time>2012-11-25T09:21:21Z</time>
      </trkpt>
      <trkpt lat="41.666568200" lon="2.524430500">
        <ele>295.70</ele>
        <time>2012-11-25T09:21:23Z</time>
      </trkpt>
      <trkpt lat="41.666509400" lon="2.524382000">
        <ele>294.80</ele>
        <time>2012-11-25T09:21:28Z</time>
      </trkpt>
      <trkpt lat="41.666363100" lon="2.524230900">
        <ele>293.30</ele>
        <time>2012-11-25T09:21:33Z</time>
      </trkpt>
      <trkpt lat="41.666222400" lon="2.524068800">
        <ele>290.50</ele>
        <time>2012-11-25T09:21:38Z</time>
      </trkpt>
      <trkpt lat="41.666068100" lon="2.523872000">
        <ele>287.10</ele>
        <time>2012-11-25T09:21:44Z</time>
      </trkpt>
      <trkpt lat="41.666032300" lon="2.523820900">
        <ele>286.10</ele>
        <time>2012-11-25T09:21:45Z</time>
      </trkpt>
      <trkpt lat="41.665961700" lon="2.523698000">
        <ele>284.20</ele>
        <time>2012-11-25T09:21:47Z</time>
      </trkpt>
      <trkpt lat="41.665767000" lon="2.523424600">
        <ele>281.80</ele>
        <time>2012-11-25T09:21:51Z</time>
      </trkpt>
      <trkpt lat="41.665628700" lon="2.523220000">
        <ele>280.40</ele>
        <time>2012-11-25T09:21:54Z</time>
      </trkpt>
      <trkpt lat="41.665520400" lon="2.522890300">
        <ele>278.00</ele>
        <time>2012-11-25T09:21:59Z</time>
      </trkpt>
      <trkpt lat="41.665513600" lon="2.522525900">
        <ele>277.50</ele>
        <time>2012-11-25T09:22:06Z</time>
      </trkpt>
      <trkpt lat="41.665507800" lon="2.522258100">
        <ele>278.00</ele>
        <time>2012-11-25T09:22:11Z</time>
      </trkpt>
      <trkpt lat="41.665468800" lon="2.522009300">
        <ele>278.40</ele>
        <time>2012-11-25T09:22:17Z</time>
      </trkpt>
      <trkpt lat="41.665415500" lon="2.521763700">
        <ele>276.50</ele>
        <time>2012-11-25T09:22:24Z</time>
      </trkpt>
      <trkpt lat="41.665358600" lon="2.521595800">
        <ele>273.10</ele>
        <time>2012-11-25T09:22:27Z</time>
      </trkpt>
      <trkpt lat="41.665336500" lon="2.521486000">
        <ele>272.20</ele>
        <time>2012-11-25T09:22:29Z</time>
      </trkpt>
      <trkpt lat="41.665237400" lon="2.521219000">
        <ele>267.40</ele>
        <time>2012-11-25T09:22:32Z</time>
      </trkpt>
      <trkpt lat="41.665210000" lon="2.521167000">
        <ele>265.90</ele>
        <time>2012-11-25T09:22:34Z</time>
      </trkpt>
      <trkpt lat="41.665239700" lon="2.520965900">
        <ele>264.00</ele>
        <time>2012-11-25T09:22:38Z</time>
      </trkpt>
      <trkpt lat="41.665272700" lon="2.520918500">
        <ele>263.50</ele>
        <time>2012-11-25T09:22:38Z</time>
      </trkpt>
      <trkpt lat="41.665339500" lon="2.520811600">
        <ele>261.60</ele>
        <time>2012-11-25T09:22:41Z</time>
      </trkpt>
      <trkpt lat="41.665361100" lon="2.520659200">
        <ele>258.70</ele>
        <time>2012-11-25T09:22:45Z</time>
      </trkpt>
      <trkpt lat="41.665354900" lon="2.520652000">
        <ele>258.70</ele>
        <time>2012-11-25T09:22:50Z</time>
      </trkpt>
      <trkpt lat="41.665382500" lon="2.520642400">
        <ele>258.70</ele>
        <time>2012-11-25T09:22:57Z</time>
      </trkpt>
      <trkpt lat="41.665484200" lon="2.520728300">
        <ele>259.70</ele>
        <time>2012-11-25T09:23:04Z</time>
      </trkpt>
      <trkpt lat="41.665617700" lon="2.520864500">
        <ele>260.60</ele>
        <time>2012-11-25T09:23:12Z</time>
      </trkpt>
      <trkpt lat="41.665783700" lon="2.520940600">
        <ele>259.70</ele>
        <time>2012-11-25T09:23:19Z</time>
      </trkpt>
      <trkpt lat="41.665992400" lon="2.521029800">
        <ele>259.70</ele>
        <time>2012-11-25T09:23:26Z</time>
      </trkpt>
      <trkpt lat="41.666165700" lon="2.521190100">
        <ele>259.70</ele>
        <time>2012-11-25T09:23:35Z</time>
      </trkpt>
      <trkpt lat="41.666305800" lon="2.521402400">
        <ele>260.60</ele>
        <time>2012-11-25T09:23:44Z</time>
      </trkpt>
      <trkpt lat="41.666417100" lon="2.521472000">
        <ele>260.60</ele>
        <time>2012-11-25T09:23:51Z</time>
      </trkpt>
      <trkpt lat="41.666564000" lon="2.521451600">
        <ele>261.60</ele>
        <time>2012-11-25T09:23:58Z</time>
      </trkpt>
      <trkpt lat="41.666599800" lon="2.521426300">
        <ele>261.60</ele>
        <time>2012-11-25T09:23:59Z</time>
      </trkpt>
      <trkpt lat="41.666654400" lon="2.521208000">
        <ele>262.60</ele>
        <time>2012-11-25T09:24:08Z</time>
      </trkpt>
      <trkpt lat="41.666633300" lon="2.521133400">
        <ele>262.60</ele>
        <time>2012-11-25T09:24:15Z</time>
      </trkpt>
      <trkpt lat="41.666630700" lon="2.521174900">
        <ele>263.10</ele>
        <time>2012-11-25T09:24:20Z</time>
      </trkpt>
      <trkpt lat="41.666625500" lon="2.521190100">
        <ele>262.60</ele>
        <time>2012-11-25T09:24:31Z</time>
      </trkpt>
      <trkpt lat="41.666631600" lon="2.521181900">
        <ele>262.60</ele>
        <time>2012-11-25T09:24:43Z</time>
      </trkpt>
      <trkpt lat="41.666634000" lon="2.521174100">
        <ele>262.60</ele>
        <time>2012-11-25T09:25:06Z</time>
      </trkpt>
      <trkpt lat="41.666639600" lon="2.521176700">
        <ele>263.10</ele>
        <time>2012-11-25T09:25:18Z</time>
      </trkpt>
      <trkpt lat="41.666654900" lon="2.521200300">
        <ele>263.10</ele>
        <time>2012-11-25T09:25:49Z</time>
      </trkpt>
      <trkpt lat="41.666662400" lon="2.521176300">
        <ele>263.10</ele>
        <time>2012-11-25T09:26:03Z</time>
      </trkpt>
      <trkpt lat="41.666645400" lon="2.521154200">
        <ele>263.10</ele>
        <time>2012-11-25T09:26:22Z</time>
      </trkpt>
      <trkpt lat="41.666652100" lon="2.521164400">
        <ele>263.10</ele>
        <time>2012-11-25T09:26:33Z</time>
      </trkpt>
      <trkpt lat="41.666640300" lon="2.521183500">
        <ele>263.10</ele>
        <time>2012-11-25T09:26:50Z</time>
      </trkpt>
      <trkpt lat="41.666637200" lon="2.521181600">
        <ele>263.10</ele>
        <time>2012-11-25T09:27:02Z</time>
      </trkpt>
      <trkpt lat="41.666637400" lon="2.521180000">
        <ele>263.10</ele>
        <time>2012-11-25T09:27:22Z</time>
      </trkpt>
      <trkpt lat="41.666632600" lon="2.521171900">
        <ele>263.50</ele>
        <time>2012-11-25T09:27:39Z</time>
      </trkpt>
      <trkpt lat="41.666638100" lon="2.521170800">
        <ele>263.50</ele>
        <time>2012-11-25T09:27:49Z</time>
      </trkpt>
      <trkpt lat="41.666648500" lon="2.521152200">
        <ele>263.50</ele>
        <time>2012-11-25T09:27:58Z</time>
      </trkpt>
      <trkpt lat="41.666652000" lon="2.521141800">
        <ele>263.10</ele>
        <time>2012-11-25T09:28:07Z</time>
      </trkpt>
      <trkpt lat="41.666644400" lon="2.521127800">
        <ele>263.50</ele>
        <time>2012-11-25T09:28:19Z</time>
      </trkpt>
      <trkpt lat="41.666616300" lon="2.521120800">
        <ele>263.10</ele>
        <time>2012-11-25T09:28:38Z</time>
      </trkpt>
      <trkpt lat="41.666617900" lon="2.521127300">
        <ele>263.10</ele>
        <time>2012-11-25T09:28:45Z</time>
      </trkpt>
      <trkpt lat="41.666636600" lon="2.521145400">
        <ele>263.50</ele>
        <time>2012-11-25T09:28:59Z</time>
      </trkpt>
      <trkpt lat="41.666641300" lon="2.521125400">
        <ele>263.50</ele>
        <time>2012-11-25T09:29:08Z</time>
      </trkpt>
      <trkpt lat="41.666567800" lon="2.520976700">
        <ele>263.10</ele>
        <time>2012-11-25T09:29:13Z</time>
      </trkpt>
      <trkpt lat="41.666477500" lon="2.520846000">
        <ele>261.10</ele>
        <time>2012-11-25T09:29:18Z</time>
      </trkpt>
      <trkpt lat="41.666402100" lon="2.520634700">
        <ele>257.80</ele>
        <time>2012-11-25T09:29:24Z</time>
      </trkpt>
      <trkpt lat="41.666372000" lon="2.520569700">
        <ele>256.80</ele>
        <time>2012-11-25T09:29:25Z</time>
      </trkpt>
      <trkpt lat="41.666269800" lon="2.520528500">
        <ele>256.80</ele>
        <time>2012-11-25T09:29:30Z</time>
      </trkpt>
      <trkpt lat="41.666082000" lon="2.520407700">
        <ele>253.40</ele>
        <time>2012-11-25T09:29:36Z</time>
      </trkpt>
      <trkpt lat="41.665950000" lon="2.520340900">
        <ele>251.50</ele>
        <time>2012-11-25T09:29:41Z</time>
      </trkpt>
      <trkpt lat="41.665845600" lon="2.520148000">
        <ele>250.10</ele>
        <time>2012-11-25T09:29:44Z</time>
      </trkpt>
      <trkpt lat="41.665759300" lon="2.519986300">
        <ele>249.10</ele>
        <time>2012-11-25T09:29:48Z</time>
      </trkpt>
      <trkpt lat="41.665551900" lon="2.519484800">
        <ele>246.20</ele>
        <time>2012-11-25T09:29:55Z</time>
      </trkpt>
      <trkpt lat="41.665424100" lon="2.519200800">
        <ele>247.20</ele>
        <time>2012-11-25T09:30:00Z</time>
      </trkpt>
      <trkpt lat="41.665386100" lon="2.519004900">
        <ele>249.10</ele>
        <time>2012-11-25T09:30:07Z</time>
      </trkpt>
      <trkpt lat="41.665392800" lon="2.518797200">
        <ele>248.20</ele>
        <time>2012-11-25T09:30:14Z</time>
      </trkpt>
      <trkpt lat="41.665366900" lon="2.518548900">
        <ele>249.10</ele>
        <time>2012-11-25T09:30:21Z</time>
      </trkpt>
      <trkpt lat="41.665350700" lon="2.518291100">
        <ele>250.10</ele>
        <time>2012-11-25T09:30:30Z</time>
      </trkpt>
      <trkpt lat="41.665357700" lon="2.517989200">
        <ele>249.10</ele>
        <time>2012-11-25T09:30:40Z</time>
      </trkpt>
      <trkpt lat="41.665344900" lon="2.517701700">
        <ele>247.70</ele>
        <time>2012-11-25T09:30:47Z</time>
      </trkpt>
      <trkpt lat="41.665301600" lon="2.517386400">
        <ele>244.80</ele>
        <time>2012-11-25T09:30:54Z</time>
      </trkpt>
      <trkpt lat="41.665288200" lon="2.517276300">
        <ele>243.80</ele>
        <time>2012-11-25T09:30:56Z</time>
      </trkpt>
      <trkpt lat="41.665263800" lon="2.517065500">
        <ele>241.90</ele>
        <time>2012-11-25T09:30:59Z</time>
      </trkpt>
      <trkpt lat="41.665263800" lon="2.516918500">
        <ele>240.00</ele>
        <time>2012-11-25T09:31:01Z</time>
      </trkpt>
      <trkpt lat="41.665365600" lon="2.516611900">
        <ele>237.10</ele>
        <time>2012-11-25T09:31:05Z</time>
      </trkpt>
      <trkpt lat="41.665516600" lon="2.516330500">
        <ele>234.20</ele>
        <time>2012-11-25T09:31:08Z</time>
      </trkpt>
      <trkpt lat="41.665779700" lon="2.516104600">
        <ele>231.80</ele>
        <time>2012-11-25T09:31:13Z</time>
      </trkpt>
      <trkpt lat="41.665911000" lon="2.515942500">
        <ele>230.40</ele>
        <time>2012-11-25T09:31:17Z</time>
      </trkpt>
      <trkpt lat="41.666054300" lon="2.515826000">
        <ele>228.00</ele>
        <time>2012-11-25T09:31:20Z</time>
      </trkpt>
      <trkpt lat="41.666101400" lon="2.515788100">
        <ele>228.00</ele>
        <time>2012-11-25T09:31:22Z</time>
      </trkpt>
      <trkpt lat="41.666241300" lon="2.515596200">
        <ele>228.90</ele>
        <time>2012-11-25T09:31:29Z</time>
      </trkpt>
      <trkpt lat="41.666383000" lon="2.515313400">
        <ele>229.90</ele>
        <time>2012-11-25T09:31:38Z</time>
      </trkpt>
      <trkpt lat="41.666538000" lon="2.515088800">
        <ele>229.40</ele>
        <time>2012-11-25T09:31:45Z</time>
      </trkpt>
      <trkpt lat="41.666641600" lon="2.514986100">
        <ele>229.40</ele>
        <time>2012-11-25T09:31:50Z</time>
      </trkpt>
      <trkpt lat="41.666667100" lon="2.514956200">
        <ele>229.40</ele>
        <time>2012-11-25T09:31:57Z</time>
      </trkpt>
      <trkpt lat="41.666669400" lon="2.514946500">
        <ele>229.40</ele>
        <time>2012-11-25T09:32:11Z</time>
      </trkpt>
      <trkpt lat="41.666655500" lon="2.514930300">
        <ele>229.40</ele>
        <time>2012-11-25T09:32:28Z</time>
      </trkpt>
      <trkpt lat="41.666651900" lon="2.514936100">
        <ele>229.40</ele>
        <time>2012-11-25T09:32:42Z</time>
      </trkpt>
      <trkpt lat="41.666663100" lon="2.514940600">
        <ele>229.40</ele>
        <time>2012-11-25T09:32:56Z</time>
      </trkpt>
      <trkpt lat="41.666698200" lon="2.514937000">
        <ele>229.40</ele>
        <time>2012-11-25T09:33:12Z</time>
      </trkpt>
      <trkpt lat="41.666779000" lon="2.514865900">
        <ele>229.40</ele>
        <time>2012-11-25T09:33:19Z</time>
      </trkpt>
      <trkpt lat="41.666881600" lon="2.514766500">
        <ele>228.90</ele>
        <time>2012-11-25T09:33:24Z</time>
      </trkpt>
      <trkpt lat="41.667006000" lon="2.514614100">
        <ele>229.40</ele>
        <time>2012-11-25T09:33:34Z</time>
      </trkpt>
      <trkpt lat="41.667081000" lon="2.514471200">
        <ele>230.40</ele>
        <time>2012-11-25T09:33:41Z</time>
      </trkpt>
      <trkpt lat="41.667177800" lon="2.514360800">
        <ele>231.30</ele>
        <time>2012-11-25T09:33:50Z</time>
      </trkpt>
      <trkpt lat="41.667284600" lon="2.514295100">
        <ele>231.30</ele>
        <time>2012-11-25T09:33:57Z</time>
      </trkpt>
      <trkpt lat="41.667466400" lon="2.514226400">
        <ele>230.90</ele>
        <time>2012-11-25T09:34:04Z</time>
      </trkpt>
      <trkpt lat="41.667698900" lon="2.514010800">
        <ele>230.40</ele>
        <time>2012-11-25T09:34:11Z</time>
      </trkpt>
      <trkpt lat="41.667782100" lon="2.513826600">
        <ele>230.40</ele>
        <time>2012-11-25T09:34:18Z</time>
      </trkpt>
      <trkpt lat="41.667865900" lon="2.513622900">
        <ele>231.30</ele>
        <time>2012-11-25T09:34:25Z</time>
      </trkpt>
      <trkpt lat="41.667955400" lon="2.513450600">
        <ele>231.30</ele>
        <time>2012-11-25T09:34:32Z</time>
      </trkpt>
      <trkpt lat="41.668112400" lon="2.513249500">
        <ele>230.90</ele>
        <time>2012-11-25T09:34:39Z</time>
      </trkpt>
      <trkpt lat="41.668186700" lon="2.513203200">
        <ele>230.40</ele>
        <time>2012-11-25T09:34:42Z</time>
      </trkpt>
      <trkpt lat="41.668427800" lon="2.513123500">
        <ele>228.90</ele>
        <time>2012-11-25T09:34:47Z</time>
      </trkpt>
      <trkpt lat="41.668786800" lon="2.513193600">
        <ele>226.10</ele>
        <time>2012-11-25T09:34:54Z</time>
      </trkpt>
      <trkpt lat="41.668971200" lon="2.513128400">
        <ele>225.10</ele>
        <time>2012-11-25T09:34:58Z</time>
      </trkpt>
      <trkpt lat="41.669189000" lon="2.512985700">
        <ele>224.10</ele>
        <time>2012-11-25T09:35:01Z</time>
      </trkpt>
      <trkpt lat="41.669411600" lon="2.512804700">
        <ele>224.10</ele>
        <time>2012-11-25T09:35:07Z</time>
      </trkpt>
      <trkpt lat="41.669587000" lon="2.512627500">
        <ele>225.10</ele>
        <time>2012-11-25T09:35:14Z</time>
      </trkpt>
      <trkpt lat="41.669617200" lon="2.512567500">
        <ele>225.10</ele>
        <time>2012-11-25T09:35:17Z</time>
      </trkpt>
      <trkpt lat="41.669659700" lon="2.512520400">
        <ele>225.60</ele>
        <time>2012-11-25T09:35:19Z</time>
      </trkpt>
      <trkpt lat="41.669684900" lon="2.512585200">
        <ele>226.50</ele>
        <time>2012-11-25T09:35:26Z</time>
      </trkpt>
      <trkpt lat="41.669743200" lon="2.512735000">
        <ele>227.00</ele>
        <time>2012-11-25T09:35:36Z</time>
      </trkpt>
      <trkpt lat="41.669748000" lon="2.512754900">
        <ele>226.50</ele>
        <time>2012-11-25T09:35:36Z</time>
      </trkpt>
      <trkpt lat="41.669813600" lon="2.512892500">
        <ele>227.00</ele>
        <time>2012-11-25T09:35:43Z</time>
      </trkpt>
      <trkpt lat="41.669924200" lon="2.513113600">
        <ele>228.00</ele>
        <time>2012-11-25T09:35:54Z</time>
      </trkpt>
      <trkpt lat="41.670023600" lon="2.513304800">
        <ele>228.40</ele>
        <time>2012-11-25T09:36:01Z</time>
      </trkpt>
      <trkpt lat="41.670037500" lon="2.513328600">
        <ele>228.40</ele>
        <time>2012-11-25T09:36:01Z</time>
      </trkpt>
      <trkpt lat="41.670137700" lon="2.513497300">
        <ele>229.40</ele>
        <time>2012-11-25T09:36:09Z</time>
      </trkpt>
      <trkpt lat="41.670248100" lon="2.513658000">
        <ele>230.40</ele>
        <time>2012-11-25T09:36:15Z</time>
      </trkpt>
      <trkpt lat="41.670389000" lon="2.513844700">
        <ele>230.90</ele>
        <time>2012-11-25T09:36:22Z</time>
      </trkpt>
      <trkpt lat="41.670471900" lon="2.513959800">
        <ele>231.80</ele>
        <time>2012-11-25T09:36:27Z</time>
      </trkpt>
      <trkpt lat="41.670562100" lon="2.513989700">
        <ele>232.30</ele>
        <time>2012-11-25T09:36:32Z</time>
      </trkpt>
      <trkpt lat="41.670731100" lon="2.514071400">
        <ele>232.80</ele>
        <time>2012-11-25T09:36:39Z</time>
      </trkpt>
      <trkpt lat="41.670815500" lon="2.514132500">
        <ele>233.30</ele>
        <time>2012-11-25T09:36:44Z</time>
      </trkpt>
      <trkpt lat="41.671016300" lon="2.514245300">
        <ele>234.20</ele>
        <time>2012-11-25T09:36:51Z</time>
      </trkpt>
      <trkpt lat="41.671171800" lon="2.514388400">
        <ele>235.20</ele>
        <time>2012-11-25T09:36:58Z</time>
      </trkpt>
      <trkpt lat="41.671287800" lon="2.514568300">
        <ele>236.60</ele>
        <time>2012-11-25T09:37:05Z</time>
      </trkpt>
      <trkpt lat="41.671384900" lon="2.514698100">
        <ele>237.10</ele>
        <time>2012-11-25T09:37:12Z</time>
      </trkpt>
      <trkpt lat="41.671486000" lon="2.514863500">
        <ele>238.50</ele>
        <time>2012-11-25T09:37:19Z</time>
      </trkpt>
      <trkpt lat="41.671565500" lon="2.515043500">
        <ele>239.50</ele>
        <time>2012-11-25T09:37:26Z</time>
      </trkpt>
      <trkpt lat="41.671599800" lon="2.515106300">
        <ele>240.00</ele>
        <time>2012-11-25T09:37:30Z</time>
      </trkpt>
      <trkpt lat="41.671768100" lon="2.515158100">
        <ele>240.90</ele>
        <time>2012-11-25T09:37:38Z</time>
      </trkpt>
      <trkpt lat="41.671973100" lon="2.515164000">
        <ele>240.90</ele>
        <time>2012-11-25T09:37:49Z</time>
      </trkpt>
      <trkpt lat="41.672180800" lon="2.515177100">
        <ele>241.90</ele>
        <time>2012-11-25T09:37:57Z</time>
      </trkpt>
      <trkpt lat="41.672354100" lon="2.515227900">
        <ele>242.40</ele>
        <time>2012-11-25T09:38:04Z</time>
      </trkpt>
      <trkpt lat="41.672518900" lon="2.515326700">
        <ele>243.40</ele>
        <time>2012-11-25T09:38:13Z</time>
      </trkpt>
      <trkpt lat="41.672634900" lon="2.515448600">
        <ele>244.30</ele>
        <time>2012-11-25T09:38:20Z</time>
      </trkpt>
      <trkpt lat="41.672759400" lon="2.515619000">
        <ele>245.80</ele>
        <time>2012-11-25T09:38:29Z</time>
      </trkpt>
      <trkpt lat="41.672852200" lon="2.515775700">
        <ele>246.20</ele>
        <time>2012-11-25T09:38:36Z</time>
      </trkpt>
      <trkpt lat="41.672944000" lon="2.515780600">
        <ele>246.70</ele>
        <time>2012-11-25T09:38:41Z</time>
      </trkpt>
      <trkpt lat="41.673052200" lon="2.515609800">
        <ele>248.20</ele>
        <time>2012-11-25T09:38:50Z</time>
      </trkpt>
      <trkpt lat="41.673130900" lon="2.515497400">
        <ele>249.60</ele>
        <time>2012-11-25T09:38:58Z</time>
      </trkpt>
      <trkpt lat="41.673242200" lon="2.515349100">
        <ele>251.00</ele>
        <time>2012-11-25T09:39:07Z</time>
      </trkpt>
      <trkpt lat="41.673394600" lon="2.515256900">
        <ele>252.50</ele>
        <time>2012-11-25T09:39:19Z</time>
      </trkpt>
      <trkpt lat="41.673527200" lon="2.515197100">
        <ele>253.90</ele>
        <time>2012-11-25T09:39:26Z</time>
      </trkpt>
      <trkpt lat="41.673688200" lon="2.515143200">
        <ele>254.90</ele>
        <time>2012-11-25T09:39:35Z</time>
      </trkpt>
      <trkpt lat="41.673876300" lon="2.515067400">
        <ele>256.30</ele>
        <time>2012-11-25T09:39:45Z</time>
      </trkpt>
      <trkpt lat="41.674068500" lon="2.515039200">
        <ele>256.30</ele>
        <time>2012-11-25T09:39:56Z</time>
      </trkpt>
      <trkpt lat="41.674089700" lon="2.514937900">
        <ele>255.90</ele>
        <time>2012-11-25T09:40:01Z</time>
      </trkpt>
      <trkpt lat="41.673932300" lon="2.514916800">
        <ele>254.40</ele>
        <time>2012-11-25T09:40:08Z</time>
      </trkpt>
      <trkpt lat="41.673730100" lon="2.514876500">
        <ele>253.40</ele>
        <time>2012-11-25T09:40:15Z</time>
      </trkpt>
      <trkpt lat="41.673700500" lon="2.514853200">
        <ele>253.40</ele>
        <time>2012-11-25T09:40:15Z</time>
      </trkpt>
      <trkpt lat="41.673589800" lon="2.514614800">
        <ele>254.40</ele>
        <time>2012-11-25T09:40:24Z</time>
      </trkpt>
      <trkpt lat="41.673590200" lon="2.514521000">
        <ele>254.40</ele>
        <time>2012-11-25T09:40:29Z</time>
      </trkpt>
      <trkpt lat="41.673658200" lon="2.514325100">
        <ele>255.90</ele>
        <time>2012-11-25T09:40:36Z</time>
      </trkpt>
      <trkpt lat="41.673734300" lon="2.514213700">
        <ele>257.30</ele>
        <time>2012-11-25T09:40:45Z</time>
      </trkpt>
      <trkpt lat="41.673827600" lon="2.514152700">
        <ele>258.70</ele>
        <time>2012-11-25T09:40:52Z</time>
      </trkpt>
      <trkpt lat="41.673936300" lon="2.514062400">
        <ele>260.20</ele>
        <time>2012-11-25T09:41:00Z</time>
      </trkpt>
      <trkpt lat="41.674028200" lon="2.513953700">
        <ele>261.60</ele>
        <time>2012-11-25T09:41:07Z</time>
      </trkpt>
      <trkpt lat="41.674062600" lon="2.513899600">
        <ele>262.60</ele>
        <time>2012-11-25T09:41:11Z</time>
      </trkpt>
      <trkpt lat="41.674095400" lon="2.513873000">
        <ele>263.10</ele>
        <time>2012-11-25T09:41:14Z</time>
      </trkpt>
      <trkpt lat="41.674174700" lon="2.513772100">
        <ele>265.00</ele>
        <time>2012-11-25T09:41:23Z</time>
      </trkpt>
      <trkpt lat="41.674227000" lon="2.513666500">
        <ele>267.40</ele>
        <time>2012-11-25T09:41:30Z</time>
      </trkpt>
      <trkpt lat="41.674257200" lon="2.513575600">
        <ele>268.80</ele>
        <time>2012-11-25T09:41:37Z</time>
      </trkpt>
      <trkpt lat="41.674312400" lon="2.513460300">
        <ele>271.20</ele>
        <time>2012-11-25T09:41:46Z</time>
      </trkpt>
      <trkpt lat="41.674336300" lon="2.513439200">
        <ele>271.70</ele>
        <time>2012-11-25T09:41:49Z</time>
      </trkpt>
      <trkpt lat="41.674397300" lon="2.513418600">
        <ele>273.10</ele>
        <time>2012-11-25T09:41:54Z</time>
      </trkpt>
      <trkpt lat="41.674423200" lon="2.513429100">
        <ele>273.10</ele>
        <time>2012-11-25T09:41:56Z</time>
      </trkpt>
      <trkpt lat="41.674459200" lon="2.513542100">
        <ele>275.10</ele>
        <time>2012-11-25T09:42:05Z</time>
      </trkpt>
      <trkpt lat="41.674458800" lon="2.513647800">
        <ele>277.00</ele>
        <time>2012-11-25T09:42:12Z</time>
      </trkpt>
      <trkpt lat="41.674448600" lon="2.513772000">
        <ele>279.40</ele>
        <time>2012-11-25T09:42:20Z</time>
      </trkpt>
      <trkpt lat="41.674429200" lon="2.513931000">
        <ele>281.30</ele>
        <time>2012-11-25T09:42:31Z</time>
      </trkpt>
      <trkpt lat="41.674437300" lon="2.513987000">
        <ele>282.30</ele>
        <time>2012-11-25T09:42:34Z</time>
      </trkpt>
      <trkpt lat="41.674490000" lon="2.514020700">
        <ele>282.80</ele>
        <time>2012-11-25T09:42:41Z</time>
      </trkpt>
      <trkpt lat="41.674512900" lon="2.513993900">
        <ele>283.20</ele>
        <time>2012-11-25T09:42:43Z</time>
      </trkpt>
      <trkpt lat="41.674567400" lon="2.513925000">
        <ele>285.60</ele>
        <time>2012-11-25T09:42:52Z</time>
      </trkpt>
      <trkpt lat="41.674627200" lon="2.513860600">
        <ele>286.60</ele>
        <time>2012-11-25T09:42:59Z</time>
      </trkpt>
      <trkpt lat="41.674680200" lon="2.513817800">
        <ele>288.50</ele>
        <time>2012-11-25T09:43:06Z</time>
      </trkpt>
      <trkpt lat="41.674706100" lon="2.513797000">
        <ele>289.00</ele>
        <time>2012-11-25T09:43:09Z</time>
      </trkpt>
      <trkpt lat="41.674767200" lon="2.513723700">
        <ele>291.40</ele>
        <time>2012-11-25T09:43:18Z</time>
      </trkpt>
      <trkpt lat="41.674796800" lon="2.513677000">
        <ele>292.90</ele>
        <time>2012-11-25T09:43:23Z</time>
      </trkpt>
      <trkpt lat="41.674883800" lon="2.513664300">
        <ele>294.30</ele>
        <time>2012-11-25T09:43:32Z</time>
      </trkpt>
      <trkpt lat="41.674972600" lon="2.513672900">
        <ele>296.20</ele>
        <time>2012-11-25T09:43:42Z</time>
      </trkpt>
      <trkpt lat="41.675073400" lon="2.513684600">
        <ele>297.20</ele>
        <time>2012-11-25T09:43:51Z</time>
      </trkpt>
      <trkpt lat="41.675082800" lon="2.513685500">
        <ele>297.20</ele>
        <time>2012-11-25T09:43:51Z</time>
      </trkpt>
      <trkpt lat="41.675127300" lon="2.513685000">
        <ele>297.70</ele>
        <time>2012-11-25T09:43:56Z</time>
      </trkpt>
      <trkpt lat="41.675234700" lon="2.513693400">
        <ele>298.60</ele>
        <time>2012-11-25T09:44:05Z</time>
      </trkpt>
      <trkpt lat="41.675342800" lon="2.513697700">
        <ele>300.10</ele>
        <time>2012-11-25T09:44:14Z</time>
      </trkpt>
      <trkpt lat="41.675419300" lon="2.513722300">
        <ele>301.50</ele>
        <time>2012-11-25T09:44:22Z</time>
      </trkpt>
      <trkpt lat="41.675511100" lon="2.513786600">
        <ele>303.00</ele>
        <time>2012-11-25T09:44:31Z</time>
      </trkpt>
      <trkpt lat="41.675635300" lon="2.513783100">
        <ele>303.00</ele>
        <time>2012-11-25T09:44:38Z</time>
      </trkpt>
      <trkpt lat="41.675803600" lon="2.513738400">
        <ele>302.00</ele>
        <time>2012-11-25T09:44:43Z</time>
      </trkpt>
      <trkpt lat="41.675820700" lon="2.513730000">
        <ele>301.50</ele>
        <time>2012-11-25T09:44:45Z</time>
      </trkpt>
      <trkpt lat="41.675843400" lon="2.513629900">
        <ele>302.00</ele>
        <time>2012-11-25T09:44:52Z</time>
      </trkpt>
      <trkpt lat="41.675838000" lon="2.513615000">
        <ele>302.50</ele>
        <time>2012-11-25T09:44:52Z</time>
      </trkpt>
      <trkpt lat="41.675786000" lon="2.513495700">
        <ele>303.40</ele>
        <time>2012-11-25T09:45:01Z</time>
      </trkpt>
      <trkpt lat="41.675764900" lon="2.513335200">
        <ele>304.90</ele>
        <time>2012-11-25T09:45:09Z</time>
      </trkpt>
      <trkpt lat="41.675756200" lon="2.513179900">
        <ele>305.80</ele>
        <time>2012-11-25T09:45:18Z</time>
      </trkpt>
      <trkpt lat="41.675760700" lon="2.513133400">
        <ele>306.30</ele>
        <time>2012-11-25T09:45:20Z</time>
      </trkpt>
      <trkpt lat="41.675745500" lon="2.512981000">
        <ele>308.20</ele>
        <time>2012-11-25T09:45:29Z</time>
      </trkpt>
      <trkpt lat="41.675669800" lon="2.512806300">
        <ele>309.20</ele>
        <time>2012-11-25T09:45:37Z</time>
      </trkpt>
      <trkpt lat="41.675551900" lon="2.512619300">
        <ele>310.60</ele>
        <time>2012-11-25T09:45:48Z</time>
      </trkpt>
      <trkpt lat="41.675441700" lon="2.512478300">
        <ele>311.10</ele>
        <time>2012-11-25T09:45:56Z</time>
      </trkpt>
      <trkpt lat="41.675246700" lon="2.512407100">
        <ele>309.20</ele>
        <time>2012-11-25T09:46:00Z</time>
      </trkpt>
      <trkpt lat="41.675200300" lon="2.512371000">
        <ele>308.20</ele>
        <time>2012-11-25T09:46:02Z</time>
      </trkpt>
      <trkpt lat="41.675035700" lon="2.512258000">
        <ele>308.20</ele>
        <time>2012-11-25T09:46:07Z</time>
      </trkpt>
      <trkpt lat="41.674838700" lon="2.512198900">
        <ele>311.10</ele>
        <time>2012-11-25T09:46:17Z</time>
      </trkpt>
      <trkpt lat="41.674722200" lon="2.512165700">
        <ele>313.00</ele>
        <time>2012-11-25T09:46:26Z</time>
      </trkpt>
      <trkpt lat="41.674563600" lon="2.512093600">
        <ele>315.90</ele>
        <time>2012-11-25T09:46:38Z</time>
      </trkpt>
      <trkpt lat="41.674553800" lon="2.512086400">
        <ele>315.90</ele>
        <time>2012-11-25T09:46:38Z</time>
      </trkpt>
      <trkpt lat="41.674446900" lon="2.511960000">
        <ele>314.00</ele>
        <time>2012-11-25T09:46:43Z</time>
      </trkpt>
      <trkpt lat="41.674408000" lon="2.511908700">
        <ele>313.50</ele>
        <time>2012-11-25T09:46:45Z</time>
      </trkpt>
      <trkpt lat="41.674332600" lon="2.511793200">
        <ele>311.10</ele>
        <time>2012-11-25T09:46:47Z</time>
      </trkpt>
      <trkpt lat="41.674163800" lon="2.511441700">
        <ele>308.20</ele>
        <time>2012-11-25T09:46:52Z</time>
      </trkpt>
      <trkpt lat="41.674118900" lon="2.511376700">
        <ele>307.80</ele>
        <time>2012-11-25T09:46:52Z</time>
      </trkpt>
      <trkpt lat="41.673940600" lon="2.511066900">
        <ele>307.30</ele>
        <time>2012-11-25T09:46:59Z</time>
      </trkpt>
      <trkpt lat="41.673854400" lon="2.510962700">
        <ele>308.20</ele>
        <time>2012-11-25T09:47:06Z</time>
      </trkpt>
      <trkpt lat="41.673748800" lon="2.510823500">
        <ele>310.20</ele>
        <time>2012-11-25T09:47:15Z</time>
      </trkpt>
      <trkpt lat="41.673664100" lon="2.510676400">
        <ele>312.60</ele>
        <time>2012-11-25T09:47:25Z</time>
      </trkpt>
      <trkpt lat="41.673631000" lon="2.510626400">
        <ele>313.00</ele>
        <time>2012-11-25T09:47:27Z</time>
      </trkpt>
      <trkpt lat="41.673562600" lon="2.510506300">
        <ele>315.00</ele>
        <time>2012-11-25T09:47:36Z</time>
      </trkpt>
      <trkpt lat="41.673493100" lon="2.510335800">
        <ele>316.90</ele>
        <time>2012-11-25T09:47:44Z</time>
      </trkpt>
      <trkpt lat="41.673457700" lon="2.510209800">
        <ele>318.80</ele>
        <time>2012-11-25T09:47:51Z</time>
      </trkpt>
      <trkpt lat="41.673452800" lon="2.510054800">
        <ele>319.80</ele>
        <time>2012-11-25T09:48:00Z</time>
      </trkpt>
      <trkpt lat="41.673467400" lon="2.509960200">
        <ele>319.80</ele>
        <time>2012-11-25T09:48:05Z</time>
      </trkpt>
      <trkpt lat="41.673493400" lon="2.509767300">
        <ele>319.80</ele>
        <time>2012-11-25T09:48:14Z</time>
      </trkpt>
      <trkpt lat="41.673497600" lon="2.509564300">
        <ele>320.30</ele>
        <time>2012-11-25T09:48:23Z</time>
      </trkpt>
      <trkpt lat="41.673504100" lon="2.509349800">
        <ele>320.70</ele>
        <time>2012-11-25T09:48:33Z</time>
      </trkpt>
      <trkpt lat="41.673499300" lon="2.509262200">
        <ele>321.20</ele>
        <time>2012-11-25T09:48:37Z</time>
      </trkpt>
      <trkpt lat="41.673448400" lon="2.509131200">
        <ele>323.10</ele>
        <time>2012-11-25T09:48:45Z</time>
      </trkpt>
      <trkpt lat="41.673451200" lon="2.508996000">
        <ele>325.10</ele>
        <time>2012-11-25T09:48:52Z</time>
      </trkpt>
      <trkpt lat="41.673556200" lon="2.508890600">
        <ele>325.10</ele>
        <time>2012-11-25T09:49:01Z</time>
      </trkpt>
      <trkpt lat="41.673714400" lon="2.508789500">
        <ele>325.10</ele>
        <time>2012-11-25T09:49:10Z</time>
      </trkpt>
      <trkpt lat="41.673773700" lon="2.508711800">
        <ele>325.10</ele>
        <time>2012-11-25T09:49:15Z</time>
      </trkpt>
      <trkpt lat="41.673815700" lon="2.508646100">
        <ele>324.60</ele>
        <time>2012-11-25T09:49:18Z</time>
      </trkpt>
      <trkpt lat="41.673856600" lon="2.508587200">
        <ele>324.60</ele>
        <time>2012-11-25T09:49:27Z</time>
      </trkpt>
      <trkpt lat="41.673868200" lon="2.508584400">
        <ele>324.60</ele>
        <time>2012-11-25T09:49:34Z</time>
      </trkpt>
      <trkpt lat="41.673882000" lon="2.508565200">
        <ele>324.60</ele>
        <time>2012-11-25T09:49:48Z</time>
      </trkpt>
      <trkpt lat="41.673916900" lon="2.508537300">
        <ele>325.50</ele>
        <time>2012-11-25T09:49:53Z</time>
      </trkpt>
      <trkpt lat="41.674001200" lon="2.508447100">
        <ele>325.10</ele>
        <time>2012-11-25T09:49:59Z</time>
      </trkpt>
      <trkpt lat="41.674170500" lon="2.508297300">
        <ele>323.10</ele>
        <time>2012-11-25T09:50:07Z</time>
      </trkpt>
      <trkpt lat="41.674236700" lon="2.508120300">
        <ele>322.70</ele>
        <time>2012-11-25T09:50:14Z</time>
      </trkpt>
      <trkpt lat="41.674270500" lon="2.507962900">
        <ele>323.10</ele>
        <time>2012-11-25T09:50:21Z</time>
      </trkpt>
      <trkpt lat="41.674337200" lon="2.507766700">
        <ele>323.10</ele>
        <time>2012-11-25T09:50:30Z</time>
      </trkpt>
      <trkpt lat="41.674439100" lon="2.507589100">
        <ele>322.20</ele>
        <time>2012-11-25T09:50:39Z</time>
      </trkpt>
      <trkpt lat="41.674476900" lon="2.507552800">
        <ele>321.20</ele>
        <time>2012-11-25T09:50:42Z</time>
      </trkpt>
      <trkpt lat="41.674602000" lon="2.507433900">
        <ele>318.80</ele>
        <time>2012-11-25T09:50:49Z</time>
      </trkpt>
      <trkpt lat="41.674629300" lon="2.507408800">
        <ele>318.80</ele>
        <time>2012-11-25T09:50:49Z</time>
      </trkpt>
      <trkpt lat="41.674680100" lon="2.507368500">
        <ele>317.40</ele>
        <time>2012-11-25T09:50:53Z</time>
      </trkpt>
      <trkpt lat="41.674716000" lon="2.507297300">
        <ele>316.40</ele>
        <time>2012-11-25T09:50:56Z</time>
      </trkpt>
      <trkpt lat="41.674790000" lon="2.507156500">
        <ele>314.00</ele>
        <time>2012-11-25T09:51:03Z</time>
      </trkpt>
      <trkpt lat="41.674824000" lon="2.507088000">
        <ele>313.00</ele>
        <time>2012-11-25T09:51:10Z</time>
      </trkpt>
      <trkpt lat="41.674830200" lon="2.507080800">
        <ele>313.50</ele>
        <time>2012-11-25T09:51:24Z</time>
      </trkpt>
      <trkpt lat="41.674807200" lon="2.507127200">
        <ele>314.50</ele>
        <time>2012-11-25T09:51:31Z</time>
      </trkpt>
      <trkpt lat="41.674778900" lon="2.507193100">
        <ele>315.90</ele>
        <time>2012-11-25T09:51:38Z</time>
      </trkpt>
      <trkpt lat="41.674763400" lon="2.507262800">
        <ele>316.90</ele>
        <time>2012-11-25T09:51:45Z</time>
      </trkpt>
      <trkpt lat="41.674761600" lon="2.507283700">
        <ele>316.90</ele>
        <time>2012-11-25T09:51:52Z</time>
      </trkpt>
      <trkpt lat="41.674783900" lon="2.507298400">
        <ele>316.90</ele>
        <time>2012-11-25T09:52:02Z</time>
      </trkpt>
      <trkpt lat="41.674805000" lon="2.507321500">
        <ele>316.90</ele>
        <time>2012-11-25T09:52:09Z</time>
      </trkpt>
      <trkpt lat="41.674843900" lon="2.507344500">
        <ele>316.40</ele>
        <time>2012-11-25T09:52:14Z</time>
      </trkpt>
      <trkpt lat="41.674861300" lon="2.507351000">
        <ele>316.90</ele>
        <time>2012-11-25T09:52:23Z</time>
      </trkpt>
      <trkpt lat="41.674872900" lon="2.507364300">
        <ele>316.40</ele>
        <time>2012-11-25T09:52:42Z</time>
      </trkpt>
      <trkpt lat="41.674890000" lon="2.507375900">
        <ele>316.90</ele>
        <time>2012-11-25T09:53:08Z</time>
      </trkpt>
      <trkpt lat="41.674881400" lon="2.507379000">
        <ele>316.90</ele>
        <time>2012-11-25T09:53:29Z</time>
      </trkpt>
      <trkpt lat="41.674877000" lon="2.507391800">
        <ele>316.40</ele>
        <time>2012-11-25T09:53:45Z</time>
      </trkpt>
      <trkpt lat="41.674841400" lon="2.507403900">
        <ele>316.90</ele>
        <time>2012-11-25T09:54:08Z</time>
      </trkpt>
      <trkpt lat="41.674877000" lon="2.507376200">
        <ele>316.90</ele>
        <time>2012-11-25T09:54:30Z</time>
      </trkpt>
      <trkpt lat="41.674902700" lon="2.507368200">
        <ele>316.90</ele>
        <time>2012-11-25T09:55:05Z</time>
      </trkpt>
      <trkpt lat="41.674887800" lon="2.507371000">
        <ele>316.90</ele>
        <time>2012-11-25T09:55:24Z</time>
      </trkpt>
      <trkpt lat="41.674886500" lon="2.507374600">
        <ele>316.90</ele>
        <time>2012-11-25T09:55:40Z</time>
      </trkpt>
      <trkpt lat="41.674876000" lon="2.507371000">
        <ele>317.40</ele>
        <time>2012-11-25T09:56:03Z</time>
      </trkpt>
      <trkpt lat="41.674884200" lon="2.507367800">
        <ele>316.90</ele>
        <time>2012-11-25T09:56:18Z</time>
      </trkpt>
      <trkpt lat="41.674876600" lon="2.507344500">
        <ele>316.90</ele>
        <time>2012-11-25T09:56:32Z</time>
      </trkpt>
      <trkpt lat="41.674881400" lon="2.507359100">
        <ele>316.90</ele>
        <time>2012-11-25T09:56:46Z</time>
      </trkpt>
      <trkpt lat="41.674839800" lon="2.507364700">
        <ele>317.40</ele>
        <time>2012-11-25T09:56:55Z</time>
      </trkpt>
      <trkpt lat="41.674797800" lon="2.507333700">
        <ele>317.90</ele>
        <time>2012-11-25T09:57:04Z</time>
      </trkpt>
      <trkpt lat="41.674790000" lon="2.507301500">
        <ele>317.40</ele>
        <time>2012-11-25T09:57:12Z</time>
      </trkpt>
      <trkpt lat="41.674785400" lon="2.507281300">
        <ele>317.40</ele>
        <time>2012-11-25T09:57:21Z</time>
      </trkpt>
      <trkpt lat="41.674776200" lon="2.507238100">
        <ele>316.90</ele>
        <time>2012-11-25T09:57:31Z</time>
      </trkpt>
      <trkpt lat="41.674819100" lon="2.507123200">
        <ele>315.00</ele>
        <time>2012-11-25T09:57:38Z</time>
      </trkpt>
      <trkpt lat="41.674857600" lon="2.506967800">
        <ele>311.60</ele>
        <time>2012-11-25T09:57:45Z</time>
      </trkpt>
      <trkpt lat="41.674875500" lon="2.506870600">
        <ele>308.70</ele>
        <time>2012-11-25T09:57:52Z</time>
      </trkpt>
      <trkpt lat="41.674893000" lon="2.506795300">
        <ele>306.80</ele>
        <time>2012-11-25T09:58:01Z</time>
      </trkpt>
      <trkpt lat="41.674902000" lon="2.506734500">
        <ele>305.80</ele>
        <time>2012-11-25T09:58:03Z</time>
      </trkpt>
      <trkpt lat="41.674912500" lon="2.506627100">
        <ele>303.90</ele>
        <time>2012-11-25T09:58:08Z</time>
      </trkpt>
      <trkpt lat="41.674911700" lon="2.506614600">
        <ele>303.90</ele>
        <time>2012-11-25T09:58:10Z</time>
      </trkpt>
      <trkpt lat="41.674893300" lon="2.506532800">
        <ele>303.90</ele>
        <time>2012-11-25T09:58:13Z</time>
      </trkpt>
      <trkpt lat="41.674920400" lon="2.506262400">
        <ele>303.90</ele>
        <time>2012-11-25T09:58:31Z</time>
      </trkpt>
      <trkpt lat="41.674947700" lon="2.506134800">
        <ele>304.90</ele>
        <time>2012-11-25T09:58:38Z</time>
      </trkpt>
      <trkpt lat="41.674953700" lon="2.506123900">
        <ele>304.90</ele>
        <time>2012-11-25T09:58:39Z</time>
      </trkpt>
      <trkpt lat="41.674980400" lon="2.506066600">
        <ele>305.80</ele>
        <time>2012-11-25T09:58:43Z</time>
      </trkpt>
      <trkpt lat="41.674980100" lon="2.505859900">
        <ele>306.80</ele>
        <time>2012-11-25T09:58:53Z</time>
      </trkpt>
      <trkpt lat="41.674919100" lon="2.505675000">
        <ele>306.30</ele>
        <time>2012-11-25T09:59:00Z</time>
      </trkpt>
      <trkpt lat="41.674904400" lon="2.505446800">
        <ele>305.80</ele>
        <time>2012-11-25T09:59:06Z</time>
      </trkpt>
      <trkpt lat="41.674933500" lon="2.505212500">
        <ele>305.40</ele>
        <time>2012-11-25T09:59:11Z</time>
      </trkpt>
      <trkpt lat="41.674924200" lon="2.504887300">
        <ele>302.50</ele>
        <time>2012-11-25T09:59:16Z</time>
      </trkpt>
      <trkpt lat="41.674916400" lon="2.504754700">
        <ele>301.50</ele>
        <time>2012-11-25T09:59:18Z</time>
      </trkpt>
      <trkpt lat="41.674856800" lon="2.504500900">
        <ele>297.20</ele>
        <time>2012-11-25T09:59:23Z</time>
      </trkpt>
      <trkpt lat="41.674818500" lon="2.504337500">
        <ele>294.30</ele>
        <time>2012-11-25T09:59:26Z</time>
      </trkpt>
      <trkpt lat="41.674781500" lon="2.504206900">
        <ele>291.90</ele>
        <time>2012-11-25T09:59:30Z</time>
      </trkpt>
      <trkpt lat="41.674736900" lon="2.504050900">
        <ele>289.00</ele>
        <time>2012-11-25T09:59:33Z</time>
      </trkpt>
      <trkpt lat="41.674709500" lon="2.503926100">
        <ele>287.10</ele>
        <time>2012-11-25T09:59:37Z</time>
      </trkpt>
      <trkpt lat="41.674678200" lon="2.503786700">
        <ele>284.70</ele>
        <time>2012-11-25T09:59:40Z</time>
      </trkpt>
      <trkpt lat="41.674673200" lon="2.503709700">
        <ele>283.20</ele>
        <time>2012-11-25T09:59:42Z</time>
      </trkpt>
      <trkpt lat="41.674675500" lon="2.503570400">
        <ele>281.80</ele>
        <time>2012-11-25T09:59:44Z</time>
      </trkpt>
      <trkpt lat="41.674654000" lon="2.503371000">
        <ele>279.40</ele>
        <time>2012-11-25T09:59:47Z</time>
      </trkpt>
      <trkpt lat="41.674616800" lon="2.503106700">
        <ele>275.10</ele>
        <time>2012-11-25T09:59:53Z</time>
      </trkpt>
      <trkpt lat="41.674611700" lon="2.503078800">
        <ele>275.10</ele>
        <time>2012-11-25T09:59:54Z</time>
      </trkpt>
      <trkpt lat="41.674567900" lon="2.502870400">
        <ele>272.20</ele>
        <time>2012-11-25T10:00:00Z</time>
      </trkpt>
      <trkpt lat="41.674543500" lon="2.502814500">
        <ele>270.80</ele>
        <time>2012-11-25T10:00:01Z</time>
      </trkpt>
      <trkpt lat="41.674391500" lon="2.502527200">
        <ele>267.90</ele>
        <time>2012-11-25T10:00:08Z</time>
      </trkpt>
      <trkpt lat="41.674362000" lon="2.502496400">
        <ele>267.90</ele>
        <time>2012-11-25T10:00:10Z</time>
      </trkpt>
      <trkpt lat="41.674155300" lon="2.502479700">
        <ele>267.40</ele>
        <time>2012-11-25T10:00:17Z</time>
      </trkpt>
      <trkpt lat="41.673912800" lon="2.502604100">
        <ele>266.40</ele>
        <time>2012-11-25T10:00:24Z</time>
      </trkpt>
      <trkpt lat="41.673763000" lon="2.502617600">
        <ele>264.50</ele>
        <time>2012-11-25T10:00:29Z</time>
      </trkpt>
      <trkpt lat="41.673591500" lon="2.502491900">
        <ele>263.10</ele>
        <time>2012-11-25T10:00:34Z</time>
      </trkpt>
      <trkpt lat="41.673441300" lon="2.502274800">
        <ele>261.10</ele>
        <time>2012-11-25T10:00:38Z</time>
      </trkpt>
      <trkpt lat="41.673272600" lon="2.502056200">
        <ele>257.30</ele>
        <time>2012-11-25T10:00:43Z</time>
      </trkpt>
      <trkpt lat="41.673246600" lon="2.502034700">
        <ele>257.30</ele>
        <time>2012-11-25T10:00:43Z</time>
      </trkpt>
      <trkpt lat="41.673158100" lon="2.501972300">
        <ele>257.30</ele>
        <time>2012-11-25T10:00:48Z</time>
      </trkpt>
      <trkpt lat="41.673045700" lon="2.501847700">
        <ele>256.80</ele>
        <time>2012-11-25T10:00:55Z</time>
      </trkpt>
      <trkpt lat="41.673011300" lon="2.501804100">
        <ele>256.80</ele>
        <time>2012-11-25T10:00:57Z</time>
      </trkpt>
      <trkpt lat="41.672926700" lon="2.501744300">
        <ele>256.80</ele>
        <time>2012-11-25T10:01:00Z</time>
      </trkpt>
      <trkpt lat="41.672744900" lon="2.501606100">
        <ele>257.80</ele>
        <time>2012-11-25T10:01:09Z</time>
      </trkpt>
      <trkpt lat="41.672564700" lon="2.501476800">
        <ele>258.20</ele>
        <time>2012-11-25T10:01:18Z</time>
      </trkpt>
      <trkpt lat="41.672444200" lon="2.501360100">
        <ele>257.80</ele>
        <time>2012-11-25T10:01:23Z</time>
      </trkpt>
      <trkpt lat="41.672327800" lon="2.501242800">
        <ele>257.80</ele>
        <time>2012-11-25T10:01:28Z</time>
      </trkpt>
      <trkpt lat="41.672187400" lon="2.501108700">
        <ele>257.80</ele>
        <time>2012-11-25T10:01:34Z</time>
      </trkpt>
      <trkpt lat="41.672084900" lon="2.500938200">
        <ele>258.70</ele>
        <time>2012-11-25T10:01:39Z</time>
      </trkpt>
      <trkpt lat="41.672048900" lon="2.500886900">
        <ele>259.20</ele>
        <time>2012-11-25T10:01:42Z</time>
      </trkpt>
      <trkpt lat="41.672012400" lon="2.500812900">
        <ele>260.60</ele>
        <time>2012-11-25T10:01:46Z</time>
      </trkpt>
      <trkpt lat="41.671918200" lon="2.500626800">
        <ele>263.10</ele>
        <time>2012-11-25T10:01:54Z</time>
      </trkpt>
      <trkpt lat="41.671902000" lon="2.500544800">
        <ele>263.10</ele>
        <time>2012-11-25T10:02:03Z</time>
      </trkpt>
      <trkpt lat="41.671892300" lon="2.500525000">
        <ele>263.10</ele>
        <time>2012-11-25T10:02:14Z</time>
      </trkpt>
      <trkpt lat="41.671891200" lon="2.500526900">
        <ele>263.10</ele>
        <time>2012-11-25T10:02:22Z</time>
      </trkpt>
      <trkpt lat="41.671875700" lon="2.500505900">
        <ele>263.10</ele>
        <time>2012-11-25T10:02:29Z</time>
      </trkpt>
      <trkpt lat="41.671865400" lon="2.500500600">
        <ele>263.10</ele>
        <time>2012-11-25T10:02:40Z</time>
      </trkpt>
      <trkpt lat="41.671869000" lon="2.500430600">
        <ele>263.10</ele>
        <time>2012-11-25T10:02:48Z</time>
      </trkpt>
      <trkpt lat="41.671877200" lon="2.500418000">
        <ele>262.60</ele>
        <time>2012-11-25T10:02:57Z</time>
      </trkpt>
      <trkpt lat="41.671875700" lon="2.500400800">
        <ele>262.60</ele>
        <time>2012-11-25T10:03:06Z</time>
      </trkpt>
      <trkpt lat="41.671881800" lon="2.500380900">
        <ele>262.10</ele>
        <time>2012-11-25T10:03:16Z</time>
      </trkpt>
      <trkpt lat="41.671870700" lon="2.500368700">
        <ele>261.60</ele>
        <time>2012-11-25T10:03:18Z</time>
      </trkpt>
      <trkpt lat="41.671897500" lon="2.500294200">
        <ele>260.20</ele>
        <time>2012-11-25T10:03:23Z</time>
      </trkpt>
      <trkpt lat="41.671959400" lon="2.500224300">
        <ele>258.20</ele>
        <time>2012-11-25T10:03:27Z</time>
      </trkpt>
      <trkpt lat="41.672012400" lon="2.500141700">
        <ele>255.40</ele>
        <time>2012-11-25T10:03:32Z</time>
      </trkpt>
      <trkpt lat="41.672102600" lon="2.499972900">
        <ele>253.00</ele>
        <time>2012-11-25T10:03:39Z</time>
      </trkpt>
      <trkpt lat="41.672143500" lon="2.499914800">
        <ele>252.50</ele>
        <time>2012-11-25T10:03:41Z</time>
      </trkpt>
      <trkpt lat="41.672170200" lon="2.499881700">
        <ele>252.00</ele>
        <time>2012-11-25T10:03:42Z</time>
      </trkpt>
      <trkpt lat="41.672233700" lon="2.499752700">
        <ele>251.00</ele>
        <time>2012-11-25T10:03:46Z</time>
      </trkpt>
      <trkpt lat="41.672282700" lon="2.499675300">
        <ele>251.00</ele>
        <time>2012-11-25T10:03:51Z</time>
      </trkpt>
      <trkpt lat="41.672318600" lon="2.499503600">
        <ele>249.10</ele>
        <time>2012-11-25T10:03:58Z</time>
      </trkpt>
      <trkpt lat="41.672325200" lon="2.499408000">
        <ele>248.20</ele>
        <time>2012-11-25T10:04:02Z</time>
      </trkpt>
      <trkpt lat="41.672349800" lon="2.499268800">
        <ele>246.20</ele>
        <time>2012-11-25T10:04:07Z</time>
      </trkpt>
      <trkpt lat="41.672349600" lon="2.499182700">
        <ele>246.20</ele>
        <time>2012-11-25T10:04:12Z</time>
      </trkpt>
      <trkpt lat="41.672337800" lon="2.499071600">
        <ele>246.20</ele>
        <time>2012-11-25T10:04:21Z</time>
      </trkpt>
      <trkpt lat="41.672273800" lon="2.498946500">
        <ele>245.80</ele>
        <time>2012-11-25T10:04:26Z</time>
      </trkpt>
      <trkpt lat="41.672253900" lon="2.498875900">
        <ele>245.80</ele>
        <time>2012-11-25T10:04:31Z</time>
      </trkpt>
      <trkpt lat="41.672240600" lon="2.498807100">
        <ele>245.30</ele>
        <time>2012-11-25T10:04:40Z</time>
      </trkpt>
      <trkpt lat="41.672259300" lon="2.498742400">
        <ele>245.80</ele>
        <time>2012-11-25T10:04:47Z</time>
      </trkpt>
      <trkpt lat="41.672267200" lon="2.498689300">
        <ele>245.30</ele>
        <time>2012-11-25T10:04:56Z</time>
      </trkpt>
      <trkpt lat="41.672261800" lon="2.498632700">
        <ele>244.30</ele>
        <time>2012-11-25T10:05:03Z</time>
      </trkpt>
      <trkpt lat="41.672318100" lon="2.498527400">
        <ele>240.50</ele>
        <time>2012-11-25T10:05:08Z</time>
      </trkpt>
      <trkpt lat="41.672327400" lon="2.498501100">
        <ele>239.50</ele>
        <time>2012-11-25T10:05:08Z</time>
      </trkpt>
      <trkpt lat="41.672361800" lon="2.498397500">
        <ele>235.70</ele>
        <time>2012-11-25T10:05:15Z</time>
      </trkpt>
      <trkpt lat="41.672365200" lon="2.498384700">
        <ele>236.10</ele>
        <time>2012-11-25T10:05:25Z</time>
      </trkpt>
      <trkpt lat="41.672363500" lon="2.498355000">
        <ele>235.20</ele>
        <time>2012-11-25T10:05:36Z</time>
      </trkpt>
      <trkpt lat="41.672370900" lon="2.498312700">
        <ele>233.30</ele>
        <time>2012-11-25T10:05:43Z</time>
      </trkpt>
      <trkpt lat="41.672387300" lon="2.498265500">
        <ele>231.30</ele>
        <time>2012-11-25T10:05:51Z</time>
      </trkpt>
      <trkpt lat="41.672396200" lon="2.498224000">
        <ele>229.40</ele>
        <time>2012-11-25T10:06:00Z</time>
      </trkpt>
      <trkpt lat="41.672430100" lon="2.498175700">
        <ele>227.00</ele>
        <time>2012-11-25T10:06:07Z</time>
      </trkpt>
      <trkpt lat="41.672431000" lon="2.498174100">
        <ele>227.00</ele>
        <time>2012-11-25T10:06:09Z</time>
      </trkpt>
      <trkpt lat="41.672493800" lon="2.498123700">
        <ele>225.60</ele>
        <time>2012-11-25T10:06:14Z</time>
      </trkpt>
      <trkpt lat="41.672522000" lon="2.498072200">
        <ele>224.10</ele>
        <time>2012-11-25T10:06:16Z</time>
      </trkpt>
      <trkpt lat="41.672605100" lon="2.498032300">
        <ele>223.20</ele>
        <time>2012-11-25T10:06:23Z</time>
      </trkpt>
      <trkpt lat="41.672689700" lon="2.497911200">
        <ele>221.70</ele>
        <time>2012-11-25T10:06:28Z</time>
      </trkpt>
      <trkpt lat="41.672727800" lon="2.497793900">
        <ele>220.30</ele>
        <time>2012-11-25T10:06:30Z</time>
      </trkpt>
      <trkpt lat="41.672830300" lon="2.497641700">
        <ele>219.30</ele>
        <time>2012-11-25T10:06:35Z</time>
      </trkpt>
      <trkpt lat="41.672871300" lon="2.497600800">
        <ele>218.80</ele>
        <time>2012-11-25T10:06:37Z</time>
      </trkpt>
      <trkpt lat="41.672888300" lon="2.497536200">
        <ele>217.40</ele>
        <time>2012-11-25T10:06:42Z</time>
      </trkpt>
      <trkpt lat="41.672862600" lon="2.497497100">
        <ele>215.90</ele>
        <time>2012-11-25T10:06:45Z</time>
      </trkpt>
      <trkpt lat="41.672705200" lon="2.497473400">
        <ele>213.10</ele>
        <time>2012-11-25T10:06:54Z</time>
      </trkpt>
      <trkpt lat="41.672570500" lon="2.497508600">
        <ele>210.20</ele>
        <time>2012-11-25T10:06:56Z</time>
      </trkpt>
      <trkpt lat="41.672501100" lon="2.497535200">
        <ele>208.30</ele>
        <time>2012-11-25T10:06:59Z</time>
      </trkpt>
      <trkpt lat="41.672453700" lon="2.497524600">
        <ele>207.30</ele>
        <time>2012-11-25T10:07:01Z</time>
      </trkpt>
      <trkpt lat="41.672463500" lon="2.497439800">
        <ele>206.30</ele>
        <time>2012-11-25T10:07:05Z</time>
      </trkpt>
      <trkpt lat="41.672594900" lon="2.497169500">
        <ele>205.40</ele>
        <time>2012-11-25T10:07:13Z</time>
      </trkpt>
      <trkpt lat="41.672696600" lon="2.496932500">
        <ele>204.40</ele>
        <time>2012-11-25T10:07:20Z</time>
      </trkpt>
      <trkpt lat="41.672837400" lon="2.496760500">
        <ele>203.00</ele>
        <time>2012-11-25T10:07:24Z</time>
      </trkpt>
      <trkpt lat="41.673059600" lon="2.496535900">
        <ele>200.10</ele>
        <time>2012-11-25T10:07:29Z</time>
      </trkpt>
      <trkpt lat="41.673252500" lon="2.496356800">
        <ele>197.20</ele>
        <time>2012-11-25T10:07:36Z</time>
      </trkpt>
      <trkpt lat="41.673352700" lon="2.496331100">
        <ele>195.80</ele>
        <time>2012-11-25T10:07:38Z</time>
      </trkpt>
      <trkpt lat="41.673517000" lon="2.496293100">
        <ele>193.40</ele>
        <time>2012-11-25T10:07:45Z</time>
      </trkpt>
      <trkpt lat="41.673618900" lon="2.496253000">
        <ele>191.40</ele>
        <time>2012-11-25T10:07:48Z</time>
      </trkpt>
      <trkpt lat="41.673787700" lon="2.496203200">
        <ele>190.00</ele>
        <time>2012-11-25T10:07:55Z</time>
      </trkpt>
      <trkpt lat="41.674093600" lon="2.496147100">
        <ele>189.00</ele>
        <time>2012-11-25T10:08:00Z</time>
      </trkpt>
      <trkpt lat="41.674199500" lon="2.496131200">
        <ele>188.60</ele>
        <time>2012-11-25T10:08:02Z</time>
      </trkpt>
      <trkpt lat="41.674360100" lon="2.496021700">
        <ele>188.10</ele>
        <time>2012-11-25T10:08:07Z</time>
      </trkpt>
      <trkpt lat="41.674318800" lon="2.495907900">
        <ele>188.10</ele>
        <time>2012-11-25T10:08:12Z</time>
      </trkpt>
      <trkpt lat="41.674255400" lon="2.495790000">
        <ele>188.10</ele>
        <time>2012-11-25T10:08:19Z</time>
      </trkpt>
      <trkpt lat="41.674040900" lon="2.495628700">
        <ele>188.10</ele>
        <time>2012-11-25T10:08:32Z</time>
      </trkpt>
      <trkpt lat="41.673906600" lon="2.495515300">
        <ele>188.60</ele>
        <time>2012-11-25T10:08:39Z</time>
      </trkpt>
      <trkpt lat="41.673767300" lon="2.495389900">
        <ele>188.60</ele>
        <time>2012-11-25T10:08:46Z</time>
      </trkpt>
      <trkpt lat="41.673616000" lon="2.495268000">
        <ele>188.60</ele>
        <time>2012-11-25T10:08:53Z</time>
      </trkpt>
      <trkpt lat="41.673473100" lon="2.495154000">
        <ele>189.50</ele>
        <time>2012-11-25T10:08:59Z</time>
      </trkpt>
      <trkpt lat="41.673332300" lon="2.495044300">
        <ele>191.00</ele>
        <time>2012-11-25T10:09:06Z</time>
      </trkpt>
      <trkpt lat="41.673280800" lon="2.495015500">
        <ele>191.40</ele>
        <time>2012-11-25T10:09:08Z</time>
      </trkpt>
      <trkpt lat="41.673137400" lon="2.495123800">
        <ele>191.40</ele>
        <time>2012-11-25T10:09:15Z</time>
      </trkpt>
      <trkpt lat="41.672949600" lon="2.495340400">
        <ele>191.40</ele>
        <time>2012-11-25T10:09:24Z</time>
      </trkpt>
      <trkpt lat="41.672771200" lon="2.495572200">
        <ele>191.00</ele>
        <time>2012-11-25T10:09:31Z</time>
      </trkpt>
      <trkpt lat="41.672574200" lon="2.495815900">
        <ele>191.40</ele>
        <time>2012-11-25T10:09:41Z</time>
      </trkpt>
      <trkpt lat="41.672456400" lon="2.495981600">
        <ele>191.00</ele>
        <time>2012-11-25T10:09:48Z</time>
      </trkpt>
      <trkpt lat="41.672428700" lon="2.496023200">
        <ele>191.00</ele>
        <time>2012-11-25T10:09:50Z</time>
      </trkpt>
      <trkpt lat="41.672313600" lon="2.496065500">
        <ele>191.40</ele>
        <time>2012-11-25T10:09:57Z</time>
      </trkpt>
      <trkpt lat="41.672154200" lon="2.496119500">
        <ele>191.90</ele>
        <time>2012-11-25T10:10:04Z</time>
      </trkpt>
      <trkpt lat="41.671946700" lon="2.496198400">
        <ele>191.40</ele>
        <time>2012-11-25T10:10:11Z</time>
      </trkpt>
      <trkpt lat="41.671818700" lon="2.496275700">
        <ele>191.40</ele>
        <time>2012-11-25T10:10:18Z</time>
      </trkpt>
      <trkpt lat="41.671634600" lon="2.496361600">
        <ele>192.40</ele>
        <time>2012-11-25T10:10:25Z</time>
      </trkpt>
      <trkpt lat="41.671442200" lon="2.496507400">
        <ele>192.40</ele>
        <time>2012-11-25T10:10:34Z</time>
      </trkpt>
      <trkpt lat="41.671290400" lon="2.496624300">
        <ele>193.40</ele>
        <time>2012-11-25T10:10:41Z</time>
      </trkpt>
      <trkpt lat="41.671154600" lon="2.496803900">
        <ele>194.30</ele>
        <time>2012-11-25T10:10:49Z</time>
      </trkpt>
      <trkpt lat="41.671095300" lon="2.496882500">
        <ele>194.30</ele>
        <time>2012-11-25T10:10:51Z</time>
      </trkpt>
      <trkpt lat="41.671003000" lon="2.497135700">
        <ele>194.80</ele>
        <time>2012-11-25T10:11:00Z</time>
      </trkpt>
      <trkpt lat="41.670937300" lon="2.497324600">
        <ele>195.30</ele>
        <time>2012-11-25T10:11:07Z</time>
      </trkpt>
      <trkpt lat="41.670821600" lon="2.497551100">
        <ele>195.30</ele>
        <time>2012-11-25T10:11:14Z</time>
      </trkpt>
      <trkpt lat="41.670706700" lon="2.497806300">
        <ele>195.80</ele>
        <time>2012-11-25T10:11:22Z</time>
      </trkpt>
      <trkpt lat="41.670605000" lon="2.497926100">
        <ele>195.30</ele>
        <time>2012-11-25T10:11:28Z</time>
      </trkpt>
      <trkpt lat="41.670540700" lon="2.498073200">
        <ele>195.80</ele>
        <time>2012-11-25T10:11:33Z</time>
      </trkpt>
      <trkpt lat="41.670446000" lon="2.498124400">
        <ele>196.70</ele>
        <time>2012-11-25T10:11:36Z</time>
      </trkpt>
      <trkpt lat="41.670310900" lon="2.498192400">
        <ele>197.70</ele>
        <time>2012-11-25T10:11:43Z</time>
      </trkpt>
      <trkpt lat="41.670148800" lon="2.498245800">
        <ele>197.20</ele>
        <time>2012-11-25T10:11:50Z</time>
      </trkpt>
      <trkpt lat="41.670027000" lon="2.498335200">
        <ele>196.70</ele>
        <time>2012-11-25T10:11:55Z</time>
      </trkpt>
      <trkpt lat="41.669892900" lon="2.498402100">
        <ele>196.70</ele>
        <time>2012-11-25T10:12:01Z</time>
      </trkpt>
      <trkpt lat="41.669717400" lon="2.498426200">
        <ele>197.20</ele>
        <time>2012-11-25T10:12:09Z</time>
      </trkpt>
      <trkpt lat="41.669571100" lon="2.498428600">
        <ele>197.70</ele>
        <time>2012-11-25T10:12:16Z</time>
      </trkpt>
      <trkpt lat="41.669407400" lon="2.498425100">
        <ele>197.70</ele>
        <time>2012-11-25T10:12:23Z</time>
      </trkpt>
      <trkpt lat="41.669354900" lon="2.498416700">
        <ele>197.70</ele>
        <time>2012-11-25T10:12:25Z</time>
      </trkpt>
      <trkpt lat="41.669245800" lon="2.498438500">
        <ele>197.70</ele>
        <time>2012-11-25T10:12:30Z</time>
      </trkpt>
      <trkpt lat="41.668987800" lon="2.498502100">
        <ele>197.70</ele>
        <time>2012-11-25T10:12:39Z</time>
      </trkpt>
      <trkpt lat="41.668865700" lon="2.498579300">
        <ele>198.60</ele>
        <time>2012-11-25T10:12:44Z</time>
      </trkpt>
      <trkpt lat="41.668701600" lon="2.498683800">
        <ele>198.60</ele>
        <time>2012-11-25T10:12:49Z</time>
      </trkpt>
      <trkpt lat="41.668672900" lon="2.498706800">
        <ele>198.60</ele>
        <time>2012-11-25T10:12:51Z</time>
      </trkpt>
      <trkpt lat="41.668487700" lon="2.498736800">
        <ele>200.10</ele>
        <time>2012-11-25T10:12:58Z</time>
      </trkpt>
      <trkpt lat="41.668372900" lon="2.498827000">
        <ele>200.10</ele>
        <time>2012-11-25T10:13:03Z</time>
      </trkpt>
      <trkpt lat="41.668215900" lon="2.498943200">
        <ele>200.60</ele>
        <time>2012-11-25T10:13:10Z</time>
      </trkpt>
      <trkpt lat="41.668158800" lon="2.499004000">
        <ele>200.60</ele>
        <time>2012-11-25T10:13:14Z</time>
      </trkpt>
      <trkpt lat="41.668129300" lon="2.499127300">
        <ele>200.60</ele>
        <time>2012-11-25T10:13:19Z</time>
      </trkpt>
      <trkpt lat="41.668151600" lon="2.499354800">
        <ele>199.60</ele>
        <time>2012-11-25T10:13:23Z</time>
      </trkpt>
      <trkpt lat="41.668140100" lon="2.499626100">
        <ele>200.60</ele>
        <time>2012-11-25T10:13:33Z</time>
      </trkpt>
      <trkpt lat="41.668134800" lon="2.499775600">
        <ele>201.10</ele>
        <time>2012-11-25T10:13:38Z</time>
      </trkpt>
      <trkpt lat="41.668211100" lon="2.500065500">
        <ele>201.50</ele>
        <time>2012-11-25T10:13:47Z</time>
      </trkpt>
      <trkpt lat="41.668227400" lon="2.500360200">
        <ele>202.00</ele>
        <time>2012-11-25T10:13:56Z</time>
      </trkpt>
      <trkpt lat="41.668249300" lon="2.500703500">
        <ele>202.50</ele>
        <time>2012-11-25T10:14:04Z</time>
      </trkpt>
      <trkpt lat="41.668313900" lon="2.501062800">
        <ele>203.50</ele>
        <time>2012-11-25T10:14:13Z</time>
      </trkpt>
      <trkpt lat="41.668395200" lon="2.501454800">
        <ele>203.50</ele>
        <time>2012-11-25T10:14:24Z</time>
      </trkpt>
      <trkpt lat="41.668487800" lon="2.501800900">
        <ele>203.90</ele>
        <time>2012-11-25T10:14:32Z</time>
      </trkpt>
      <trkpt lat="41.668544500" lon="2.502162900">
        <ele>203.90</ele>
        <time>2012-11-25T10:14:41Z</time>
      </trkpt>
      <trkpt lat="41.668629900" lon="2.502447100">
        <ele>203.90</ele>
        <time>2012-11-25T10:14:48Z</time>
      </trkpt>
      <trkpt lat="41.668714800" lon="2.502833100">
        <ele>204.90</ele>
        <time>2012-11-25T10:14:58Z</time>
      </trkpt>
      <trkpt lat="41.668795200" lon="2.503164600">
        <ele>205.90</ele>
        <time>2012-11-25T10:15:07Z</time>
      </trkpt>
      <trkpt lat="41.668888900" lon="2.503508000">
        <ele>205.40</ele>
        <time>2012-11-25T10:15:16Z</time>
      </trkpt>
      <trkpt lat="41.668906500" lon="2.503785300">
        <ele>205.40</ele>
        <time>2012-11-25T10:15:21Z</time>
      </trkpt>
      <trkpt lat="41.668839100" lon="2.504124100">
        <ele>205.90</ele>
        <time>2012-11-25T10:15:30Z</time>
      </trkpt>
      <trkpt lat="41.668759100" lon="2.504440200">
        <ele>206.30</ele>
        <time>2012-11-25T10:15:38Z</time>
      </trkpt>
      <trkpt lat="41.668747300" lon="2.504706300">
        <ele>209.20</ele>
        <time>2012-11-25T10:15:49Z</time>
      </trkpt>
      <trkpt lat="41.668779700" lon="2.504889100">
        <ele>211.10</ele>
        <time>2012-11-25T10:15:56Z</time>
      </trkpt>
      <trkpt lat="41.668817100" lon="2.505001600">
        <ele>212.60</ele>
        <time>2012-11-25T10:16:03Z</time>
      </trkpt>
      <trkpt lat="41.668816900" lon="2.505154000">
        <ele>214.50</ele>
        <time>2012-11-25T10:16:10Z</time>
      </trkpt>
      <trkpt lat="41.668792500" lon="2.505373500">
        <ele>215.90</ele>
        <time>2012-11-25T10:16:18Z</time>
      </trkpt>
      <trkpt lat="41.668814100" lon="2.505623600">
        <ele>217.40</ele>
        <time>2012-11-25T10:16:29Z</time>
      </trkpt>
      <trkpt lat="41.668841300" lon="2.505788900">
        <ele>218.40</ele>
        <time>2012-11-25T10:16:36Z</time>
      </trkpt>
      <trkpt lat="41.668877000" lon="2.506052500">
        <ele>219.30</ele>
        <time>2012-11-25T10:16:46Z</time>
      </trkpt>
      <trkpt lat="41.668880000" lon="2.506213800">
        <ele>220.80</ele>
        <time>2012-11-25T10:16:53Z</time>
      </trkpt>
      <trkpt lat="41.668864300" lon="2.506393500">
        <ele>222.20</ele>
        <time>2012-11-25T10:17:00Z</time>
      </trkpt>
      <trkpt lat="41.668859800" lon="2.506413200">
        <ele>221.70</ele>
        <time>2012-11-25T10:17:02Z</time>
      </trkpt>
      <trkpt lat="41.668802800" lon="2.506616400">
        <ele>220.80</ele>
        <time>2012-11-25T10:17:07Z</time>
      </trkpt>
      <trkpt lat="41.668840300" lon="2.506803200">
        <ele>219.30</ele>
        <time>2012-11-25T10:17:11Z</time>
      </trkpt>
      <trkpt lat="41.668898700" lon="2.506879000">
        <ele>219.80</ele>
        <time>2012-11-25T10:17:16Z</time>
      </trkpt>
      <trkpt lat="41.668965500" lon="2.506985600">
        <ele>219.80</ele>
        <time>2012-11-25T10:17:21Z</time>
      </trkpt>
      <trkpt lat="41.669064400" lon="2.507223100">
        <ele>220.30</ele>
        <time>2012-11-25T10:17:28Z</time>
      </trkpt>
      <trkpt lat="41.669073300" lon="2.507278700">
        <ele>219.80</ele>
        <time>2012-11-25T10:17:30Z</time>
      </trkpt>
      <trkpt lat="41.669004300" lon="2.507751200">
        <ele>217.40</ele>
        <time>2012-11-25T10:17:35Z</time>
      </trkpt>
      <trkpt lat="41.668945600" lon="2.508043900">
        <ele>216.40</ele>
        <time>2012-11-25T10:17:40Z</time>
      </trkpt>
      <trkpt lat="41.669062700" lon="2.508308100">
        <ele>215.50</ele>
        <time>2012-11-25T10:17:46Z</time>
      </trkpt>
      <trkpt lat="41.669127300" lon="2.508643200">
        <ele>215.90</ele>
        <time>2012-11-25T10:17:54Z</time>
      </trkpt>
      <trkpt lat="41.669187300" lon="2.508963300">
        <ele>215.50</ele>
        <time>2012-11-25T10:18:01Z</time>
      </trkpt>
      <trkpt lat="41.669199600" lon="2.509007100">
        <ele>215.00</ele>
        <time>2012-11-25T10:18:01Z</time>
      </trkpt>
      <trkpt lat="41.669160400" lon="2.509206400">
        <ele>215.50</ele>
        <time>2012-11-25T10:18:08Z</time>
      </trkpt>
      <trkpt lat="41.669151200" lon="2.509237500">
        <ele>215.90</ele>
        <time>2012-11-25T10:18:08Z</time>
      </trkpt>
      <trkpt lat="41.669109900" lon="2.509526900">
        <ele>217.90</ele>
        <time>2012-11-25T10:18:17Z</time>
      </trkpt>
      <trkpt lat="41.669118400" lon="2.509768400">
        <ele>218.40</ele>
        <time>2012-11-25T10:18:24Z</time>
      </trkpt>
      <trkpt lat="41.669105800" lon="2.509864300">
        <ele>219.30</ele>
        <time>2012-11-25T10:18:29Z</time>
      </trkpt>
      <trkpt lat="41.669051000" lon="2.509918000">
        <ele>219.80</ele>
        <time>2012-11-25T10:18:34Z</time>
      </trkpt>
      <trkpt lat="41.668994700" lon="2.509891400">
        <ele>220.30</ele>
        <time>2012-11-25T10:18:41Z</time>
      </trkpt>
      <trkpt lat="41.668953300" lon="2.509956600">
        <ele>220.30</ele>
        <time>2012-11-25T10:18:45Z</time>
      </trkpt>
      <trkpt lat="41.668827200" lon="2.510137300">
        <ele>221.70</ele>
        <time>2012-11-25T10:18:55Z</time>
      </trkpt>
      <trkpt lat="41.668699600" lon="2.510252800">
        <ele>223.20</ele>
        <time>2012-11-25T10:19:02Z</time>
      </trkpt>
      <trkpt lat="41.668511400" lon="2.510375900">
        <ele>225.10</ele>
        <time>2012-11-25T10:19:11Z</time>
      </trkpt>
      <trkpt lat="41.668356500" lon="2.510493400">
        <ele>226.50</ele>
        <time>2012-11-25T10:19:18Z</time>
      </trkpt>
      <trkpt lat="41.668120800" lon="2.510608700">
        <ele>227.50</ele>
        <time>2012-11-25T10:19:30Z</time>
      </trkpt>
      <trkpt lat="41.667944900" lon="2.510642400">
        <ele>228.90</ele>
        <time>2012-11-25T10:19:37Z</time>
      </trkpt>
      <trkpt lat="41.667769800" lon="2.510760800">
        <ele>229.40</ele>
        <time>2012-11-25T10:19:46Z</time>
      </trkpt>
      <trkpt lat="41.667741300" lon="2.510789800">
        <ele>229.40</ele>
        <time>2012-11-25T10:19:47Z</time>
      </trkpt>
      <trkpt lat="41.667654900" lon="2.511005900">
        <ele>228.40</ele>
        <time>2012-11-25T10:19:53Z</time>
      </trkpt>
      <trkpt lat="41.667591500" lon="2.511187500">
        <ele>231.80</ele>
        <time>2012-11-25T10:20:00Z</time>
      </trkpt>
      <trkpt lat="41.667509100" lon="2.511368300">
        <ele>232.80</ele>
        <time>2012-11-25T10:20:08Z</time>
      </trkpt>
      <trkpt lat="41.667378000" lon="2.511603600">
        <ele>232.80</ele>
        <time>2012-11-25T10:20:17Z</time>
      </trkpt>
      <trkpt lat="41.667301500" lon="2.511751300">
        <ele>235.20</ele>
        <time>2012-11-25T10:20:24Z</time>
      </trkpt>
      <trkpt lat="41.667191700" lon="2.512011500">
        <ele>236.10</ele>
        <time>2012-11-25T10:20:35Z</time>
      </trkpt>
      <trkpt lat="41.667154100" lon="2.512233000">
        <ele>236.60</ele>
        <time>2012-11-25T10:20:42Z</time>
      </trkpt>
      <trkpt lat="41.667071900" lon="2.512418500">
        <ele>237.60</ele>
        <time>2012-11-25T10:20:50Z</time>
      </trkpt>
      <trkpt lat="41.666941300" lon="2.512446900">
        <ele>237.60</ele>
        <time>2012-11-25T10:20:54Z</time>
      </trkpt>
      <trkpt lat="41.666894600" lon="2.512443200">
        <ele>237.10</ele>
        <time>2012-11-25T10:20:55Z</time>
      </trkpt>
      <trkpt lat="41.666724800" lon="2.512502800">
        <ele>238.10</ele>
        <time>2012-11-25T10:21:01Z</time>
      </trkpt>
      <trkpt lat="41.666708200" lon="2.512505300">
        <ele>238.50</ele>
        <time>2012-11-25T10:21:02Z</time>
      </trkpt>
      <trkpt lat="41.666648100" lon="2.512566900">
        <ele>236.60</ele>
        <time>2012-11-25T10:21:08Z</time>
      </trkpt>
      <trkpt lat="41.666632000" lon="2.512651300">
        <ele>234.70</ele>
        <time>2012-11-25T10:21:13Z</time>
      </trkpt>
      <trkpt lat="41.666573200" lon="2.512718600">
        <ele>230.90</ele>
        <time>2012-11-25T10:21:16Z</time>
      </trkpt>
      <trkpt lat="41.666548700" lon="2.512728100">
        <ele>230.40</ele>
        <time>2012-11-25T10:21:18Z</time>
      </trkpt>
      <trkpt lat="41.666415400" lon="2.512643400">
        <ele>230.90</ele>
        <time>2012-11-25T10:21:27Z</time>
      </trkpt>
      <trkpt lat="41.666287400" lon="2.512567900">
        <ele>231.80</ele>
        <time>2012-11-25T10:21:34Z</time>
      </trkpt>
      <trkpt lat="41.666170400" lon="2.512487000">
        <ele>233.30</ele>
        <time>2012-11-25T10:21:41Z</time>
      </trkpt>
      <trkpt lat="41.666141900" lon="2.512470500">
        <ele>233.30</ele>
        <time>2012-11-25T10:21:42Z</time>
      </trkpt>
      <trkpt lat="41.666056200" lon="2.512390600">
        <ele>234.20</ele>
        <time>2012-11-25T10:21:48Z</time>
      </trkpt>
      <trkpt lat="41.665950200" lon="2.512385500">
        <ele>235.20</ele>
        <time>2012-11-25T10:21:55Z</time>
      </trkpt>
      <trkpt lat="41.665910300" lon="2.512373700">
        <ele>235.70</ele>
        <time>2012-11-25T10:21:58Z</time>
      </trkpt>
      <trkpt lat="41.665806500" lon="2.512397800">
        <ele>237.60</ele>
        <time>2012-11-25T10:22:07Z</time>
      </trkpt>
      <trkpt lat="41.665750200" lon="2.512452600">
        <ele>239.50</ele>
        <time>2012-11-25T10:22:12Z</time>
      </trkpt>
      <trkpt lat="41.665793700" lon="2.512570500">
        <ele>241.90</ele>
        <time>2012-11-25T10:22:21Z</time>
      </trkpt>
      <trkpt lat="41.665829300" lon="2.512685200">
        <ele>244.80</ele>
        <time>2012-11-25T10:22:30Z</time>
      </trkpt>
      <trkpt lat="41.665820600" lon="2.512712500">
        <ele>244.80</ele>
        <time>2012-11-25T10:22:33Z</time>
      </trkpt>
      <trkpt lat="41.665802900" lon="2.512717300">
        <ele>245.30</ele>
        <time>2012-11-25T10:22:35Z</time>
      </trkpt>
      <trkpt lat="41.665715200" lon="2.512663600">
        <ele>246.20</ele>
        <time>2012-11-25T10:22:43Z</time>
      </trkpt>
      <trkpt lat="41.665626700" lon="2.512582400">
        <ele>247.20</ele>
        <time>2012-11-25T10:22:52Z</time>
      </trkpt>
      <trkpt lat="41.665521300" lon="2.512507100">
        <ele>249.10</ele>
        <time>2012-11-25T10:23:03Z</time>
      </trkpt>
      <trkpt lat="41.665468100" lon="2.512402600">
        <ele>250.10</ele>
        <time>2012-11-25T10:23:11Z</time>
      </trkpt>
      <trkpt lat="41.665412300" lon="2.512265000">
        <ele>250.60</ele>
        <time>2012-11-25T10:23:18Z</time>
      </trkpt>
      <trkpt lat="41.665347300" lon="2.512151400">
        <ele>250.60</ele>
        <time>2012-11-25T10:23:25Z</time>
      </trkpt>
      <trkpt lat="41.665320200" lon="2.512115900">
        <ele>251.00</ele>
        <time>2012-11-25T10:23:27Z</time>
      </trkpt>
      <trkpt lat="41.665195900" lon="2.511987200">
        <ele>252.00</ele>
        <time>2012-11-25T10:23:36Z</time>
      </trkpt>
      <trkpt lat="41.665142900" lon="2.511940200">
        <ele>253.00</ele>
        <time>2012-11-25T10:23:41Z</time>
      </trkpt>
      <trkpt lat="41.665029600" lon="2.511806200">
        <ele>253.90</ele>
        <time>2012-11-25T10:23:50Z</time>
      </trkpt>
      <trkpt lat="41.664939600" lon="2.511691700">
        <ele>255.40</ele>
        <time>2012-11-25T10:23:57Z</time>
      </trkpt>
      <trkpt lat="41.664847100" lon="2.511605800">
        <ele>255.90</ele>
        <time>2012-11-25T10:24:04Z</time>
      </trkpt>
      <trkpt lat="41.664730700" lon="2.511518800">
        <ele>257.30</ele>
        <time>2012-11-25T10:24:12Z</time>
      </trkpt>
      <trkpt lat="41.664620100" lon="2.511407600">
        <ele>258.70</ele>
        <time>2012-11-25T10:24:21Z</time>
      </trkpt>
      <trkpt lat="41.664533400" lon="2.511302300">
        <ele>260.20</ele>
        <time>2012-11-25T10:24:28Z</time>
      </trkpt>
      <trkpt lat="41.664429300" lon="2.511129900">
        <ele>262.10</ele>
        <time>2012-11-25T10:24:37Z</time>
      </trkpt>
      <trkpt lat="41.664421800" lon="2.511114100">
        <ele>262.60</ele>
        <time>2012-11-25T10:24:38Z</time>
      </trkpt>
      <trkpt lat="41.664357100" lon="2.510988200">
        <ele>264.00</ele>
        <time>2012-11-25T10:24:45Z</time>
      </trkpt>
      <trkpt lat="41.664283300" lon="2.510870700">
        <ele>265.50</ele>
        <time>2012-11-25T10:24:52Z</time>
      </trkpt>
      <trkpt lat="41.664207200" lon="2.510770800">
        <ele>266.90</ele>
        <time>2012-11-25T10:24:59Z</time>
      </trkpt>
      <trkpt lat="41.664046000" lon="2.510477600">
        <ele>270.80</ele>
        <time>2012-11-25T10:25:17Z</time>
      </trkpt>
      <trkpt lat="41.663961500" lon="2.510298900">
        <ele>273.10</ele>
        <time>2012-11-25T10:25:27Z</time>
      </trkpt>
      <trkpt lat="41.663926800" lon="2.510171300">
        <ele>274.60</ele>
        <time>2012-11-25T10:25:36Z</time>
      </trkpt>
      <trkpt lat="41.663887000" lon="2.509993100">
        <ele>277.00</ele>
        <time>2012-11-25T10:25:45Z</time>
      </trkpt>
      <trkpt lat="41.663825900" lon="2.509860200">
        <ele>277.50</ele>
        <time>2012-11-25T10:25:50Z</time>
      </trkpt>
      <trkpt lat="41.663801000" lon="2.509821200">
        <ele>278.00</ele>
        <time>2012-11-25T10:25:53Z</time>
      </trkpt>
      <trkpt lat="41.663738100" lon="2.509665200">
        <ele>279.40</ele>
        <time>2012-11-25T10:26:00Z</time>
      </trkpt>
      <trkpt lat="41.663659900" lon="2.509506700">
        <ele>281.80</ele>
        <time>2012-11-25T10:26:11Z</time>
      </trkpt>
      <trkpt lat="41.663565100" lon="2.509367600">
        <ele>283.70</ele>
        <time>2012-11-25T10:26:19Z</time>
      </trkpt>
      <trkpt lat="41.663488200" lon="2.509224100">
        <ele>285.60</ele>
        <time>2012-11-25T10:26:28Z</time>
      </trkpt>
      <trkpt lat="41.663435600" lon="2.509109400">
        <ele>288.00</ele>
        <time>2012-11-25T10:26:37Z</time>
      </trkpt>
      <trkpt lat="41.663368000" lon="2.508944500">
        <ele>289.00</ele>
        <time>2012-11-25T10:26:46Z</time>
      </trkpt>
      <trkpt lat="41.663345100" lon="2.508776500">
        <ele>289.50</ele>
        <time>2012-11-25T10:26:54Z</time>
      </trkpt>
      <trkpt lat="41.663336100" lon="2.508578000">
        <ele>291.40</ele>
        <time>2012-11-25T10:27:03Z</time>
      </trkpt>
      <trkpt lat="41.663293400" lon="2.508439500">
        <ele>292.90</ele>
        <time>2012-11-25T10:27:12Z</time>
      </trkpt>
      <trkpt lat="41.663278100" lon="2.508224700">
        <ele>293.30</ele>
        <time>2012-11-25T10:27:20Z</time>
      </trkpt>
      <trkpt lat="41.663279300" lon="2.508199200">
        <ele>293.30</ele>
        <time>2012-11-25T10:27:22Z</time>
      </trkpt>
      <trkpt lat="41.663284600" lon="2.508102200">
        <ele>293.80</ele>
        <time>2012-11-25T10:27:26Z</time>
      </trkpt>
      <trkpt lat="41.663302600" lon="2.507902700">
        <ele>294.80</ele>
        <time>2012-11-25T10:27:34Z</time>
      </trkpt>
      <trkpt lat="41.663261400" lon="2.507751500">
        <ele>295.70</ele>
        <time>2012-11-25T10:27:41Z</time>
      </trkpt>
      <trkpt lat="41.663185500" lon="2.507612700">
        <ele>297.20</ele>
        <time>2012-11-25T10:27:50Z</time>
      </trkpt>
      <trkpt lat="41.663110500" lon="2.507487600">
        <ele>299.10</ele>
        <time>2012-11-25T10:27:57Z</time>
      </trkpt>
      <trkpt lat="41.663062800" lon="2.507352400">
        <ele>301.00</ele>
        <time>2012-11-25T10:28:06Z</time>
      </trkpt>
      <trkpt lat="41.663014100" lon="2.507177900">
        <ele>302.50</ele>
        <time>2012-11-25T10:28:14Z</time>
      </trkpt>
      <trkpt lat="41.662964600" lon="2.506972200">
        <ele>304.40</ele>
        <time>2012-11-25T10:28:25Z</time>
      </trkpt>
      <trkpt lat="41.662934400" lon="2.506765300">
        <ele>305.80</ele>
        <time>2012-11-25T10:28:35Z</time>
      </trkpt>
      <trkpt lat="41.662926700" lon="2.506731100">
        <ele>306.30</ele>
        <time>2012-11-25T10:28:37Z</time>
      </trkpt>
      <trkpt lat="41.662900000" lon="2.506636900">
        <ele>307.80</ele>
        <time>2012-11-25T10:28:42Z</time>
      </trkpt>
      <trkpt lat="41.662906800" lon="2.506549100">
        <ele>307.80</ele>
        <time>2012-11-25T10:28:46Z</time>
      </trkpt>
      <trkpt lat="41.662983300" lon="2.506371500">
        <ele>309.20</ele>
        <time>2012-11-25T10:28:56Z</time>
      </trkpt>
      <trkpt lat="41.662986100" lon="2.506335800">
        <ele>309.70</ele>
        <time>2012-11-25T10:28:58Z</time>
      </trkpt>
      <trkpt lat="41.662938200" lon="2.506295200">
        <ele>310.20</ele>
        <time>2012-11-25T10:29:03Z</time>
      </trkpt>
      <trkpt lat="41.662780000" lon="2.506229900">
        <ele>310.60</ele>
        <time>2012-11-25T10:29:14Z</time>
      </trkpt>
      <trkpt lat="41.662615700" lon="2.506207300">
        <ele>311.60</ele>
        <time>2012-11-25T10:29:22Z</time>
      </trkpt>
      <trkpt lat="41.662423500" lon="2.506254100">
        <ele>312.10</ele>
        <time>2012-11-25T10:29:33Z</time>
      </trkpt>
      <trkpt lat="41.662258900" lon="2.506237800">
        <ele>312.10</ele>
        <time>2012-11-25T10:29:40Z</time>
      </trkpt>
      <trkpt lat="41.662134300" lon="2.506145300">
        <ele>311.60</ele>
        <time>2012-11-25T10:29:45Z</time>
      </trkpt>
      <trkpt lat="41.662100100" lon="2.506096200">
        <ele>311.60</ele>
        <time>2012-11-25T10:29:47Z</time>
      </trkpt>
      <trkpt lat="41.662006500" lon="2.505852100">
        <ele>312.60</ele>
        <time>2012-11-25T10:29:57Z</time>
      </trkpt>
      <trkpt lat="41.661902300" lon="2.505619300">
        <ele>312.60</ele>
        <time>2012-11-25T10:30:04Z</time>
      </trkpt>
      <trkpt lat="41.661758200" lon="2.505430900">
        <ele>313.50</ele>
        <time>2012-11-25T10:30:13Z</time>
      </trkpt>
      <trkpt lat="41.661589100" lon="2.505249200">
        <ele>314.50</ele>
        <time>2012-11-25T10:30:22Z</time>
      </trkpt>
      <trkpt lat="41.661460400" lon="2.505170700">
        <ele>315.90</ele>
        <time>2012-11-25T10:30:29Z</time>
      </trkpt>
      <trkpt lat="41.661417600" lon="2.505159100">
        <ele>316.40</ele>
        <time>2012-11-25T10:30:32Z</time>
      </trkpt>
      <trkpt lat="41.661371500" lon="2.505133000">
        <ele>316.40</ele>
        <time>2012-11-25T10:30:37Z</time>
      </trkpt>
      <trkpt lat="41.661352400" lon="2.505145800">
        <ele>316.40</ele>
        <time>2012-11-25T10:30:51Z</time>
      </trkpt>
      <trkpt lat="41.661323900" lon="2.505138100">
        <ele>316.40</ele>
        <time>2012-11-25T10:31:00Z</time>
      </trkpt>
      <trkpt lat="41.661221400" lon="2.505137800">
        <ele>315.90</ele>
        <time>2012-11-25T10:31:07Z</time>
      </trkpt>
      <trkpt lat="41.661018800" lon="2.505142300">
        <ele>315.90</ele>
        <time>2012-11-25T10:31:14Z</time>
      </trkpt>
      <trkpt lat="41.660800200" lon="2.505098200">
        <ele>315.90</ele>
        <time>2012-11-25T10:31:24Z</time>
      </trkpt>
      <trkpt lat="41.660583900" lon="2.505059600">
        <ele>315.90</ele>
        <time>2012-11-25T10:31:31Z</time>
      </trkpt>
      <trkpt lat="41.660410300" lon="2.505103500">
        <ele>316.40</ele>
        <time>2012-11-25T10:31:38Z</time>
      </trkpt>
      <trkpt lat="41.660213300" lon="2.505152300">
        <ele>316.40</ele>
        <time>2012-11-25T10:31:47Z</time>
      </trkpt>
      <trkpt lat="41.660009900" lon="2.505168500">
        <ele>316.90</ele>
        <time>2012-11-25T10:31:54Z</time>
      </trkpt>
      <trkpt lat="41.659820100" lon="2.505152900">
        <ele>317.40</ele>
        <time>2012-11-25T10:32:03Z</time>
      </trkpt>
      <trkpt lat="41.659668200" lon="2.505225600">
        <ele>317.90</ele>
        <time>2012-11-25T10:32:10Z</time>
      </trkpt>
      <trkpt lat="41.659528800" lon="2.505369700">
        <ele>318.30</ele>
        <time>2012-11-25T10:32:18Z</time>
      </trkpt>
      <trkpt lat="41.659459000" lon="2.505527500">
        <ele>319.30</ele>
        <time>2012-11-25T10:32:25Z</time>
      </trkpt>
      <trkpt lat="41.659359800" lon="2.505634400">
        <ele>319.30</ele>
        <time>2012-11-25T10:32:30Z</time>
      </trkpt>
      <trkpt lat="41.659172100" lon="2.505655700">
        <ele>319.30</ele>
        <time>2012-11-25T10:32:37Z</time>
      </trkpt>
      <trkpt lat="41.658955000" lon="2.505559000">
        <ele>319.80</ele>
        <time>2012-11-25T10:32:46Z</time>
      </trkpt>
      <trkpt lat="41.658814800" lon="2.505428900">
        <ele>320.30</ele>
        <time>2012-11-25T10:32:53Z</time>
      </trkpt>
      <trkpt lat="41.658634800" lon="2.505289500">
        <ele>320.70</ele>
        <time>2012-11-25T10:33:02Z</time>
      </trkpt>
      <trkpt lat="41.658486500" lon="2.505121200">
        <ele>321.20</ele>
        <time>2012-11-25T10:33:09Z</time>
      </trkpt>
      <trkpt lat="41.658405400" lon="2.505035600">
        <ele>320.70</ele>
        <time>2012-11-25T10:33:12Z</time>
      </trkpt>
      <trkpt lat="41.658181100" lon="2.504930100">
        <ele>319.80</ele>
        <time>2012-11-25T10:33:18Z</time>
      </trkpt>
      <trkpt lat="41.658079600" lon="2.504909400">
        <ele>319.30</ele>
        <time>2012-11-25T10:33:19Z</time>
      </trkpt>
      <trkpt lat="41.657634700" lon="2.504849100">
        <ele>318.30</ele>
        <time>2012-11-25T10:33:28Z</time>
      </trkpt>
      <trkpt lat="41.657359000" lon="2.504971500">
        <ele>317.40</ele>
        <time>2012-11-25T10:33:33Z</time>
      </trkpt>
      <trkpt lat="41.657257800" lon="2.505064000">
        <ele>317.40</ele>
        <time>2012-11-25T10:33:35Z</time>
      </trkpt>
      <trkpt lat="41.656942500" lon="2.505597500">
        <ele>315.00</ele>
        <time>2012-11-25T10:33:42Z</time>
      </trkpt>
      <trkpt lat="41.656819000" lon="2.505929000">
        <ele>312.60</ele>
        <time>2012-11-25T10:33:47Z</time>
      </trkpt>
      <trkpt lat="41.656596500" lon="2.506239000">
        <ele>310.20</ele>
        <time>2012-11-25T10:33:51Z</time>
      </trkpt>
      <trkpt lat="41.656350600" lon="2.506467300">
        <ele>307.80</ele>
        <time>2012-11-25T10:33:54Z</time>
      </trkpt>
      <trkpt lat="41.655974200" lon="2.506668300">
        <ele>305.80</ele>
        <time>2012-11-25T10:33:58Z</time>
      </trkpt>
      <trkpt lat="41.655688400" lon="2.506712900">
        <ele>305.40</ele>
        <time>2012-11-25T10:34:01Z</time>
      </trkpt>
      <trkpt lat="41.655400100" lon="2.506677600">
        <ele>307.30</ele>
        <time>2012-11-25T10:34:06Z</time>
      </trkpt>
      <trkpt lat="41.655254300" lon="2.506646300">
        <ele>309.20</ele>
        <time>2012-11-25T10:34:12Z</time>
      </trkpt>
      <trkpt lat="41.655070200" lon="2.506567400">
        <ele>311.10</ele>
        <time>2012-11-25T10:34:20Z</time>
      </trkpt>
      <trkpt lat="41.654872700" lon="2.506431700">
        <ele>311.60</ele>
        <time>2012-11-25T10:34:29Z</time>
      </trkpt>
      <trkpt lat="41.654821900" lon="2.506426300">
        <ele>311.10</ele>
        <time>2012-11-25T10:34:31Z</time>
      </trkpt>
      <trkpt lat="41.654758300" lon="2.506590500">
        <ele>310.60</ele>
        <time>2012-11-25T10:34:38Z</time>
      </trkpt>
      <trkpt lat="41.654700500" lon="2.506747900">
        <ele>310.60</ele>
        <time>2012-11-25T10:34:41Z</time>
      </trkpt>
      <trkpt lat="41.654536200" lon="2.507273900">
        <ele>309.20</ele>
        <time>2012-11-25T10:34:52Z</time>
      </trkpt>
      <trkpt lat="41.654514500" lon="2.507354200">
        <ele>308.70</ele>
        <time>2012-11-25T10:34:53Z</time>
      </trkpt>
      <trkpt lat="41.654591500" lon="2.507460200">
        <ele>308.70</ele>
        <time>2012-11-25T10:34:59Z</time>
      </trkpt>
      <trkpt lat="41.654618700" lon="2.507465300">
        <ele>309.20</ele>
        <time>2012-11-25T10:35:00Z</time>
      </trkpt>
      <trkpt lat="41.654811600" lon="2.507512300">
        <ele>312.60</ele>
        <time>2012-11-25T10:35:09Z</time>
      </trkpt>
      <trkpt lat="41.654989600" lon="2.507482300">
        <ele>312.60</ele>
        <time>2012-11-25T10:35:16Z</time>
      </trkpt>
      <trkpt lat="41.655184900" lon="2.507354700">
        <ele>312.10</ele>
        <time>2012-11-25T10:35:21Z</time>
      </trkpt>
      <trkpt lat="41.655227700" lon="2.507328100">
        <ele>311.60</ele>
        <time>2012-11-25T10:35:21Z</time>
      </trkpt>
      <trkpt lat="41.655430900" lon="2.507326100">
        <ele>309.70</ele>
        <time>2012-11-25T10:35:26Z</time>
      </trkpt>
      <trkpt lat="41.655477600" lon="2.507396600">
        <ele>309.20</ele>
        <time>2012-11-25T10:35:28Z</time>
      </trkpt>
      <trkpt lat="41.655589900" lon="2.507722200">
        <ele>308.20</ele>
        <time>2012-11-25T10:35:35Z</time>
      </trkpt>
      <trkpt lat="41.655706600" lon="2.507920400">
        <ele>307.30</ele>
        <time>2012-11-25T10:35:40Z</time>
      </trkpt>
      <trkpt lat="41.655874300" lon="2.507999700">
        <ele>306.30</ele>
        <time>2012-11-25T10:35:46Z</time>
      </trkpt>
      <trkpt lat="41.656033600" lon="2.507899200">
        <ele>305.40</ele>
        <time>2012-11-25T10:35:51Z</time>
      </trkpt>
      <trkpt lat="41.656098300" lon="2.507715200">
        <ele>304.40</ele>
        <time>2012-11-25T10:35:54Z</time>
      </trkpt>
      <trkpt lat="41.656224000" lon="2.507584700">
        <ele>303.40</ele>
        <time>2012-11-25T10:35:58Z</time>
      </trkpt>
      <trkpt lat="41.656415700" lon="2.507581200">
        <ele>302.50</ele>
        <time>2012-11-25T10:36:05Z</time>
      </trkpt>
      <trkpt lat="41.656470400" lon="2.507619600">
        <ele>302.50</ele>
        <time>2012-11-25T10:36:06Z</time>
      </trkpt>
      <trkpt lat="41.656652300" lon="2.507862000">
        <ele>300.10</ele>
        <time>2012-11-25T10:36:13Z</time>
      </trkpt>
      <trkpt lat="41.656677700" lon="2.507944700">
        <ele>299.60</ele>
        <time>2012-11-25T10:36:15Z</time>
      </trkpt>
      <trkpt lat="41.656689300" lon="2.507995200">
        <ele>299.10</ele>
        <time>2012-11-25T10:36:17Z</time>
      </trkpt>
      <trkpt lat="41.656717500" lon="2.508335500">
        <ele>297.70</ele>
        <time>2012-11-25T10:36:22Z</time>
      </trkpt>
      <trkpt lat="41.656705700" lon="2.508503300">
        <ele>297.20</ele>
        <time>2012-11-25T10:36:24Z</time>
      </trkpt>
      <trkpt lat="41.656683700" lon="2.508830100">
        <ele>295.30</ele>
        <time>2012-11-25T10:36:27Z</time>
      </trkpt>
      <trkpt lat="41.656714800" lon="2.509083900">
        <ele>291.90</ele>
        <time>2012-11-25T10:36:31Z</time>
      </trkpt>
      <trkpt lat="41.656727900" lon="2.509143800">
        <ele>290.50</ele>
        <time>2012-11-25T10:36:36Z</time>
      </trkpt>
      <trkpt lat="41.656734100" lon="2.509174700">
        <ele>290.00</ele>
        <time>2012-11-25T10:36:43Z</time>
      </trkpt>
      <trkpt lat="41.656748400" lon="2.509212600">
        <ele>290.50</ele>
        <time>2012-11-25T10:36:50Z</time>
      </trkpt>
      <trkpt lat="41.656741400" lon="2.509236600">
        <ele>290.50</ele>
        <time>2012-11-25T10:36:54Z</time>
      </trkpt>
      <trkpt lat="41.656609600" lon="2.509265200">
        <ele>289.50</ele>
        <time>2012-11-25T10:36:59Z</time>
      </trkpt>
      <trkpt lat="41.656528900" lon="2.509255000">
        <ele>288.50</ele>
        <time>2012-11-25T10:37:00Z</time>
      </trkpt>
      <trkpt lat="41.656407400" lon="2.509248300">
        <ele>287.10</ele>
        <time>2012-11-25T10:37:04Z</time>
      </trkpt>
      <trkpt lat="41.656246600" lon="2.509166900">
        <ele>285.20</ele>
        <time>2012-11-25T10:37:09Z</time>
      </trkpt>
      <trkpt lat="41.656173600" lon="2.508909400">
        <ele>282.80</ele>
        <time>2012-11-25T10:37:14Z</time>
      </trkpt>
      <trkpt lat="41.656026900" lon="2.508862400">
        <ele>280.80</ele>
        <time>2012-11-25T10:37:21Z</time>
      </trkpt>
      <trkpt lat="41.655783100" lon="2.508903300">
        <ele>278.00</ele>
        <time>2012-11-25T10:37:30Z</time>
      </trkpt>
      <trkpt lat="41.655593000" lon="2.508932100">
        <ele>276.50</ele>
        <time>2012-11-25T10:37:35Z</time>
      </trkpt>
      <trkpt lat="41.655553100" lon="2.508934300">
        <ele>276.00</ele>
        <time>2012-11-25T10:37:35Z</time>
      </trkpt>
      <trkpt lat="41.655452800" lon="2.509068500">
        <ele>274.60</ele>
        <time>2012-11-25T10:37:39Z</time>
      </trkpt>
      <trkpt lat="41.655422200" lon="2.509390700">
        <ele>273.60</ele>
        <time>2012-11-25T10:37:46Z</time>
      </trkpt>
      <trkpt lat="41.655277800" lon="2.509595800">
        <ele>273.10</ele>
        <time>2012-11-25T10:37:51Z</time>
      </trkpt>
      <trkpt lat="41.655148900" lon="2.509618900">
        <ele>272.70</ele>
        <time>2012-11-25T10:37:53Z</time>
      </trkpt>
      <trkpt lat="41.655064700" lon="2.509604100">
        <ele>272.70</ele>
        <time>2012-11-25T10:37:56Z</time>
      </trkpt>
      <trkpt lat="41.654861300" lon="2.509736200">
        <ele>271.70</ele>
        <time>2012-11-25T10:38:00Z</time>
      </trkpt>
      <trkpt lat="41.654683000" lon="2.509834000">
        <ele>271.20</ele>
        <time>2012-11-25T10:38:05Z</time>
      </trkpt>
      <trkpt lat="41.654541600" lon="2.509793300">
        <ele>270.80</ele>
        <time>2012-11-25T10:38:07Z</time>
      </trkpt>
      <trkpt lat="41.654289000" lon="2.509800400">
        <ele>269.80</ele>
        <time>2012-11-25T10:38:14Z</time>
      </trkpt>
      <trkpt lat="41.654262400" lon="2.509897100">
        <ele>269.30</ele>
        <time>2012-11-25T10:38:17Z</time>
      </trkpt>
      <trkpt lat="41.654244000" lon="2.510006600">
        <ele>268.80</ele>
        <time>2012-11-25T10:38:19Z</time>
      </trkpt>
      <trkpt lat="41.654216600" lon="2.510130200">
        <ele>268.40</ele>
        <time>2012-11-25T10:38:21Z</time>
      </trkpt>
      <trkpt lat="41.654114800" lon="2.510378800">
        <ele>266.90</ele>
        <time>2012-11-25T10:38:24Z</time>
      </trkpt>
      <trkpt lat="41.653803900" lon="2.510791100">
        <ele>263.10</ele>
        <time>2012-11-25T10:38:31Z</time>
      </trkpt>
      <trkpt lat="41.653596200" lon="2.511041700">
        <ele>259.70</ele>
        <time>2012-11-25T10:38:36Z</time>
      </trkpt>
      <trkpt lat="41.653553100" lon="2.511102200">
        <ele>258.70</ele>
        <time>2012-11-25T10:38:36Z</time>
      </trkpt>
      <trkpt lat="41.653304000" lon="2.511303800">
        <ele>255.90</ele>
        <time>2012-11-25T10:38:42Z</time>
      </trkpt>
      <trkpt lat="41.653120100" lon="2.511374900">
        <ele>253.90</ele>
        <time>2012-11-25T10:38:45Z</time>
      </trkpt>
      <trkpt lat="41.653024400" lon="2.511355300">
        <ele>253.00</ele>
        <time>2012-11-25T10:38:47Z</time>
      </trkpt>
      <trkpt lat="41.652616000" lon="2.511202200">
        <ele>248.60</ele>
        <time>2012-11-25T10:38:54Z</time>
      </trkpt>
      <trkpt lat="41.652162800" lon="2.511121500">
        <ele>245.30</ele>
        <time>2012-11-25T10:38:59Z</time>
      </trkpt>
      <trkpt lat="41.651832300" lon="2.511050200">
        <ele>243.40</ele>
        <time>2012-11-25T10:39:02Z</time>
      </trkpt>
      <trkpt lat="41.651380900" lon="2.510938200">
        <ele>239.50</ele>
        <time>2012-11-25T10:39:09Z</time>
      </trkpt>
      <trkpt lat="41.651197000" lon="2.511047800">
        <ele>238.50</ele>
        <time>2012-11-25T10:39:11Z</time>
      </trkpt>
      <trkpt lat="41.651068900" lon="2.511144100">
        <ele>238.10</ele>
        <time>2012-11-25T10:39:13Z</time>
      </trkpt>
      <trkpt lat="41.650941400" lon="2.511209700">
        <ele>237.60</ele>
        <time>2012-11-25T10:39:16Z</time>
      </trkpt>
      <trkpt lat="41.650674600" lon="2.511190200">
        <ele>236.10</ele>
        <time>2012-11-25T10:39:20Z</time>
      </trkpt>
      <trkpt lat="41.650469000" lon="2.510986900">
        <ele>234.70</ele>
        <time>2012-11-25T10:39:25Z</time>
      </trkpt>
      <trkpt lat="41.650123200" lon="2.510825000">
        <ele>232.80</ele>
        <time>2012-11-25T10:39:30Z</time>
      </trkpt>
      <trkpt lat="41.649735700" lon="2.510698500">
        <ele>229.90</ele>
        <time>2012-11-25T10:39:34Z</time>
      </trkpt>
      <trkpt lat="41.649658300" lon="2.510670600">
        <ele>229.90</ele>
        <time>2012-11-25T10:39:35Z</time>
      </trkpt>
      <trkpt lat="41.649587300" lon="2.510643700">
        <ele>228.40</ele>
        <time>2012-11-25T10:39:37Z</time>
      </trkpt>
      <trkpt lat="41.649331900" lon="2.510505500">
        <ele>225.60</ele>
        <time>2012-11-25T10:39:41Z</time>
      </trkpt>
      <trkpt lat="41.649203000" lon="2.510468800">
        <ele>225.10</ele>
        <time>2012-11-25T10:39:42Z</time>
      </trkpt>
      <trkpt lat="41.649067800" lon="2.510490300">
        <ele>223.60</ele>
        <time>2012-11-25T10:39:46Z</time>
      </trkpt>
      <trkpt lat="41.648935600" lon="2.510690600">
        <ele>222.70</ele>
        <time>2012-11-25T10:39:51Z</time>
      </trkpt>
      <trkpt lat="41.648752500" lon="2.510810500">
        <ele>223.60</ele>
        <time>2012-11-25T10:39:56Z</time>
      </trkpt>
      <trkpt lat="41.648554800" lon="2.510773100">
        <ele>224.60</ele>
        <time>2012-11-25T10:40:05Z</time>
      </trkpt>
      <trkpt lat="41.648378100" lon="2.510640200">
        <ele>225.10</ele>
        <time>2012-11-25T10:40:12Z</time>
      </trkpt>
      <trkpt lat="41.648155500" lon="2.510449500">
        <ele>224.60</ele>
        <time>2012-11-25T10:40:21Z</time>
      </trkpt>
      <trkpt lat="41.648029400" lon="2.510359400">
        <ele>224.60</ele>
        <time>2012-11-25T10:40:28Z</time>
      </trkpt>
      <trkpt lat="41.647885900" lon="2.510222700">
        <ele>223.60</ele>
        <time>2012-11-25T10:40:33Z</time>
      </trkpt>
      <trkpt lat="41.647815700" lon="2.510137500">
        <ele>223.20</ele>
        <time>2012-11-25T10:40:40Z</time>
      </trkpt>
      <trkpt lat="41.647751500" lon="2.510090500">
        <ele>222.70</ele>
        <time>2012-11-25T10:40:43Z</time>
      </trkpt>
      <trkpt lat="41.647682200" lon="2.509994200">
        <ele>222.20</ele>
        <time>2012-11-25T10:40:49Z</time>
      </trkpt>
      <trkpt lat="41.647678900" lon="2.509990300">
        <ele>222.20</ele>
        <time>2012-11-25T10:40:56Z</time>
      </trkpt>
      <trkpt lat="41.647594500" lon="2.509924500">
        <ele>222.20</ele>
        <time>2012-11-25T10:41:03Z</time>
      </trkpt>
      <trkpt lat="41.647455900" lon="2.509798600">
        <ele>221.70</ele>
        <time>2012-11-25T10:41:08Z</time>
      </trkpt>
      <trkpt lat="41.647309200" lon="2.509686200">
        <ele>221.20</ele>
        <time>2012-11-25T10:41:15Z</time>
      </trkpt>
      <trkpt lat="41.647112300" lon="2.509549500">
        <ele>221.20</ele>
        <time>2012-11-25T10:41:23Z</time>
      </trkpt>
      <trkpt lat="41.646917500" lon="2.509403500">
        <ele>221.70</ele>
        <time>2012-11-25T10:41:32Z</time>
      </trkpt>
      <trkpt lat="41.646729900" lon="2.509280700">
        <ele>221.70</ele>
        <time>2012-11-25T10:41:39Z</time>
      </trkpt>
      <trkpt lat="41.646583500" lon="2.509154100">
        <ele>222.70</ele>
        <time>2012-11-25T10:41:46Z</time>
      </trkpt>
      <trkpt lat="41.646394600" lon="2.509023400">
        <ele>223.60</ele>
        <time>2012-11-25T10:41:53Z</time>
      </trkpt>
      <trkpt lat="41.646248900" lon="2.508914800">
        <ele>225.10</ele>
        <time>2012-11-25T10:42:00Z</time>
      </trkpt>
      <trkpt lat="41.646096700" lon="2.508799700">
        <ele>225.60</ele>
        <time>2012-11-25T10:42:07Z</time>
      </trkpt>
      <trkpt lat="41.645871600" lon="2.508618100">
        <ele>225.60</ele>
        <time>2012-11-25T10:42:16Z</time>
      </trkpt>
      <trkpt lat="41.645681000" lon="2.508455400">
        <ele>224.60</ele>
        <time>2012-11-25T10:42:23Z</time>
      </trkpt>
      <trkpt lat="41.645585200" lon="2.508368200">
        <ele>224.60</ele>
        <time>2012-11-25T10:42:26Z</time>
      </trkpt>
      <trkpt lat="41.645393500" lon="2.508224100">
        <ele>224.10</ele>
        <time>2012-11-25T10:42:31Z</time>
      </trkpt>
      <trkpt lat="41.645189900" lon="2.508062400">
        <ele>223.60</ele>
        <time>2012-11-25T10:42:37Z</time>
      </trkpt>
      <trkpt lat="41.645124400" lon="2.508037100">
        <ele>223.60</ele>
        <time>2012-11-25T10:42:40Z</time>
      </trkpt>
      <trkpt lat="41.644875700" lon="2.507896700">
        <ele>223.60</ele>
        <time>2012-11-25T10:42:49Z</time>
      </trkpt>
      <trkpt lat="41.644649800" lon="2.507809200">
        <ele>223.60</ele>
        <time>2012-11-25T10:42:56Z</time>
      </trkpt>
      <trkpt lat="41.644385700" lon="2.507633800">
        <ele>224.10</ele>
        <time>2012-11-25T10:43:06Z</time>
      </trkpt>
      <trkpt lat="41.644263200" lon="2.507586000">
        <ele>224.60</ele>
        <time>2012-11-25T10:43:13Z</time>
      </trkpt>
      <trkpt lat="41.644098700" lon="2.507442900">
        <ele>225.10</ele>
        <time>2012-11-25T10:43:22Z</time>
      </trkpt>
      <trkpt lat="41.644019400" lon="2.507351800">
        <ele>226.10</ele>
        <time>2012-11-25T10:43:27Z</time>
      </trkpt>
      <trkpt lat="41.643966900" lon="2.507361600">
        <ele>226.10</ele>
        <time>2012-11-25T10:43:34Z</time>
      </trkpt>
      <trkpt lat="41.643901300" lon="2.507408400">
        <ele>226.50</ele>
        <time>2012-11-25T10:43:43Z</time>
      </trkpt>
      <trkpt lat="41.643843700" lon="2.507428300">
        <ele>226.50</ele>
        <time>2012-11-25T10:43:52Z</time>
      </trkpt>
      <trkpt lat="41.643763000" lon="2.507443800">
        <ele>226.50</ele>
        <time>2012-11-25T10:44:00Z</time>
      </trkpt>
      <trkpt lat="41.643717700" lon="2.507466800">
        <ele>226.50</ele>
        <time>2012-11-25T10:44:11Z</time>
      </trkpt>
      <trkpt lat="41.643670400" lon="2.507477000">
        <ele>226.50</ele>
        <time>2012-11-25T10:44:21Z</time>
      </trkpt>
      <trkpt lat="41.643593400" lon="2.507480700">
        <ele>226.50</ele>
        <time>2012-11-25T10:44:30Z</time>
      </trkpt>
      <trkpt lat="41.643586600" lon="2.507490200">
        <ele>226.50</ele>
        <time>2012-11-25T10:44:39Z</time>
      </trkpt>
      <trkpt lat="41.643600100" lon="2.507494700">
        <ele>227.00</ele>
        <time>2012-11-25T10:44:54Z</time>
      </trkpt>
      <trkpt lat="41.643548700" lon="2.507497400">
        <ele>227.00</ele>
        <time>2012-11-25T10:45:03Z</time>
      </trkpt>
      <trkpt lat="41.643532000" lon="2.507487700">
        <ele>227.00</ele>
        <time>2012-11-25T10:45:13Z</time>
      </trkpt>
      <trkpt lat="41.643514500" lon="2.507484200">
        <ele>227.00</ele>
        <time>2012-11-25T10:45:29Z</time>
      </trkpt>
      <trkpt lat="41.643482300" lon="2.507488500">
        <ele>227.00</ele>
        <time>2012-11-25T10:45:36Z</time>
      </trkpt>
      <trkpt lat="41.643446800" lon="2.507510600">
        <ele>227.00</ele>
        <time>2012-11-25T10:45:59Z</time>
      </trkpt>
      <trkpt lat="41.643457300" lon="2.507492700">
        <ele>227.50</ele>
        <time>2012-11-25T10:46:09Z</time>
      </trkpt>
      <trkpt lat="41.643473100" lon="2.507454500">
        <ele>227.00</ele>
        <time>2012-11-25T10:46:21Z</time>
      </trkpt>
      <trkpt lat="41.643452400" lon="2.507444300">
        <ele>227.00</ele>
        <time>2012-11-25T10:46:35Z</time>
      </trkpt>
      <trkpt lat="41.643438900" lon="2.507469600">
        <ele>227.50</ele>
        <time>2012-11-25T10:46:48Z</time>
      </trkpt>
      <trkpt lat="41.643428600" lon="2.507485700">
        <ele>227.00</ele>
        <time>2012-11-25T10:46:53Z</time>
      </trkpt>
      <trkpt lat="41.643337900" lon="2.507505600">
        <ele>227.50</ele>
        <time>2012-11-25T10:47:03Z</time>
      </trkpt>
      <trkpt lat="41.643273400" lon="2.507516000">
        <ele>227.50</ele>
        <time>2012-11-25T10:47:12Z</time>
      </trkpt>
      <trkpt lat="41.643266500" lon="2.507530000">
        <ele>227.50</ele>
        <time>2012-11-25T10:47:24Z</time>
      </trkpt>
      <trkpt lat="41.643270100" lon="2.507547100">
        <ele>227.50</ele>
        <time>2012-11-25T10:47:36Z</time>
      </trkpt>
      <trkpt lat="41.643269800" lon="2.507564200">
        <ele>227.50</ele>
        <time>2012-11-25T10:47:47Z</time>
      </trkpt>
      <trkpt lat="41.643290100" lon="2.507604700">
        <ele>227.50</ele>
        <time>2012-11-25T10:47:57Z</time>
      </trkpt>
      <trkpt lat="41.643293000" lon="2.507575700">
        <ele>227.50</ele>
        <time>2012-11-25T10:48:13Z</time>
      </trkpt>
      <trkpt lat="41.643298200" lon="2.507547600">
        <ele>227.50</ele>
        <time>2012-11-25T10:48:27Z</time>
      </trkpt>
      <trkpt lat="41.643290000" lon="2.507528700">
        <ele>227.50</ele>
        <time>2012-11-25T10:48:39Z</time>
      </trkpt>
      <trkpt lat="41.643288800" lon="2.507540500">
        <ele>227.50</ele>
        <time>2012-11-25T10:48:51Z</time>
      </trkpt>
      <trkpt lat="41.643285400" lon="2.507546400">
        <ele>227.50</ele>
        <time>2012-11-25T10:49:05Z</time>
      </trkpt>
      <trkpt lat="41.643269800" lon="2.507538400">
        <ele>227.50</ele>
        <time>2012-11-25T10:49:17Z</time>
      </trkpt>
      <trkpt lat="41.643264400" lon="2.507537400">
        <ele>227.50</ele>
        <time>2012-11-25T10:49:31Z</time>
      </trkpt>
      <trkpt lat="41.643269200" lon="2.507597600">
        <ele>227.50</ele>
        <time>2012-11-25T10:49:40Z</time>
      </trkpt>
      <trkpt lat="41.643269700" lon="2.507688800">
        <ele>228.00</ele>
        <time>2012-11-25T10:49:50Z</time>
      </trkpt>
      <trkpt lat="41.643280700" lon="2.507800700">
        <ele>228.00</ele>
        <time>2012-11-25T10:50:01Z</time>
      </trkpt>
      <trkpt lat="41.643291400" lon="2.507851100">
        <ele>228.00</ele>
        <time>2012-11-25T10:50:11Z</time>
      </trkpt>
      <trkpt lat="41.643355500" lon="2.507875300">
        <ele>228.00</ele>
        <time>2012-11-25T10:50:22Z</time>
      </trkpt>
      <trkpt lat="41.643417700" lon="2.507893100">
        <ele>228.00</ele>
        <time>2012-11-25T10:50:32Z</time>
      </trkpt>
      <trkpt lat="41.643457600" lon="2.507874800">
        <ele>227.50</ele>
        <time>2012-11-25T10:50:41Z</time>
      </trkpt>
      <trkpt lat="41.643503600" lon="2.507863000">
        <ele>228.00</ele>
        <time>2012-11-25T10:50:53Z</time>
      </trkpt>
      <trkpt lat="41.643544000" lon="2.507852300">
        <ele>228.00</ele>
        <time>2012-11-25T10:51:02Z</time>
      </trkpt>
      <trkpt lat="41.643581700" lon="2.507850000">
        <ele>228.00</ele>
        <time>2012-11-25T10:51:11Z</time>
      </trkpt>
      <trkpt lat="41.643572900" lon="2.507819800">
        <ele>228.00</ele>
        <time>2012-11-25T10:51:21Z</time>
      </trkpt>
      <trkpt lat="41.643578400" lon="2.507824000">
        <ele>228.00</ele>
        <time>2012-11-25T10:51:31Z</time>
      </trkpt>
      <trkpt lat="41.643590100" lon="2.507826400">
        <ele>228.00</ele>
        <time>2012-11-25T10:51:40Z</time>
      </trkpt>
      <trkpt lat="41.643627500" lon="2.507813100">
        <ele>228.00</ele>
        <time>2012-11-25T10:51:47Z</time>
      </trkpt>
      <trkpt lat="41.643692400" lon="2.507811200">
        <ele>228.00</ele>
        <time>2012-11-25T10:51:59Z</time>
      </trkpt>
      <trkpt lat="41.643740300" lon="2.507788600">
        <ele>228.40</ele>
        <time>2012-11-25T10:52:08Z</time>
      </trkpt>
      <trkpt lat="41.643748000" lon="2.507800700">
        <ele>228.00</ele>
        <time>2012-11-25T10:52:20Z</time>
      </trkpt>
      <trkpt lat="41.643795700" lon="2.507803500">
        <ele>228.40</ele>
        <time>2012-11-25T10:52:29Z</time>
      </trkpt>
      <trkpt lat="41.643840700" lon="2.507805600">
        <ele>228.00</ele>
        <time>2012-11-25T10:52:41Z</time>
      </trkpt>
      <trkpt lat="41.643888400" lon="2.507785900">
        <ele>228.40</ele>
        <time>2012-11-25T10:52:53Z</time>
      </trkpt>
      <trkpt lat="41.643900200" lon="2.507759900">
        <ele>228.40</ele>
        <time>2012-11-25T10:53:02Z</time>
      </trkpt>
      <trkpt lat="41.643887300" lon="2.507698700">
        <ele>228.40</ele>
        <time>2012-11-25T10:53:12Z</time>
      </trkpt>
      <trkpt lat="41.643895900" lon="2.507621200">
        <ele>228.40</ele>
        <time>2012-11-25T10:53:21Z</time>
      </trkpt>
      <trkpt lat="41.643891200" lon="2.507551000">
        <ele>228.40</ele>
        <time>2012-11-25T10:53:30Z</time>
      </trkpt>
      <trkpt lat="41.643892300" lon="2.507425200">
        <ele>228.40</ele>
        <time>2012-11-25T10:53:42Z</time>
      </trkpt>
      <trkpt lat="41.643973200" lon="2.507394900">
        <ele>228.40</ele>
        <time>2012-11-25T10:53:51Z</time>
      </trkpt>
      <trkpt lat="41.643961200" lon="2.507378200">
        <ele>228.40</ele>
        <time>2012-11-25T10:54:08Z</time>
      </trkpt>
      <trkpt lat="41.643961700" lon="2.507352600">
        <ele>228.40</ele>
        <time>2012-11-25T10:54:24Z</time>
      </trkpt>
      <trkpt lat="41.643962900" lon="2.507411100">
        <ele>228.40</ele>
        <time>2012-11-25T10:54:41Z</time>
      </trkpt>
      <trkpt lat="41.643966900" lon="2.507358900">
        <ele>228.90</ele>
        <time>2012-11-25T10:54:57Z</time>
      </trkpt>
      <trkpt lat="41.643959800" lon="2.507377900">
        <ele>228.90</ele>
        <time>2012-11-25T10:55:11Z</time>
      </trkpt>
      <trkpt lat="41.643959300" lon="2.507375000">
        <ele>229.40</ele>
        <time>2012-11-25T10:55:14Z</time>
      </trkpt>
      <trkpt lat="41.643946200" lon="2.507379500">
        <ele>229.40</ele>
        <time>2012-11-25T10:55:16Z</time>
      </trkpt>
      <trkpt lat="41.643938200" lon="2.507379100">
        <ele>229.40</ele>
        <time>2012-11-25T10:55:23Z</time>
      </trkpt>
      <trkpt lat="41.643933400" lon="2.507370700">
        <ele>229.40</ele>
        <time>2012-11-25T10:55:23Z</time>
      </trkpt>
      <trkpt lat="41.643909700" lon="2.507255000">
        <ele>229.40</ele>
        <time>2012-11-25T10:55:32Z</time>
      </trkpt>
      <trkpt lat="41.643873800" lon="2.507244100">
        <ele>230.40</ele>
        <time>2012-11-25T10:55:35Z</time>
      </trkpt>
      <trkpt lat="41.643745800" lon="2.507243700">
        <ele>232.30</ele>
        <time>2012-11-25T10:55:44Z</time>
      </trkpt>
      <trkpt lat="41.643615700" lon="2.507262700">
        <ele>233.70</ele>
        <time>2012-11-25T10:55:51Z</time>
      </trkpt>
      <trkpt lat="41.643480400" lon="2.507293800">
        <ele>234.20</ele>
        <time>2012-11-25T10:56:00Z</time>
      </trkpt>
      <trkpt lat="41.643379800" lon="2.507320000">
        <ele>235.20</ele>
        <time>2012-11-25T10:56:07Z</time>
      </trkpt>
      <trkpt lat="41.643373900" lon="2.507327900">
        <ele>235.20</ele>
        <time>2012-11-25T10:56:14Z</time>
      </trkpt>
      <trkpt lat="41.643361300" lon="2.507336400">
        <ele>235.20</ele>
        <time>2012-11-25T10:56:22Z</time>
      </trkpt>
      <trkpt lat="41.643357600" lon="2.507349800">
        <ele>235.20</ele>
        <time>2012-11-25T10:56:29Z</time>
      </trkpt>
      <trkpt lat="41.643351000" lon="2.507344700">
        <ele>235.20</ele>
        <time>2012-11-25T10:56:50Z</time>
      </trkpt>
      <trkpt lat="41.643333400" lon="2.507356800">
        <ele>235.20</ele>
        <time>2012-11-25T10:56:57Z</time>
      </trkpt>
      <trkpt lat="41.643199100" lon="2.507345600">
        <ele>235.70</ele>
        <time>2012-11-25T10:57:04Z</time>
      </trkpt>
      <trkpt lat="41.642966200" lon="2.507355100">
        <ele>236.60</ele>
        <time>2012-11-25T10:57:16Z</time>
      </trkpt>
      <trkpt lat="41.642873400" lon="2.507393200">
        <ele>237.10</ele>
        <time>2012-11-25T10:57:22Z</time>
      </trkpt>
      <trkpt lat="41.642811800" lon="2.507397800">
        <ele>237.60</ele>
        <time>2012-11-25T10:57:29Z</time>
      </trkpt>
      <trkpt lat="41.642799200" lon="2.507404500">
        <ele>237.60</ele>
        <time>2012-11-25T10:57:36Z</time>
      </trkpt>
      <trkpt lat="41.642796300" lon="2.507464200">
        <ele>237.60</ele>
        <time>2012-11-25T10:57:44Z</time>
      </trkpt>
      <trkpt lat="41.642792900" lon="2.507475700">
        <ele>237.60</ele>
        <time>2012-11-25T10:58:07Z</time>
      </trkpt>
      <trkpt lat="41.642774800" lon="2.507466800">
        <ele>238.10</ele>
        <time>2012-11-25T10:58:16Z</time>
      </trkpt>
      <trkpt lat="41.642751200" lon="2.507458100">
        <ele>237.60</ele>
        <time>2012-11-25T10:58:23Z</time>
      </trkpt>
      <trkpt lat="41.642747500" lon="2.507427200">
        <ele>238.10</ele>
        <time>2012-11-25T10:58:31Z</time>
      </trkpt>
      <trkpt lat="41.642747300" lon="2.507441900">
        <ele>237.60</ele>
        <time>2012-11-25T10:58:49Z</time>
      </trkpt>
      <trkpt lat="41.642729300" lon="2.507431500">
        <ele>237.60</ele>
        <time>2012-11-25T10:58:54Z</time>
      </trkpt>
      <trkpt lat="41.642594500" lon="2.507400400">
        <ele>238.10</ele>
        <time>2012-11-25T10:59:01Z</time>
      </trkpt>
      <trkpt lat="41.642423000" lon="2.507376100">
        <ele>239.00</ele>
        <time>2012-11-25T10:59:10Z</time>
      </trkpt>
      <trkpt lat="41.642256600" lon="2.507369900">
        <ele>240.00</ele>
        <time>2012-11-25T10:59:18Z</time>
      </trkpt>
      <trkpt lat="41.642059400" lon="2.507345800">
        <ele>240.50</ele>
        <time>2012-11-25T10:59:25Z</time>
      </trkpt>
      <trkpt lat="41.641867000" lon="2.507254500">
        <ele>240.90</ele>
        <time>2012-11-25T10:59:32Z</time>
      </trkpt>
      <trkpt lat="41.641643100" lon="2.507224400">
        <ele>240.50</ele>
        <time>2012-11-25T10:59:39Z</time>
      </trkpt>
      <trkpt lat="41.641313500" lon="2.507224400">
        <ele>240.00</ele>
        <time>2012-11-25T10:59:46Z</time>
      </trkpt>
      <trkpt lat="41.641093900" lon="2.507318500">
        <ele>240.90</ele>
        <time>2012-11-25T10:59:53Z</time>
      </trkpt>
      <trkpt lat="41.640870800" lon="2.507399300">
        <ele>241.40</ele>
        <time>2012-11-25T11:00:02Z</time>
      </trkpt>
      <trkpt lat="41.640603700" lon="2.507390800">
        <ele>241.40</ele>
        <time>2012-11-25T11:00:09Z</time>
      </trkpt>
      <trkpt lat="41.640370600" lon="2.507445700">
        <ele>241.90</ele>
        <time>2012-11-25T11:00:18Z</time>
      </trkpt>
      <trkpt lat="41.640190600" lon="2.507511900">
        <ele>242.90</ele>
        <time>2012-11-25T11:00:24Z</time>
      </trkpt>
      <trkpt lat="41.639959500" lon="2.507569300">
        <ele>243.40</ele>
        <time>2012-11-25T11:00:31Z</time>
      </trkpt>
      <trkpt lat="41.639681600" lon="2.507617600">
        <ele>243.80</ele>
        <time>2012-11-25T11:00:40Z</time>
      </trkpt>
      <trkpt lat="41.639392400" lon="2.507665200">
        <ele>244.80</ele>
        <time>2012-11-25T11:00:49Z</time>
      </trkpt>
      <trkpt lat="41.639170100" lon="2.507674600">
        <ele>245.30</ele>
        <time>2012-11-25T11:00:56Z</time>
      </trkpt>
      <trkpt lat="41.638858300" lon="2.507661900">
        <ele>246.70</ele>
        <time>2012-11-25T11:01:08Z</time>
      </trkpt>
      <trkpt lat="41.638578100" lon="2.507670200">
        <ele>246.70</ele>
        <time>2012-11-25T11:01:17Z</time>
      </trkpt>
      <trkpt lat="41.638383100" lon="2.507633600">
        <ele>247.20</ele>
        <time>2012-11-25T11:01:24Z</time>
      </trkpt>
      <trkpt lat="41.638131500" lon="2.507584900">
        <ele>247.20</ele>
        <time>2012-11-25T11:01:32Z</time>
      </trkpt>
      <trkpt lat="41.638000500" lon="2.507538500">
        <ele>247.20</ele>
        <time>2012-11-25T11:01:38Z</time>
      </trkpt>
      <trkpt lat="41.637916300" lon="2.507631600">
        <ele>247.20</ele>
        <time>2012-11-25T11:01:43Z</time>
      </trkpt>
      <trkpt lat="41.637917000" lon="2.507791100">
        <ele>249.10</ele>
        <time>2012-11-25T11:01:50Z</time>
      </trkpt>
      <trkpt lat="41.637792900" lon="2.507922200">
        <ele>251.00</ele>
        <time>2012-11-25T11:01:57Z</time>
      </trkpt>
      <trkpt lat="41.637649100" lon="2.508035500">
        <ele>252.50</ele>
        <time>2012-11-25T11:02:05Z</time>
      </trkpt>
      <trkpt lat="41.637527700" lon="2.508146400">
        <ele>253.40</ele>
        <time>2012-11-25T11:02:14Z</time>
      </trkpt>
      <trkpt lat="41.637414600" lon="2.508261600">
        <ele>254.40</ele>
        <time>2012-11-25T11:02:21Z</time>
      </trkpt>
      <trkpt lat="41.637307200" lon="2.508278700">
        <ele>255.40</ele>
        <time>2012-11-25T11:02:28Z</time>
      </trkpt>
      <trkpt lat="41.637139400" lon="2.508280200">
        <ele>256.80</ele>
        <time>2012-11-25T11:02:37Z</time>
      </trkpt>
      <trkpt lat="41.636998600" lon="2.508366600">
        <ele>257.80</ele>
        <time>2012-11-25T11:02:46Z</time>
      </trkpt>
      <trkpt lat="41.636862700" lon="2.508430900">
        <ele>258.70</ele>
        <time>2012-11-25T11:02:53Z</time>
      </trkpt>
      <trkpt lat="41.636660400" lon="2.508507100">
        <ele>259.20</ele>
        <time>2012-11-25T11:03:03Z</time>
      </trkpt>
      <trkpt lat="41.636505800" lon="2.508634400">
        <ele>260.60</ele>
        <time>2012-11-25T11:03:12Z</time>
      </trkpt>
      <trkpt lat="41.636375100" lon="2.508674300">
        <ele>261.60</ele>
        <time>2012-11-25T11:03:19Z</time>
      </trkpt>
      <trkpt lat="41.636229900" lon="2.508665900">
        <ele>263.10</ele>
        <time>2012-11-25T11:03:26Z</time>
      </trkpt>
      <trkpt lat="41.636113000" lon="2.508643900">
        <ele>264.00</ele>
        <time>2012-11-25T11:03:33Z</time>
      </trkpt>
      <trkpt lat="41.636062000" lon="2.508645000">
        <ele>264.50</ele>
        <time>2012-11-25T11:03:36Z</time>
      </trkpt>
      <trkpt lat="41.635954700" lon="2.508612400">
        <ele>264.50</ele>
        <time>2012-11-25T11:03:43Z</time>
      </trkpt>
      <trkpt lat="41.635736600" lon="2.508571100">
        <ele>266.40</ele>
        <time>2012-11-25T11:03:52Z</time>
      </trkpt>
      <trkpt lat="41.635545800" lon="2.508572800">
        <ele>265.90</ele>
        <time>2012-11-25T11:03:59Z</time>
      </trkpt>
      <trkpt lat="41.635464300" lon="2.508613300">
        <ele>265.50</ele>
        <time>2012-11-25T11:04:00Z</time>
      </trkpt>
      <trkpt lat="41.635292500" lon="2.508781700">
        <ele>265.00</ele>
        <time>2012-11-25T11:04:06Z</time>
      </trkpt>
      <trkpt lat="41.635139000" lon="2.508936700">
        <ele>266.40</ele>
        <time>2012-11-25T11:04:13Z</time>
      </trkpt>
      <trkpt lat="41.634962900" lon="2.509106700">
        <ele>266.40</ele>
        <time>2012-11-25T11:04:21Z</time>
      </trkpt>
      <trkpt lat="41.634772700" lon="2.509276400">
        <ele>265.90</ele>
        <time>2012-11-25T11:04:30Z</time>
      </trkpt>
      <trkpt lat="41.634631300" lon="2.509409000">
        <ele>265.90</ele>
        <time>2012-11-25T11:04:37Z</time>
      </trkpt>
      <trkpt lat="41.634477100" lon="2.509449000">
        <ele>267.40</ele>
        <time>2012-11-25T11:04:44Z</time>
      </trkpt>
      <trkpt lat="41.634303400" lon="2.509408700">
        <ele>267.90</ele>
        <time>2012-11-25T11:04:51Z</time>
      </trkpt>
      <trkpt lat="41.634134600" lon="2.509370200">
        <ele>268.40</ele>
        <time>2012-11-25T11:04:58Z</time>
      </trkpt>
      <trkpt lat="41.633985400" lon="2.509378300">
        <ele>268.80</ele>
        <time>2012-11-25T11:05:05Z</time>
      </trkpt>
      <trkpt lat="41.633837600" lon="2.509398300">
        <ele>269.80</ele>
        <time>2012-11-25T11:05:12Z</time>
      </trkpt>
      <trkpt lat="41.633700000" lon="2.509379100">
        <ele>271.70</ele>
        <time>2012-11-25T11:05:19Z</time>
      </trkpt>
      <trkpt lat="41.633684400" lon="2.509378500">
        <ele>271.70</ele>
        <time>2012-11-25T11:05:19Z</time>
      </trkpt>
      <trkpt lat="41.633592200" lon="2.509392200">
        <ele>272.70</ele>
        <time>2012-11-25T11:05:24Z</time>
      </trkpt>
      <trkpt lat="41.633411200" lon="2.509513100">
        <ele>274.60</ele>
        <time>2012-11-25T11:05:35Z</time>
      </trkpt>
      <trkpt lat="41.633257500" lon="2.509578200">
        <ele>276.50</ele>
        <time>2012-11-25T11:05:45Z</time>
      </trkpt>
      <trkpt lat="41.633138300" lon="2.509568100">
        <ele>278.40</ele>
        <time>2012-11-25T11:05:52Z</time>
      </trkpt>
      <trkpt lat="41.633016200" lon="2.509591100">
        <ele>279.90</ele>
        <time>2012-11-25T11:06:01Z</time>
      </trkpt>
      <trkpt lat="41.632868400" lon="2.509606500">
        <ele>281.30</ele>
        <time>2012-11-25T11:06:11Z</time>
      </trkpt>
      <trkpt lat="41.632704300" lon="2.509589500">
        <ele>282.30</ele>
        <time>2012-11-25T11:06:20Z</time>
      </trkpt>
      <trkpt lat="41.632540200" lon="2.509540600">
        <ele>281.80</ele>
        <time>2012-11-25T11:06:29Z</time>
      </trkpt>
      <trkpt lat="41.632400000" lon="2.509549300">
        <ele>282.80</ele>
        <time>2012-11-25T11:06:37Z</time>
      </trkpt>
      <trkpt lat="41.632257500" lon="2.509567800">
        <ele>284.20</ele>
        <time>2012-11-25T11:06:46Z</time>
      </trkpt>
      <trkpt lat="41.632126400" lon="2.509588000">
        <ele>285.20</ele>
        <time>2012-11-25T11:06:53Z</time>
      </trkpt>
      <trkpt lat="41.631965100" lon="2.509596800">
        <ele>285.60</ele>
        <time>2012-11-25T11:07:02Z</time>
      </trkpt>
      <trkpt lat="41.631799800" lon="2.509539900">
        <ele>286.60</ele>
        <time>2012-11-25T11:07:10Z</time>
      </trkpt>
      <trkpt lat="41.631688200" lon="2.509488600">
        <ele>287.60</ele>
        <time>2012-11-25T11:07:17Z</time>
      </trkpt>
      <trkpt lat="41.631524800" lon="2.509420200">
        <ele>289.50</ele>
        <time>2012-11-25T11:07:28Z</time>
      </trkpt>
      <trkpt lat="41.631347600" lon="2.509368900">
        <ele>291.40</ele>
        <time>2012-11-25T11:07:38Z</time>
      </trkpt>
      <trkpt lat="41.631224700" lon="2.509337200">
        <ele>292.40</ele>
        <time>2012-11-25T11:07:45Z</time>
      </trkpt>
      <trkpt lat="41.631121800" lon="2.509268900">
        <ele>294.30</ele>
        <time>2012-11-25T11:07:54Z</time>
      </trkpt>
      <trkpt lat="41.631031000" lon="2.509169200">
        <ele>296.20</ele>
        <time>2012-11-25T11:08:04Z</time>
      </trkpt>
      <trkpt lat="41.630935100" lon="2.509040300">
        <ele>297.70</ele>
        <time>2012-11-25T11:08:13Z</time>
      </trkpt>
      <trkpt lat="41.630811600" lon="2.508942200">
        <ele>299.10</ele>
        <time>2012-11-25T11:08:20Z</time>
      </trkpt>
      <trkpt lat="41.630693200" lon="2.508822200">
        <ele>300.10</ele>
        <time>2012-11-25T11:08:29Z</time>
      </trkpt>
      <trkpt lat="41.630662900" lon="2.508737200">
        <ele>300.50</ele>
        <time>2012-11-25T11:08:34Z</time>
      </trkpt>
      <trkpt lat="41.630632700" lon="2.508613200">
        <ele>301.50</ele>
        <time>2012-11-25T11:08:41Z</time>
      </trkpt>
      <trkpt lat="41.630582600" lon="2.508405000">
        <ele>302.50</ele>
        <time>2012-11-25T11:08:50Z</time>
      </trkpt>
      <trkpt lat="41.630517300" lon="2.508282600">
        <ele>303.40</ele>
        <time>2012-11-25T11:08:58Z</time>
      </trkpt>
      <trkpt lat="41.630465300" lon="2.508143200">
        <ele>305.80</ele>
        <time>2012-11-25T11:09:07Z</time>
      </trkpt>
      <trkpt lat="41.630460900" lon="2.508108100">
        <ele>306.30</ele>
        <time>2012-11-25T11:09:09Z</time>
      </trkpt>
      <trkpt lat="41.630395800" lon="2.507983200">
        <ele>307.30</ele>
        <time>2012-11-25T11:09:18Z</time>
      </trkpt>
      <trkpt lat="41.630316000" lon="2.507927400">
        <ele>309.20</ele>
        <time>2012-11-25T11:09:24Z</time>
      </trkpt>
      <trkpt lat="41.630227700" lon="2.507823900">
        <ele>311.60</ele>
        <time>2012-11-25T11:09:35Z</time>
      </trkpt>
      <trkpt lat="41.630133200" lon="2.507715000">
        <ele>312.60</ele>
        <time>2012-11-25T11:09:44Z</time>
      </trkpt>
      <trkpt lat="41.630021000" lon="2.507610900">
        <ele>314.50</ele>
        <time>2012-11-25T11:09:52Z</time>
      </trkpt>
      <trkpt lat="41.629926100" lon="2.507548000">
        <ele>316.90</ele>
        <time>2012-11-25T11:10:01Z</time>
      </trkpt>
      <trkpt lat="41.629915900" lon="2.507542600">
        <ele>316.90</ele>
        <time>2012-11-25T11:10:03Z</time>
      </trkpt>
      <trkpt lat="41.629779700" lon="2.507452200">
        <ele>317.90</ele>
        <time>2012-11-25T11:10:13Z</time>
      </trkpt>
      <trkpt lat="41.629687800" lon="2.507393400">
        <ele>320.30</ele>
        <time>2012-11-25T11:10:20Z</time>
      </trkpt>
      <trkpt lat="41.629638300" lon="2.507365300">
        <ele>321.20</ele>
        <time>2012-11-25T11:10:25Z</time>
      </trkpt>
      <trkpt lat="41.629419500" lon="2.507106300">
        <ele>322.20</ele>
        <time>2012-11-25T11:10:43Z</time>
      </trkpt>
      <trkpt lat="41.629364400" lon="2.507056100">
        <ele>322.70</ele>
        <time>2012-11-25T11:10:46Z</time>
      </trkpt>
      <trkpt lat="41.629254300" lon="2.506979900">
        <ele>323.60</ele>
        <time>2012-11-25T11:10:55Z</time>
      </trkpt>
      <trkpt lat="41.629164200" lon="2.506887900">
        <ele>324.10</ele>
        <time>2012-11-25T11:11:02Z</time>
      </trkpt>
      <trkpt lat="41.629092800" lon="2.506793500">
        <ele>325.50</ele>
        <time>2012-11-25T11:11:09Z</time>
      </trkpt>
      <trkpt lat="41.629059800" lon="2.506759700">
        <ele>326.50</ele>
        <time>2012-11-25T11:11:12Z</time>
      </trkpt>
      <trkpt lat="41.628994400" lon="2.506742800">
        <ele>327.50</ele>
        <time>2012-11-25T11:11:18Z</time>
      </trkpt>
      <trkpt lat="41.628953000" lon="2.506749900">
        <ele>327.00</ele>
        <time>2012-11-25T11:11:23Z</time>
      </trkpt>
      <trkpt lat="41.628940000" lon="2.506752900">
        <ele>327.00</ele>
        <time>2012-11-25T11:11:35Z</time>
      </trkpt>
      <trkpt lat="41.628943100" lon="2.506736900">
        <ele>327.00</ele>
        <time>2012-11-25T11:11:51Z</time>
      </trkpt>
      <trkpt lat="41.628951100" lon="2.506718300">
        <ele>327.00</ele>
        <time>2012-11-25T11:11:54Z</time>
      </trkpt>
      <trkpt lat="41.629022100" lon="2.506724000">
        <ele>327.00</ele>
        <time>2012-11-25T11:12:01Z</time>
      </trkpt>
      <trkpt lat="41.629007300" lon="2.506747900">
        <ele>327.00</ele>
        <time>2012-11-25T11:12:08Z</time>
      </trkpt>
      <trkpt lat="41.628986800" lon="2.506740800">
        <ele>327.00</ele>
        <time>2012-11-25T11:12:10Z</time>
      </trkpt>
      <trkpt lat="41.628904800" lon="2.506756300">
        <ele>327.50</ele>
        <time>2012-11-25T11:12:19Z</time>
      </trkpt>
      <trkpt lat="41.628916200" lon="2.506753600">
        <ele>327.50</ele>
        <time>2012-11-25T11:12:24Z</time>
      </trkpt>
      <trkpt lat="41.628912400" lon="2.506748700">
        <ele>328.00</ele>
        <time>2012-11-25T11:12:41Z</time>
      </trkpt>
      <trkpt lat="41.628933400" lon="2.506758100">
        <ele>327.50</ele>
        <time>2012-11-25T11:12:54Z</time>
      </trkpt>
      <trkpt lat="41.628929800" lon="2.506776600">
        <ele>327.50</ele>
        <time>2012-11-25T11:13:04Z</time>
      </trkpt>
      <trkpt lat="41.628927700" lon="2.506818500">
        <ele>328.40</ele>
        <time>2012-11-25T11:13:09Z</time>
      </trkpt>
      <trkpt lat="41.628958900" lon="2.506922600">
        <ele>328.90</ele>
        <time>2012-11-25T11:13:18Z</time>
      </trkpt>
      <trkpt lat="41.629011100" lon="2.507036600">
        <ele>330.40</ele>
        <time>2012-11-25T11:13:27Z</time>
      </trkpt>
      <trkpt lat="41.629040600" lon="2.507089000">
        <ele>330.80</ele>
        <time>2012-11-25T11:13:30Z</time>
      </trkpt>
      <trkpt lat="41.629051300" lon="2.507120000">
        <ele>331.30</ele>
        <time>2012-11-25T11:13:32Z</time>
      </trkpt>
      <trkpt lat="41.629146700" lon="2.507299000">
        <ele>333.20</ele>
        <time>2012-11-25T11:13:44Z</time>
      </trkpt>
      <trkpt lat="41.629151900" lon="2.507318500">
        <ele>333.70</ele>
        <time>2012-11-25T11:13:44Z</time>
      </trkpt>
      <trkpt lat="41.629145200" lon="2.507365100">
        <ele>334.70</ele>
        <time>2012-11-25T11:13:47Z</time>
      </trkpt>
      <trkpt lat="41.629052500" lon="2.507378200">
        <ele>336.10</ele>
        <time>2012-11-25T11:13:56Z</time>
      </trkpt>
      <trkpt lat="41.628963100" lon="2.507304600">
        <ele>338.50</ele>
        <time>2012-11-25T11:14:05Z</time>
      </trkpt>
      <trkpt lat="41.628936600" lon="2.507274900">
        <ele>339.50</ele>
        <time>2012-11-25T11:14:08Z</time>
      </trkpt>
      <trkpt lat="41.628876300" lon="2.507254400">
        <ele>341.40</ele>
        <time>2012-11-25T11:14:14Z</time>
      </trkpt>
      <trkpt lat="41.628760000" lon="2.507220200">
        <ele>342.90</ele>
        <time>2012-11-25T11:14:24Z</time>
      </trkpt>
      <trkpt lat="41.628741200" lon="2.507200000">
        <ele>343.30</ele>
        <time>2012-11-25T11:14:26Z</time>
      </trkpt>
      <trkpt lat="41.628681400" lon="2.507107800">
        <ele>345.70</ele>
        <time>2012-11-25T11:14:33Z</time>
      </trkpt>
      <trkpt lat="41.628643600" lon="2.507037500">
        <ele>345.70</ele>
        <time>2012-11-25T11:14:38Z</time>
      </trkpt>
      <trkpt lat="41.628578300" lon="2.506920800">
        <ele>347.60</ele>
        <time>2012-11-25T11:14:47Z</time>
      </trkpt>
      <trkpt lat="41.628522600" lon="2.506834900">
        <ele>349.60</ele>
        <time>2012-11-25T11:14:55Z</time>
      </trkpt>
      <trkpt lat="41.628467000" lon="2.506736300">
        <ele>351.50</ele>
        <time>2012-11-25T11:15:04Z</time>
      </trkpt>
      <trkpt lat="41.628398300" lon="2.506673000">
        <ele>352.50</ele>
        <time>2012-11-25T11:15:11Z</time>
      </trkpt>
      <trkpt lat="41.628388400" lon="2.506669800">
        <ele>352.50</ele>
        <time>2012-11-25T11:15:11Z</time>
      </trkpt>
      <trkpt lat="41.628284900" lon="2.506641300">
        <ele>353.90</ele>
        <time>2012-11-25T11:15:20Z</time>
      </trkpt>
      <trkpt lat="41.628199300" lon="2.506563800">
        <ele>355.80</ele>
        <time>2012-11-25T11:15:30Z</time>
      </trkpt>
      <trkpt lat="41.628082500" lon="2.506518500">
        <ele>357.80</ele>
        <time>2012-11-25T11:15:41Z</time>
      </trkpt>
      <trkpt lat="41.628034800" lon="2.506486800">
        <ele>358.70</ele>
        <time>2012-11-25T11:15:46Z</time>
      </trkpt>
      <trkpt lat="41.627966400" lon="2.506442600">
        <ele>359.70</ele>
        <time>2012-11-25T11:15:53Z</time>
      </trkpt>
      <trkpt lat="41.627891600" lon="2.506389000">
        <ele>361.60</ele>
        <time>2012-11-25T11:16:02Z</time>
      </trkpt>
      <trkpt lat="41.627816000" lon="2.506317100">
        <ele>362.50</ele>
        <time>2012-11-25T11:16:09Z</time>
      </trkpt>
      <trkpt lat="41.627745400" lon="2.506263400">
        <ele>363.50</ele>
        <time>2012-11-25T11:16:16Z</time>
      </trkpt>
      <trkpt lat="41.627666300" lon="2.506217000">
        <ele>364.00</ele>
        <time>2012-11-25T11:16:21Z</time>
      </trkpt>
      <trkpt lat="41.627553800" lon="2.506207600">
        <ele>365.00</ele>
        <time>2012-11-25T11:16:31Z</time>
      </trkpt>
      <trkpt lat="41.627475600" lon="2.506206100">
        <ele>365.40</ele>
        <time>2012-11-25T11:16:38Z</time>
      </trkpt>
      <trkpt lat="41.627368700" lon="2.506202200">
        <ele>366.40</ele>
        <time>2012-11-25T11:16:45Z</time>
      </trkpt>
      <trkpt lat="41.627268600" lon="2.506190400">
        <ele>367.80</ele>
        <time>2012-11-25T11:16:52Z</time>
      </trkpt>
      <trkpt lat="41.627165800" lon="2.506192000">
        <ele>368.30</ele>
        <time>2012-11-25T11:16:59Z</time>
      </trkpt>
      <trkpt lat="41.627039900" lon="2.506239100">
        <ele>370.70</ele>
        <time>2012-11-25T11:17:08Z</time>
      </trkpt>
      <trkpt lat="41.627011400" lon="2.506266500">
        <ele>371.70</ele>
        <time>2012-11-25T11:17:11Z</time>
      </trkpt>
      <trkpt lat="41.626969000" lon="2.506334000">
        <ele>372.60</ele>
        <time>2012-11-25T11:17:15Z</time>
      </trkpt>
      <trkpt lat="41.626885300" lon="2.506421800">
        <ele>373.60</ele>
        <time>2012-11-25T11:17:24Z</time>
      </trkpt>
      <trkpt lat="41.626832300" lon="2.506466400">
        <ele>375.00</ele>
        <time>2012-11-25T11:17:29Z</time>
      </trkpt>
      <trkpt lat="41.626763500" lon="2.506474200">
        <ele>375.50</ele>
        <time>2012-11-25T11:17:34Z</time>
      </trkpt>
      <trkpt lat="41.626664700" lon="2.506349000">
        <ele>376.50</ele>
        <time>2012-11-25T11:17:43Z</time>
      </trkpt>
      <trkpt lat="41.626651800" lon="2.506294900">
        <ele>377.50</ele>
        <time>2012-11-25T11:17:48Z</time>
      </trkpt>
      <trkpt lat="41.626666500" lon="2.506229400">
        <ele>378.40</ele>
        <time>2012-11-25T11:17:53Z</time>
      </trkpt>
      <trkpt lat="41.626626900" lon="2.506078400">
        <ele>378.90</ele>
        <time>2012-11-25T11:18:02Z</time>
      </trkpt>
      <trkpt lat="41.626526500" lon="2.505941300">
        <ele>379.90</ele>
        <time>2012-11-25T11:18:12Z</time>
      </trkpt>
      <trkpt lat="41.626433300" lon="2.505838800">
        <ele>380.30</ele>
        <time>2012-11-25T11:18:19Z</time>
      </trkpt>
      <trkpt lat="41.626332100" lon="2.505714900">
        <ele>380.80</ele>
        <time>2012-11-25T11:18:28Z</time>
      </trkpt>
      <trkpt lat="41.626290400" lon="2.505586000">
        <ele>381.80</ele>
        <time>2012-11-25T11:18:35Z</time>
      </trkpt>
      <trkpt lat="41.626340100" lon="2.505462100">
        <ele>382.70</ele>
        <time>2012-11-25T11:18:44Z</time>
      </trkpt>
      <trkpt lat="41.626385900" lon="2.505396800">
        <ele>383.20</ele>
        <time>2012-11-25T11:18:49Z</time>
      </trkpt>
      <trkpt lat="41.626437800" lon="2.505300900">
        <ele>384.20</ele>
        <time>2012-11-25T11:18:54Z</time>
      </trkpt>
      <trkpt lat="41.626447400" lon="2.505237500">
        <ele>384.70</ele>
        <time>2012-11-25T11:18:58Z</time>
      </trkpt>
      <trkpt lat="41.626394600" lon="2.505166400">
        <ele>385.60</ele>
        <time>2012-11-25T11:19:05Z</time>
      </trkpt>
      <trkpt lat="41.626341500" lon="2.505245000">
        <ele>387.10</ele>
        <time>2012-11-25T11:19:12Z</time>
      </trkpt>
      <trkpt lat="41.626250800" lon="2.505311200">
        <ele>389.00</ele>
        <time>2012-11-25T11:19:20Z</time>
      </trkpt>
      <trkpt lat="41.626155900" lon="2.505330500">
        <ele>390.00</ele>
        <time>2012-11-25T11:19:29Z</time>
      </trkpt>
      <trkpt lat="41.626083400" lon="2.505344600">
        <ele>390.40</ele>
        <time>2012-11-25T11:19:34Z</time>
      </trkpt>
      <trkpt lat="41.626004800" lon="2.505423000">
        <ele>391.40</ele>
        <time>2012-11-25T11:19:41Z</time>
      </trkpt>
      <trkpt lat="41.626018800" lon="2.505613400">
        <ele>392.80</ele>
        <time>2012-11-25T11:19:52Z</time>
      </trkpt>
      <trkpt lat="41.626098100" lon="2.505759300">
        <ele>394.30</ele>
        <time>2012-11-25T11:20:00Z</time>
      </trkpt>
      <trkpt lat="41.626116600" lon="2.505809700">
        <ele>394.80</ele>
        <time>2012-11-25T11:20:04Z</time>
      </trkpt>
      <trkpt lat="41.626122600" lon="2.505969300">
        <ele>396.70</ele>
        <time>2012-11-25T11:20:14Z</time>
      </trkpt>
      <trkpt lat="41.626100900" lon="2.506084700">
        <ele>397.60</ele>
        <time>2012-11-25T11:20:21Z</time>
      </trkpt>
      <trkpt lat="41.626071700" lon="2.506151600">
        <ele>398.10</ele>
        <time>2012-11-25T11:20:25Z</time>
      </trkpt>
      <trkpt lat="41.625968600" lon="2.506336000">
        <ele>399.60</ele>
        <time>2012-11-25T11:20:37Z</time>
      </trkpt>
      <trkpt lat="41.625925300" lon="2.506512500">
        <ele>399.60</ele>
        <time>2012-11-25T11:20:44Z</time>
      </trkpt>
      <trkpt lat="41.625946100" lon="2.506705400">
        <ele>400.50</ele>
        <time>2012-11-25T11:20:54Z</time>
      </trkpt>
      <trkpt lat="41.625942100" lon="2.506781800">
        <ele>401.50</ele>
        <time>2012-11-25T11:20:58Z</time>
      </trkpt>
      <trkpt lat="41.625891800" lon="2.506934100">
        <ele>402.90</ele>
        <time>2012-11-25T11:21:06Z</time>
      </trkpt>
      <trkpt lat="41.625866100" lon="2.506980400">
        <ele>403.40</ele>
        <time>2012-11-25T11:21:10Z</time>
      </trkpt>
      <trkpt lat="41.625805900" lon="2.507112300">
        <ele>404.90</ele>
        <time>2012-11-25T11:21:19Z</time>
      </trkpt>
      <trkpt lat="41.625741100" lon="2.507257500">
        <ele>406.80</ele>
        <time>2012-11-25T11:21:27Z</time>
      </trkpt>
      <trkpt lat="41.625708600" lon="2.507354600">
        <ele>406.80</ele>
        <time>2012-11-25T11:21:33Z</time>
      </trkpt>
      <trkpt lat="41.625642700" lon="2.507548700">
        <ele>407.70</ele>
        <time>2012-11-25T11:21:43Z</time>
      </trkpt>
      <trkpt lat="41.625581000" lon="2.507695900">
        <ele>409.20</ele>
        <time>2012-11-25T11:21:50Z</time>
      </trkpt>
      <trkpt lat="41.625508000" lon="2.507807600">
        <ele>411.10</ele>
        <time>2012-11-25T11:21:59Z</time>
      </trkpt>
      <trkpt lat="41.625499100" lon="2.507821400">
        <ele>411.60</ele>
        <time>2012-11-25T11:21:59Z</time>
      </trkpt>
      <trkpt lat="41.625535300" lon="2.507907100">
        <ele>412.10</ele>
        <time>2012-11-25T11:22:06Z</time>
      </trkpt>
      <trkpt lat="41.625590000" lon="2.507933200">
        <ele>412.10</ele>
        <time>2012-11-25T11:22:13Z</time>
      </trkpt>
      <trkpt lat="41.625618500" lon="2.507933200">
        <ele>412.10</ele>
        <time>2012-11-25T11:22:16Z</time>
      </trkpt>
      <trkpt lat="41.625694300" lon="2.507940400">
        <ele>412.50</ele>
        <time>2012-11-25T11:22:21Z</time>
      </trkpt>
      <trkpt lat="41.625785200" lon="2.507939100">
        <ele>413.50</ele>
        <time>2012-11-25T11:22:28Z</time>
      </trkpt>
      <trkpt lat="41.625939600" lon="2.507924500">
        <ele>414.00</ele>
        <time>2012-11-25T11:22:37Z</time>
      </trkpt>
      <trkpt lat="41.626099200" lon="2.507899500">
        <ele>415.00</ele>
        <time>2012-11-25T11:22:46Z</time>
      </trkpt>
      <trkpt lat="41.626235400" lon="2.507861500">
        <ele>415.40</ele>
        <time>2012-11-25T11:22:53Z</time>
      </trkpt>
      <trkpt lat="41.626356800" lon="2.507833000">
        <ele>416.90</ele>
        <time>2012-11-25T11:23:00Z</time>
      </trkpt>
      <trkpt lat="41.626535000" lon="2.507823500">
        <ele>417.80</ele>
        <time>2012-11-25T11:23:10Z</time>
      </trkpt>
      <trkpt lat="41.626674700" lon="2.507837000">
        <ele>419.30</ele>
        <time>2012-11-25T11:23:17Z</time>
      </trkpt>
      <trkpt lat="41.626805900" lon="2.507945100">
        <ele>420.70</ele>
        <time>2012-11-25T11:23:26Z</time>
      </trkpt>
      <trkpt lat="41.626784900" lon="2.508065700">
        <ele>421.70</ele>
        <time>2012-11-25T11:23:33Z</time>
      </trkpt>
      <trkpt lat="41.626739100" lon="2.508182000">
        <ele>422.20</ele>
        <time>2012-11-25T11:23:38Z</time>
      </trkpt>
      <trkpt lat="41.626710300" lon="2.508363700">
        <ele>423.10</ele>
        <time>2012-11-25T11:23:47Z</time>
      </trkpt>
      <trkpt lat="41.626643900" lon="2.508541500">
        <ele>424.60</ele>
        <time>2012-11-25T11:23:54Z</time>
      </trkpt>
      <trkpt lat="41.626543700" lon="2.508718000">
        <ele>425.50</ele>
        <time>2012-11-25T11:24:04Z</time>
      </trkpt>
      <trkpt lat="41.626453000" lon="2.508892800">
        <ele>426.50</ele>
        <time>2012-11-25T11:24:11Z</time>
      </trkpt>
      <trkpt lat="41.626434800" lon="2.509071100">
        <ele>427.40</ele>
        <time>2012-11-25T11:24:18Z</time>
      </trkpt>
      <trkpt lat="41.626478400" lon="2.509315600">
        <ele>427.40</ele>
        <time>2012-11-25T11:24:27Z</time>
      </trkpt>
      <trkpt lat="41.626501100" lon="2.509533900">
        <ele>427.90</ele>
        <time>2012-11-25T11:24:35Z</time>
      </trkpt>
      <trkpt lat="41.626402400" lon="2.509762000">
        <ele>428.90</ele>
        <time>2012-11-25T11:24:46Z</time>
      </trkpt>
      <trkpt lat="41.626331100" lon="2.509917600">
        <ele>429.40</ele>
        <time>2012-11-25T11:24:53Z</time>
      </trkpt>
      <trkpt lat="41.626257700" lon="2.510102500">
        <ele>430.30</ele>
        <time>2012-11-25T11:25:00Z</time>
      </trkpt>
      <trkpt lat="41.626186500" lon="2.510313800">
        <ele>431.30</ele>
        <time>2012-11-25T11:25:10Z</time>
      </trkpt>
      <trkpt lat="41.626112200" lon="2.510571700">
        <ele>432.70</ele>
        <time>2012-11-25T11:25:21Z</time>
      </trkpt>
      <trkpt lat="41.626037100" lon="2.510800200">
        <ele>434.60</ele>
        <time>2012-11-25T11:25:31Z</time>
      </trkpt>
      <trkpt lat="41.625985000" lon="2.510947600">
        <ele>436.10</ele>
        <time>2012-11-25T11:25:36Z</time>
      </trkpt>
      <trkpt lat="41.625920700" lon="2.511134200">
        <ele>437.10</ele>
        <time>2012-11-25T11:25:45Z</time>
      </trkpt>
      <trkpt lat="41.625855400" lon="2.511318000">
        <ele>439.00</ele>
        <time>2012-11-25T11:25:52Z</time>
      </trkpt>
      <trkpt lat="41.625845000" lon="2.511489800">
        <ele>439.90</ele>
        <time>2012-11-25T11:25:59Z</time>
      </trkpt>
      <trkpt lat="41.625893600" lon="2.511675800">
        <ele>441.40</ele>
        <time>2012-11-25T11:26:08Z</time>
      </trkpt>
      <trkpt lat="41.626027200" lon="2.511728900">
        <ele>442.80</ele>
        <time>2012-11-25T11:26:15Z</time>
      </trkpt>
      <trkpt lat="41.626094100" lon="2.511756500">
        <ele>444.30</ele>
        <time>2012-11-25T11:26:20Z</time>
      </trkpt>
      <trkpt lat="41.626199000" lon="2.511829800">
        <ele>445.20</ele>
        <time>2012-11-25T11:26:25Z</time>
      </trkpt>
      <trkpt lat="41.626280200" lon="2.511994500">
        <ele>446.70</ele>
        <time>2012-11-25T11:26:34Z</time>
      </trkpt>
      <trkpt lat="41.626315100" lon="2.512156600">
        <ele>448.60</ele>
        <time>2012-11-25T11:26:41Z</time>
      </trkpt>
      <trkpt lat="41.626358200" lon="2.512353800">
        <ele>450.00</ele>
        <time>2012-11-25T11:26:48Z</time>
      </trkpt>
      <trkpt lat="41.626368600" lon="2.512531000">
        <ele>451.00</ele>
        <time>2012-11-25T11:26:57Z</time>
      </trkpt>
      <trkpt lat="41.626382100" lon="2.512716300">
        <ele>451.50</ele>
        <time>2012-11-25T11:27:04Z</time>
      </trkpt>
      <trkpt lat="41.626427200" lon="2.512900900">
        <ele>452.90</ele>
        <time>2012-11-25T11:27:12Z</time>
      </trkpt>
      <trkpt lat="41.626523200" lon="2.512951200">
        <ele>453.40</ele>
        <time>2012-11-25T11:27:17Z</time>
      </trkpt>
      <trkpt lat="41.626714600" lon="2.512950300">
        <ele>454.40</ele>
        <time>2012-11-25T11:27:28Z</time>
      </trkpt>
      <trkpt lat="41.626871800" lon="2.512977400">
        <ele>454.80</ele>
        <time>2012-11-25T11:27:35Z</time>
      </trkpt>
      <trkpt lat="41.627032200" lon="2.513080000">
        <ele>455.80</ele>
        <time>2012-11-25T11:27:45Z</time>
      </trkpt>
      <trkpt lat="41.627138300" lon="2.513253200">
        <ele>456.80</ele>
        <time>2012-11-25T11:27:52Z</time>
      </trkpt>
      <trkpt lat="41.627229500" lon="2.513420500">
        <ele>457.20</ele>
        <time>2012-11-25T11:28:01Z</time>
      </trkpt>
      <trkpt lat="41.627290100" lon="2.513567400">
        <ele>457.70</ele>
        <time>2012-11-25T11:28:06Z</time>
      </trkpt>
      <trkpt lat="41.627334600" lon="2.513653200">
        <ele>457.20</ele>
        <time>2012-11-25T11:28:08Z</time>
      </trkpt>
      <trkpt lat="41.627444800" lon="2.513930600">
        <ele>455.80</ele>
        <time>2012-11-25T11:28:13Z</time>
      </trkpt>
      <trkpt lat="41.627504500" lon="2.514323500">
        <ele>453.90</ele>
        <time>2012-11-25T11:28:20Z</time>
      </trkpt>
      <trkpt lat="41.627470800" lon="2.514748200">
        <ele>452.00</ele>
        <time>2012-11-25T11:28:24Z</time>
      </trkpt>
      <trkpt lat="41.627421700" lon="2.514917900">
        <ele>451.00</ele>
        <time>2012-11-25T11:28:27Z</time>
      </trkpt>
      <trkpt lat="41.627316700" lon="2.515147900">
        <ele>449.10</ele>
        <time>2012-11-25T11:28:29Z</time>
      </trkpt>
      <trkpt lat="41.627124700" lon="2.515433600">
        <ele>445.20</ele>
        <time>2012-11-25T11:28:34Z</time>
      </trkpt>
      <trkpt lat="41.627004300" lon="2.515576800">
        <ele>443.80</ele>
        <time>2012-11-25T11:28:36Z</time>
      </trkpt>
      <trkpt lat="41.626765600" lon="2.516025400">
        <ele>440.40</ele>
        <time>2012-11-25T11:28:41Z</time>
      </trkpt>
      <trkpt lat="41.626708300" lon="2.516402800">
        <ele>438.50</ele>
        <time>2012-11-25T11:28:46Z</time>
      </trkpt>
      <trkpt lat="41.626679700" lon="2.516608000">
        <ele>437.50</ele>
        <time>2012-11-25T11:28:48Z</time>
      </trkpt>
      <trkpt lat="41.626656500" lon="2.516821500">
        <ele>436.60</ele>
        <time>2012-11-25T11:28:50Z</time>
      </trkpt>
      <trkpt lat="41.626563700" lon="2.517331800">
        <ele>433.20</ele>
        <time>2012-11-25T11:28:55Z</time>
      </trkpt>
      <trkpt lat="41.626547100" lon="2.517702300">
        <ele>430.80</ele>
        <time>2012-11-25T11:28:59Z</time>
      </trkpt>
      <trkpt lat="41.626557700" lon="2.518282400">
        <ele>429.90</ele>
        <time>2012-11-25T11:29:06Z</time>
      </trkpt>
      <trkpt lat="41.626557200" lon="2.518365400">
        <ele>429.40</ele>
        <time>2012-11-25T11:29:07Z</time>
      </trkpt>
      <trkpt lat="41.626577500" lon="2.518691600">
        <ele>430.80</ele>
        <time>2012-11-25T11:29:12Z</time>
      </trkpt>
      <trkpt lat="41.626665000" lon="2.518929300">
        <ele>431.30</ele>
        <time>2012-11-25T11:29:19Z</time>
      </trkpt>
      <trkpt lat="41.626692500" lon="2.519023900">
        <ele>431.30</ele>
        <time>2012-11-25T11:29:21Z</time>
      </trkpt>
      <trkpt lat="41.626713300" lon="2.519145900">
        <ele>430.80</ele>
        <time>2012-11-25T11:29:23Z</time>
      </trkpt>
      <trkpt lat="41.626751400" lon="2.519606500">
        <ele>428.40</ele>
        <time>2012-11-25T11:29:30Z</time>
      </trkpt>
      <trkpt lat="41.626704900" lon="2.519993500">
        <ele>427.40</ele>
        <time>2012-11-25T11:29:35Z</time>
      </trkpt>
      <trkpt lat="41.626633800" lon="2.520148700">
        <ele>427.00</ele>
        <time>2012-11-25T11:29:39Z</time>
      </trkpt>
      <trkpt lat="41.626593000" lon="2.520114300">
        <ele>426.50</ele>
        <time>2012-11-25T11:29:44Z</time>
      </trkpt>
      <trkpt lat="41.626603700" lon="2.520088100">
        <ele>426.50</ele>
        <time>2012-11-25T11:29:44Z</time>
      </trkpt>
      <trkpt lat="41.626651900" lon="2.519845100">
        <ele>423.60</ele>
        <time>2012-11-25T11:29:49Z</time>
      </trkpt>
      <trkpt lat="41.626599400" lon="2.519626300">
        <ele>420.70</ele>
        <time>2012-11-25T11:29:54Z</time>
      </trkpt>
      <trkpt lat="41.626528200" lon="2.519430200">
        <ele>417.40</ele>
        <time>2012-11-25T11:29:58Z</time>
      </trkpt>
      <trkpt lat="41.626451500" lon="2.519265400">
        <ele>414.50</ele>
        <time>2012-11-25T11:30:01Z</time>
      </trkpt>
      <trkpt lat="41.626314400" lon="2.519026100">
        <ele>411.10</ele>
        <time>2012-11-25T11:30:05Z</time>
      </trkpt>
      <trkpt lat="41.626212600" lon="2.518832200">
        <ele>407.70</ele>
        <time>2012-11-25T11:30:08Z</time>
      </trkpt>
      <trkpt lat="41.626172200" lon="2.518742800">
        <ele>406.80</ele>
        <time>2012-11-25T11:30:10Z</time>
      </trkpt>
      <trkpt lat="41.626151300" lon="2.518688500">
        <ele>405.30</ele>
        <time>2012-11-25T11:30:12Z</time>
      </trkpt>
      <trkpt lat="41.626068900" lon="2.518509400">
        <ele>403.40</ele>
        <time>2012-11-25T11:30:15Z</time>
      </trkpt>
      <trkpt lat="41.625959000" lon="2.518164100">
        <ele>398.60</ele>
        <time>2012-11-25T11:30:19Z</time>
      </trkpt>
      <trkpt lat="41.625915700" lon="2.517928800">
        <ele>396.20</ele>
        <time>2012-11-25T11:30:24Z</time>
      </trkpt>
      <trkpt lat="41.625889400" lon="2.517836000">
        <ele>394.80</ele>
        <time>2012-11-25T11:30:26Z</time>
      </trkpt>
      <trkpt lat="41.625819300" lon="2.517712500">
        <ele>392.80</ele>
        <time>2012-11-25T11:30:31Z</time>
      </trkpt>
      <trkpt lat="41.625732700" lon="2.517534700">
        <ele>390.00</ele>
        <time>2012-11-25T11:30:36Z</time>
      </trkpt>
      <trkpt lat="41.625565900" lon="2.517348300">
        <ele>387.10</ele>
        <time>2012-11-25T11:30:41Z</time>
      </trkpt>
      <trkpt lat="41.625433600" lon="2.517279500">
        <ele>385.10</ele>
        <time>2012-11-25T11:30:45Z</time>
      </trkpt>
      <trkpt lat="41.625271700" lon="2.517159000">
        <ele>383.20</ele>
        <time>2012-11-25T11:30:48Z</time>
      </trkpt>
      <trkpt lat="41.625169300" lon="2.517097500">
        <ele>381.80</ele>
        <time>2012-11-25T11:30:50Z</time>
      </trkpt>
      <trkpt lat="41.624921100" lon="2.517001300">
        <ele>378.90</ele>
        <time>2012-11-25T11:30:57Z</time>
      </trkpt>
      <trkpt lat="41.624627800" lon="2.517028300">
        <ele>376.00</ele>
        <time>2012-11-25T11:31:02Z</time>
      </trkpt>
      <trkpt lat="41.624555000" lon="2.517063300">
        <ele>375.00</ele>
        <time>2012-11-25T11:31:04Z</time>
      </trkpt>
      <trkpt lat="41.624325200" lon="2.517136300">
        <ele>370.70</ele>
        <time>2012-11-25T11:31:11Z</time>
      </trkpt>
      <trkpt lat="41.624184300" lon="2.517203700">
        <ele>368.30</ele>
        <time>2012-11-25T11:31:16Z</time>
      </trkpt>
      <trkpt lat="41.624168900" lon="2.517228000">
        <ele>367.80</ele>
        <time>2012-11-25T11:31:18Z</time>
      </trkpt>
      <trkpt lat="41.624232800" lon="2.517297900">
        <ele>366.90</ele>
        <time>2012-11-25T11:31:23Z</time>
      </trkpt>
      <trkpt lat="41.624354800" lon="2.517264400">
        <ele>366.40</ele>
        <time>2012-11-25T11:31:28Z</time>
      </trkpt>
      <trkpt lat="41.624632700" lon="2.517271400">
        <ele>365.00</ele>
        <time>2012-11-25T11:31:35Z</time>
      </trkpt>
      <trkpt lat="41.624888400" lon="2.517340100">
        <ele>364.00</ele>
        <time>2012-11-25T11:31:42Z</time>
      </trkpt>
      <trkpt lat="41.625127100" lon="2.517476500">
        <ele>364.50</ele>
        <time>2012-11-25T11:31:49Z</time>
      </trkpt>
      <trkpt lat="41.625283800" lon="2.517530600">
        <ele>365.40</ele>
        <time>2012-11-25T11:31:54Z</time>
      </trkpt>
      <trkpt lat="41.625366300" lon="2.517631200">
        <ele>366.90</ele>
        <time>2012-11-25T11:32:00Z</time>
      </trkpt>
      <trkpt lat="41.625394200" lon="2.517720200">
        <ele>367.80</ele>
        <time>2012-11-25T11:32:05Z</time>
      </trkpt>
      <trkpt lat="41.625446300" lon="2.517886400">
        <ele>369.30</ele>
        <time>2012-11-25T11:32:12Z</time>
      </trkpt>
      <trkpt lat="41.625468800" lon="2.518035900">
        <ele>370.70</ele>
        <time>2012-11-25T11:32:17Z</time>
      </trkpt>
      <trkpt lat="41.625580000" lon="2.518267500">
        <ele>372.60</ele>
        <time>2012-11-25T11:32:28Z</time>
      </trkpt>
      <trkpt lat="41.625627800" lon="2.518409600">
        <ele>374.10</ele>
        <time>2012-11-25T11:32:33Z</time>
      </trkpt>
      <trkpt lat="41.625662500" lon="2.518700700">
        <ele>376.00</ele>
        <time>2012-11-25T11:32:45Z</time>
      </trkpt>
      <trkpt lat="41.625703100" lon="2.518805800">
        <ele>376.50</ele>
        <time>2012-11-25T11:32:50Z</time>
      </trkpt>
      <trkpt lat="41.625780000" lon="2.518987800">
        <ele>377.90</ele>
        <time>2012-11-25T11:32:59Z</time>
      </trkpt>
      <trkpt lat="41.625852600" lon="2.519143300">
        <ele>378.90</ele>
        <time>2012-11-25T11:33:08Z</time>
      </trkpt>
      <trkpt lat="41.625881800" lon="2.519313200">
        <ele>379.90</ele>
        <time>2012-11-25T11:33:15Z</time>
      </trkpt>
      <trkpt lat="41.625795200" lon="2.519502300">
        <ele>379.90</ele>
        <time>2012-11-25T11:33:22Z</time>
      </trkpt>
      <trkpt lat="41.625647100" lon="2.519646800">
        <ele>379.90</ele>
        <time>2012-11-25T11:33:27Z</time>
      </trkpt>
      <trkpt lat="41.625433500" lon="2.519794600">
        <ele>380.30</ele>
        <time>2012-11-25T11:33:34Z</time>
      </trkpt>
      <trkpt lat="41.625381300" lon="2.519853300">
        <ele>379.90</ele>
        <time>2012-11-25T11:33:37Z</time>
      </trkpt>
      <trkpt lat="41.625382800" lon="2.520073600">
        <ele>379.90</ele>
        <time>2012-11-25T11:33:41Z</time>
      </trkpt>
      <trkpt lat="41.625427900" lon="2.520276000">
        <ele>378.90</ele>
        <time>2012-11-25T11:33:46Z</time>
      </trkpt>
      <trkpt lat="41.625443700" lon="2.520467800">
        <ele>378.40</ele>
        <time>2012-11-25T11:33:48Z</time>
      </trkpt>
      <trkpt lat="41.625563900" lon="2.520878000">
        <ele>375.50</ele>
        <time>2012-11-25T11:33:55Z</time>
      </trkpt>
      <trkpt lat="41.625563400" lon="2.520927400">
        <ele>375.00</ele>
        <time>2012-11-25T11:33:56Z</time>
      </trkpt>
      <trkpt lat="41.625437700" lon="2.521108400">
        <ele>373.60</ele>
        <time>2012-11-25T11:34:02Z</time>
      </trkpt>
      <trkpt lat="41.625373900" lon="2.521147900">
        <ele>373.10</ele>
        <time>2012-11-25T11:34:03Z</time>
      </trkpt>
      <trkpt lat="41.625154200" lon="2.521293300">
        <ele>369.80</ele>
        <time>2012-11-25T11:34:10Z</time>
      </trkpt>
      <trkpt lat="41.625069000" lon="2.521302000">
        <ele>368.30</ele>
        <time>2012-11-25T11:34:14Z</time>
      </trkpt>
      <trkpt lat="41.624964400" lon="2.521304700">
        <ele>366.90</ele>
        <time>2012-11-25T11:34:17Z</time>
      </trkpt>
      <trkpt lat="41.624703700" lon="2.521327600">
        <ele>362.50</ele>
        <time>2012-11-25T11:34:24Z</time>
      </trkpt>
      <trkpt lat="41.624579900" lon="2.521253500">
        <ele>361.10</ele>
        <time>2012-11-25T11:34:26Z</time>
      </trkpt>
      <trkpt lat="41.624454900" lon="2.521197300">
        <ele>360.10</ele>
        <time>2012-11-25T11:34:28Z</time>
      </trkpt>
      <trkpt lat="41.624285400" lon="2.521187900">
        <ele>356.30</ele>
        <time>2012-11-25T11:34:31Z</time>
      </trkpt>
      <trkpt lat="41.624024300" lon="2.521343000">
        <ele>352.50</ele>
        <time>2012-11-25T11:34:36Z</time>
      </trkpt>
      <trkpt lat="41.623876200" lon="2.521682500">
        <ele>348.10</ele>
        <time>2012-11-25T11:34:42Z</time>
      </trkpt>
      <trkpt lat="41.623762200" lon="2.521887100">
        <ele>345.20</ele>
        <time>2012-11-25T11:34:45Z</time>
      </trkpt>
      <trkpt lat="41.623653400" lon="2.522056500">
        <ele>342.90</ele>
        <time>2012-11-25T11:34:49Z</time>
      </trkpt>
      <trkpt lat="41.623599300" lon="2.522103700">
        <ele>341.90</ele>
        <time>2012-11-25T11:34:52Z</time>
      </trkpt>
      <trkpt lat="41.623587600" lon="2.522229900">
        <ele>341.40</ele>
        <time>2012-11-25T11:34:57Z</time>
      </trkpt>
      <trkpt lat="41.623510500" lon="2.522294800">
        <ele>339.50</ele>
        <time>2012-11-25T11:35:01Z</time>
      </trkpt>
      <trkpt lat="41.623443900" lon="2.522345700">
        <ele>337.60</ele>
        <time>2012-11-25T11:35:03Z</time>
      </trkpt>
      <trkpt lat="41.623365000" lon="2.522396900">
        <ele>335.20</ele>
        <time>2012-11-25T11:35:04Z</time>
      </trkpt>
      <trkpt lat="41.623198500" lon="2.522500900">
        <ele>332.80</ele>
        <time>2012-11-25T11:35:08Z</time>
      </trkpt>
      <trkpt lat="41.623098300" lon="2.522468900">
        <ele>331.80</ele>
        <time>2012-11-25T11:35:11Z</time>
      </trkpt>
      <trkpt lat="41.622883300" lon="2.522409300">
        <ele>329.90</ele>
        <time>2012-11-25T11:35:15Z</time>
      </trkpt>
      <trkpt lat="41.622641200" lon="2.522393700">
        <ele>330.40</ele>
        <time>2012-11-25T11:35:20Z</time>
      </trkpt>
      <trkpt lat="41.622423300" lon="2.522395800">
        <ele>329.40</ele>
        <time>2012-11-25T11:35:25Z</time>
      </trkpt>
      <trkpt lat="41.622217400" lon="2.522431900">
        <ele>326.50</ele>
        <time>2012-11-25T11:35:30Z</time>
      </trkpt>
      <trkpt lat="41.622064800" lon="2.522398900">
        <ele>323.10</ele>
        <time>2012-11-25T11:35:34Z</time>
      </trkpt>
      <trkpt lat="41.621915600" lon="2.522203100">
        <ele>320.30</ele>
        <time>2012-11-25T11:35:39Z</time>
      </trkpt>
      <trkpt lat="41.621839100" lon="2.522004700">
        <ele>317.40</ele>
        <time>2012-11-25T11:35:41Z</time>
      </trkpt>
      <trkpt lat="41.621753100" lon="2.521813100">
        <ele>315.00</ele>
        <time>2012-11-25T11:35:44Z</time>
      </trkpt>
      <trkpt lat="41.621676200" lon="2.521687400">
        <ele>313.50</ele>
        <time>2012-11-25T11:35:46Z</time>
      </trkpt>
      <trkpt lat="41.621481900" lon="2.521376900">
        <ele>310.20</ele>
        <time>2012-11-25T11:35:51Z</time>
      </trkpt>
      <trkpt lat="41.621408600" lon="2.521251000">
        <ele>308.20</ele>
        <time>2012-11-25T11:35:53Z</time>
      </trkpt>
      <trkpt lat="41.621226400" lon="2.521171800">
        <ele>304.40</ele>
        <time>2012-11-25T11:35:58Z</time>
      </trkpt>
      <trkpt lat="41.621170800" lon="2.521188900">
        <ele>303.40</ele>
        <time>2012-11-25T11:36:00Z</time>
      </trkpt>
      <trkpt lat="41.621124100" lon="2.521100800">
        <ele>303.00</ele>
        <time>2012-11-25T11:36:04Z</time>
      </trkpt>
      <trkpt lat="41.621208600" lon="2.521034200">
        <ele>302.00</ele>
        <time>2012-11-25T11:36:07Z</time>
      </trkpt>
      <trkpt lat="41.621345500" lon="2.520990500">
        <ele>301.50</ele>
        <time>2012-11-25T11:36:09Z</time>
      </trkpt>
      <trkpt lat="41.621592800" lon="2.521031700">
        <ele>300.10</ele>
        <time>2012-11-25T11:36:14Z</time>
      </trkpt>
      <trkpt lat="41.621791500" lon="2.520984900">
        <ele>298.60</ele>
        <time>2012-11-25T11:36:19Z</time>
      </trkpt>
      <trkpt lat="41.621947700" lon="2.520834900">
        <ele>297.20</ele>
        <time>2012-11-25T11:36:23Z</time>
      </trkpt>
      <trkpt lat="41.622212600" lon="2.520617500">
        <ele>293.80</ele>
        <time>2012-11-25T11:36:28Z</time>
      </trkpt>
      <trkpt lat="41.622419400" lon="2.520535400">
        <ele>290.00</ele>
        <time>2012-11-25T11:36:33Z</time>
      </trkpt>
      <trkpt lat="41.622475900" lon="2.520428400">
        <ele>288.50</ele>
        <time>2012-11-25T11:36:35Z</time>
      </trkpt>
      <trkpt lat="41.622365500" lon="2.520378700">
        <ele>287.60</ele>
        <time>2012-11-25T11:36:38Z</time>
      </trkpt>
      <trkpt lat="41.622064800" lon="2.520468000">
        <ele>282.80</ele>
        <time>2012-11-25T11:36:47Z</time>
      </trkpt>
      <trkpt lat="41.621945300" lon="2.520453800">
        <ele>280.40</ele>
        <time>2012-11-25T11:36:51Z</time>
      </trkpt>
      <trkpt lat="41.621765500" lon="2.520410000">
        <ele>277.50</ele>
        <time>2012-11-25T11:36:54Z</time>
      </trkpt>
      <trkpt lat="41.621496600" lon="2.520329100">
        <ele>273.10</ele>
        <time>2012-11-25T11:36:59Z</time>
      </trkpt>
      <trkpt lat="41.621212100" lon="2.520299000">
        <ele>269.30</ele>
        <time>2012-11-25T11:37:03Z</time>
      </trkpt>
      <trkpt lat="41.620833900" lon="2.520213900">
        <ele>265.50</ele>
        <time>2012-11-25T11:37:08Z</time>
      </trkpt>
      <trkpt lat="41.620551900" lon="2.520175500">
        <ele>261.60</ele>
        <time>2012-11-25T11:37:13Z</time>
      </trkpt>
      <trkpt lat="41.620328600" lon="2.520130300">
        <ele>258.70</ele>
        <time>2012-11-25T11:37:17Z</time>
      </trkpt>
      <trkpt lat="41.620270500" lon="2.520122300">
        <ele>258.20</ele>
        <time>2012-11-25T11:37:17Z</time>
      </trkpt>
      <trkpt lat="41.620207800" lon="2.520116400">
        <ele>257.80</ele>
        <time>2012-11-25T11:37:18Z</time>
      </trkpt>
      <trkpt lat="41.619960800" lon="2.520188000">
        <ele>254.40</ele>
        <time>2012-11-25T11:37:22Z</time>
      </trkpt>
      <trkpt lat="41.619706900" lon="2.520304400">
        <ele>249.10</ele>
        <time>2012-11-25T11:37:27Z</time>
      </trkpt>
      <trkpt lat="41.619582100" lon="2.520340400">
        <ele>247.70</ele>
        <time>2012-11-25T11:37:31Z</time>
      </trkpt>
      <trkpt lat="41.619436000" lon="2.520301000">
        <ele>245.80</ele>
        <time>2012-11-25T11:37:34Z</time>
      </trkpt>
      <trkpt lat="41.619198800" lon="2.520325300">
        <ele>243.40</ele>
        <time>2012-11-25T11:37:38Z</time>
      </trkpt>
      <trkpt lat="41.618891600" lon="2.520491700">
        <ele>238.50</ele>
        <time>2012-11-25T11:37:43Z</time>
      </trkpt>
      <trkpt lat="41.618834600" lon="2.520521600">
        <ele>238.10</ele>
        <time>2012-11-25T11:37:43Z</time>
      </trkpt>
      <trkpt lat="41.618597500" lon="2.520570900">
        <ele>234.70</ele>
        <time>2012-11-25T11:37:48Z</time>
      </trkpt>
      <trkpt lat="41.618339300" lon="2.520766100">
        <ele>231.80</ele>
        <time>2012-11-25T11:37:53Z</time>
      </trkpt>
      <trkpt lat="41.618317800" lon="2.520848100">
        <ele>230.90</ele>
        <time>2012-11-25T11:37:53Z</time>
      </trkpt>
      <trkpt lat="41.618134300" lon="2.521313500">
        <ele>225.60</ele>
        <time>2012-11-25T11:38:00Z</time>
      </trkpt>
      <trkpt lat="41.618031000" lon="2.521551000">
        <ele>221.70</ele>
        <time>2012-11-25T11:38:04Z</time>
      </trkpt>
      <trkpt lat="41.618015100" lon="2.521592500">
        <ele>220.80</ele>
        <time>2012-11-25T11:38:04Z</time>
      </trkpt>
      <trkpt lat="41.617901200" lon="2.521580500">
        <ele>218.80</ele>
        <time>2012-11-25T11:38:09Z</time>
      </trkpt>
      <trkpt lat="41.617892500" lon="2.521555100">
        <ele>218.40</ele>
        <time>2012-11-25T11:38:11Z</time>
      </trkpt>
      <trkpt lat="41.617876600" lon="2.521519100">
        <ele>218.40</ele>
        <time>2012-11-25T11:38:18Z</time>
      </trkpt>
      <trkpt lat="41.617873100" lon="2.521515200">
        <ele>217.90</ele>
        <time>2012-11-25T11:38:33Z</time>
      </trkpt>
      <trkpt lat="41.617875900" lon="2.521512600">
        <ele>218.40</ele>
        <time>2012-11-25T11:38:39Z</time>
      </trkpt>
      <trkpt lat="41.617828100" lon="2.521334500">
        <ele>216.90</ele>
        <time>2012-11-25T11:38:44Z</time>
      </trkpt>
      <trkpt lat="41.617744300" lon="2.521052700">
        <ele>215.90</ele>
        <time>2012-11-25T11:38:51Z</time>
      </trkpt>
      <trkpt lat="41.617682800" lon="2.520774100">
        <ele>214.50</ele>
        <time>2012-11-25T11:38:58Z</time>
      </trkpt>
      <trkpt lat="41.617699500" lon="2.520532500">
        <ele>213.60</ele>
        <time>2012-11-25T11:39:03Z</time>
      </trkpt>
      <trkpt lat="41.617696200" lon="2.520329100">
        <ele>213.10</ele>
        <time>2012-11-25T11:39:06Z</time>
      </trkpt>
      <trkpt lat="41.617802200" lon="2.520110900">
        <ele>210.20</ele>
        <time>2012-11-25T11:39:10Z</time>
      </trkpt>
      <trkpt lat="41.617928100" lon="2.519928500">
        <ele>207.80</ele>
        <time>2012-11-25T11:39:15Z</time>
      </trkpt>
      <trkpt lat="41.617861800" lon="2.519779700">
        <ele>206.80</ele>
        <time>2012-11-25T11:39:17Z</time>
      </trkpt>
      <trkpt lat="41.617826200" lon="2.519697400">
        <ele>205.90</ele>
        <time>2012-11-25T11:39:20Z</time>
      </trkpt>
      <trkpt lat="41.617828200" lon="2.519684000">
        <ele>205.90</ele>
        <time>2012-11-25T11:39:22Z</time>
      </trkpt>
      <trkpt lat="41.617809800" lon="2.519645700">
        <ele>204.40</ele>
        <time>2012-11-25T11:39:26Z</time>
      </trkpt>
      <trkpt lat="41.617796100" lon="2.519652100">
        <ele>204.40</ele>
        <time>2012-11-25T11:39:33Z</time>
      </trkpt>
      <trkpt lat="41.617750900" lon="2.519644400">
        <ele>204.40</ele>
        <time>2012-11-25T11:39:36Z</time>
      </trkpt>
      <trkpt lat="41.617501900" lon="2.519652400">
        <ele>203.50</ele>
        <time>2012-11-25T11:39:45Z</time>
      </trkpt>
      <trkpt lat="41.617181100" lon="2.519674700">
        <ele>202.00</ele>
        <time>2012-11-25T11:39:54Z</time>
      </trkpt>
      <trkpt lat="41.616966100" lon="2.519697600">
        <ele>200.60</ele>
        <time>2012-11-25T11:40:00Z</time>
      </trkpt>
      <trkpt lat="41.616770500" lon="2.519766500">
        <ele>199.60</ele>
        <time>2012-11-25T11:40:09Z</time>
      </trkpt>
      <trkpt lat="41.616560000" lon="2.519870700">
        <ele>198.20</ele>
        <time>2012-11-25T11:40:14Z</time>
      </trkpt>
      <trkpt lat="41.616448100" lon="2.519942600">
        <ele>197.70</ele>
        <time>2012-11-25T11:40:20Z</time>
      </trkpt>
      <trkpt lat="41.616396700" lon="2.519993800">
        <ele>198.60</ele>
        <time>2012-11-25T11:40:23Z</time>
      </trkpt>
      <trkpt lat="41.616354600" lon="2.519994900">
        <ele>199.60</ele>
        <time>2012-11-25T11:40:25Z</time>
      </trkpt>
      <trkpt lat="41.616366900" lon="2.519867900">
        <ele>200.60</ele>
        <time>2012-11-25T11:40:32Z</time>
      </trkpt>
      <trkpt lat="41.616346300" lon="2.519844300">
        <ele>200.60</ele>
        <time>2012-11-25T11:40:42Z</time>
      </trkpt>
      <trkpt lat="41.616332200" lon="2.519873100">
        <ele>200.60</ele>
        <time>2012-11-25T11:41:00Z</time>
      </trkpt>
      <trkpt lat="41.616323200" lon="2.519877400">
        <ele>200.60</ele>
        <time>2012-11-25T11:41:14Z</time>
      </trkpt>
      <trkpt lat="41.616325900" lon="2.519817500">
        <ele>200.60</ele>
        <time>2012-11-25T11:41:26Z</time>
      </trkpt>
      <trkpt lat="41.616323600" lon="2.519807400">
        <ele>200.60</ele>
        <time>2012-11-25T11:41:36Z</time>
      </trkpt>
      <trkpt lat="41.616325200" lon="2.519861200">
        <ele>200.60</ele>
        <time>2012-11-25T11:41:52Z</time>
      </trkpt>
      <trkpt lat="41.616329500" lon="2.519893500">
        <ele>200.60</ele>
        <time>2012-11-25T11:42:06Z</time>
      </trkpt>
      <trkpt lat="41.616323800" lon="2.519879400">
        <ele>200.60</ele>
        <time>2012-11-25T11:42:20Z</time>
      </trkpt>
      <trkpt lat="41.616336600" lon="2.519864800">
        <ele>200.60</ele>
        <time>2012-11-25T11:42:39Z</time>
      </trkpt>
      <trkpt lat="41.616339200" lon="2.519857300">
        <ele>200.60</ele>
        <time>2012-11-25T11:42:53Z</time>
      </trkpt>
      <trkpt lat="41.616335800" lon="2.519863700">
        <ele>201.10</ele>
        <time>2012-11-25T11:43:03Z</time>
      </trkpt>
      <trkpt lat="41.616357200" lon="2.519850800">
        <ele>200.60</ele>
        <time>2012-11-25T11:43:17Z</time>
      </trkpt>
      <trkpt lat="41.616375500" lon="2.519845800">
        <ele>201.10</ele>
        <time>2012-11-25T11:43:26Z</time>
      </trkpt>
      <trkpt lat="41.616370500" lon="2.519860300">
        <ele>201.10</ele>
        <time>2012-11-25T11:43:43Z</time>
      </trkpt>
      <trkpt lat="41.616362700" lon="2.519877300">
        <ele>200.60</ele>
        <time>2012-11-25T11:43:49Z</time>
      </trkpt>
      <trkpt lat="41.616371900" lon="2.519900600">
        <ele>201.10</ele>
        <time>2012-11-25T11:44:04Z</time>
      </trkpt>
      <trkpt lat="41.616365500" lon="2.519901600">
        <ele>201.10</ele>
        <time>2012-11-25T11:44:10Z</time>
      </trkpt>
      <trkpt lat="41.616305400" lon="2.520071500">
        <ele>200.60</ele>
        <time>2012-11-25T11:44:15Z</time>
      </trkpt>
      <trkpt lat="41.616196400" lon="2.520356000">
        <ele>199.60</ele>
        <time>2012-11-25T11:44:22Z</time>
      </trkpt>
      <trkpt lat="41.616047600" lon="2.520782300">
        <ele>198.60</ele>
        <time>2012-11-25T11:44:29Z</time>
      </trkpt>
      <trkpt lat="41.615952600" lon="2.521282700">
        <ele>198.20</ele>
        <time>2012-11-25T11:44:36Z</time>
      </trkpt>
      <trkpt lat="41.615865900" lon="2.521883800">
        <ele>197.20</ele>
        <time>2012-11-25T11:44:43Z</time>
      </trkpt>
      <trkpt lat="41.615789800" lon="2.522463700">
        <ele>194.80</ele>
        <time>2012-11-25T11:44:50Z</time>
      </trkpt>
      <trkpt lat="41.615756800" lon="2.522680700">
        <ele>194.30</ele>
        <time>2012-11-25T11:44:51Z</time>
      </trkpt>
      <trkpt lat="41.615669000" lon="2.523353500">
        <ele>192.90</ele>
        <time>2012-11-25T11:44:58Z</time>
      </trkpt>
      <trkpt lat="41.615638500" lon="2.523894100">
        <ele>191.00</ele>
        <time>2012-11-25T11:45:02Z</time>
      </trkpt>
      <trkpt lat="41.615544300" lon="2.524872600">
        <ele>187.10</ele>
        <time>2012-11-25T11:45:11Z</time>
      </trkpt>
      <trkpt lat="41.615514800" lon="2.525374900">
        <ele>185.20</ele>
        <time>2012-11-25T11:45:14Z</time>
      </trkpt>
      <trkpt lat="41.615539300" lon="2.526201100">
        <ele>182.80</ele>
        <time>2012-11-25T11:45:21Z</time>
      </trkpt>
      <trkpt lat="41.615574700" lon="2.526536400">
        <ele>181.80</ele>
        <time>2012-11-25T11:45:24Z</time>
      </trkpt>
      <trkpt lat="41.615575300" lon="2.526876600">
        <ele>180.90</ele>
        <time>2012-11-25T11:45:28Z</time>
      </trkpt>
      <trkpt lat="41.615516600" lon="2.527346500">
        <ele>178.50</ele>
        <time>2012-11-25T11:45:31Z</time>
      </trkpt>
      <trkpt lat="41.615411500" lon="2.527925600">
        <ele>175.10</ele>
        <time>2012-11-25T11:45:37Z</time>
      </trkpt>
      <trkpt lat="41.615306900" lon="2.528462700">
        <ele>174.10</ele>
        <time>2012-11-25T11:45:42Z</time>
      </trkpt>
      <trkpt lat="41.615251000" lon="2.528718700">
        <ele>173.70</ele>
        <time>2012-11-25T11:45:45Z</time>
      </trkpt>
      <trkpt lat="41.615192900" lon="2.529128000">
        <ele>173.20</ele>
        <time>2012-11-25T11:45:51Z</time>
      </trkpt>
      <trkpt lat="41.615171800" lon="2.529662800">
        <ele>170.80</ele>
        <time>2012-11-25T11:45:56Z</time>
      </trkpt>
      <trkpt lat="41.615158200" lon="2.530229600">
        <ele>169.30</ele>
        <time>2012-11-25T11:46:03Z</time>
      </trkpt>
      <trkpt lat="41.615144900" lon="2.530958100">
        <ele>167.40</ele>
        <time>2012-11-25T11:46:10Z</time>
      </trkpt>
      <trkpt lat="41.615122000" lon="2.531264400">
        <ele>166.40</ele>
        <time>2012-11-25T11:46:13Z</time>
      </trkpt>
      <trkpt lat="41.615181600" lon="2.531518500">
        <ele>165.50</ele>
        <time>2012-11-25T11:46:15Z</time>
      </trkpt>
      <trkpt lat="41.615225500" lon="2.531925700">
        <ele>163.60</ele>
        <time>2012-11-25T11:46:20Z</time>
      </trkpt>
      <trkpt lat="41.615073700" lon="2.532733200">
        <ele>161.60</ele>
        <time>2012-11-25T11:46:27Z</time>
      </trkpt>
      <trkpt lat="41.614828700" lon="2.533529400">
        <ele>159.20</ele>
        <time>2012-11-25T11:46:36Z</time>
      </trkpt>
      <trkpt lat="41.614496300" lon="2.534540600">
        <ele>156.40</ele>
        <time>2012-11-25T11:46:46Z</time>
      </trkpt>
      <trkpt lat="41.614395700" lon="2.534838100">
        <ele>154.90</ele>
        <time>2012-11-25T11:46:48Z</time>
      </trkpt>
      <trkpt lat="41.614126500" lon="2.535685700">
        <ele>152.50</ele>
        <time>2012-11-25T11:46:57Z</time>
      </trkpt>
      <trkpt lat="41.613876700" lon="2.536363400">
        <ele>150.10</ele>
        <time>2012-11-25T11:47:05Z</time>
      </trkpt>
      <trkpt lat="41.613742100" lon="2.536628100">
        <ele>148.20</ele>
        <time>2012-11-25T11:47:11Z</time>
      </trkpt>
      <trkpt lat="41.613632200" lon="2.536794100">
        <ele>147.20</ele>
        <time>2012-11-25T11:47:18Z</time>
      </trkpt>
      <trkpt lat="41.613563900" lon="2.536958600">
        <ele>147.20</ele>
        <time>2012-11-25T11:47:23Z</time>
      </trkpt>
      <trkpt lat="41.613425200" lon="2.537131200">
        <ele>146.30</ele>
        <time>2012-11-25T11:47:30Z</time>
      </trkpt>
      <trkpt lat="41.613320400" lon="2.537258700">
        <ele>145.80</ele>
        <time>2012-11-25T11:47:35Z</time>
      </trkpt>
      <trkpt lat="41.613291900" lon="2.537385900">
        <ele>145.80</ele>
        <time>2012-11-25T11:47:42Z</time>
      </trkpt>
      <trkpt lat="41.613223700" lon="2.537519200">
        <ele>145.80</ele>
        <time>2012-11-25T11:47:49Z</time>
      </trkpt>
      <trkpt lat="41.613121000" lon="2.537641500">
        <ele>145.30</ele>
        <time>2012-11-25T11:47:56Z</time>
      </trkpt>
      <trkpt lat="41.613093500" lon="2.537669900">
        <ele>144.80</ele>
        <time>2012-11-25T11:47:58Z</time>
      </trkpt>
      <trkpt lat="41.613039400" lon="2.537732900">
        <ele>144.30</ele>
        <time>2012-11-25T11:48:03Z</time>
      </trkpt>
      <trkpt lat="41.612878900" lon="2.537877100">
        <ele>144.30</ele>
        <time>2012-11-25T11:48:10Z</time>
      </trkpt>
      <trkpt lat="41.612730400" lon="2.537997900">
        <ele>143.40</ele>
        <time>2012-11-25T11:48:17Z</time>
      </trkpt>
      <trkpt lat="41.612581700" lon="2.538145400">
        <ele>142.40</ele>
        <time>2012-11-25T11:48:24Z</time>
      </trkpt>
      <trkpt lat="41.612537900" lon="2.538216200">
        <ele>141.90</ele>
        <time>2012-11-25T11:48:33Z</time>
      </trkpt>
      <trkpt lat="41.612488000" lon="2.538206800">
        <ele>141.90</ele>
        <time>2012-11-25T11:48:40Z</time>
      </trkpt>
      <trkpt lat="41.612489400" lon="2.538218000">
        <ele>141.90</ele>
        <time>2012-11-25T11:48:52Z</time>
      </trkpt>
      <trkpt lat="41.612479800" lon="2.538245600">
        <ele>141.90</ele>
        <time>2012-11-25T11:48:59Z</time>
      </trkpt>
      <trkpt lat="41.612349100" lon="2.538406400">
        <ele>141.40</ele>
        <time>2012-11-25T11:49:06Z</time>
      </trkpt>
      <trkpt lat="41.612264200" lon="2.538523100">
        <ele>141.40</ele>
        <time>2012-11-25T11:49:09Z</time>
      </trkpt>
      <trkpt lat="41.612171100" lon="2.538740600">
        <ele>141.00</ele>
        <time>2012-11-25T11:49:13Z</time>
      </trkpt>
      <trkpt lat="41.611985500" lon="2.539058400">
        <ele>140.00</ele>
        <time>2012-11-25T11:49:20Z</time>
      </trkpt>
      <trkpt lat="41.611949000" lon="2.539087700">
        <ele>139.10</ele>
        <time>2012-11-25T11:49:21Z</time>
      </trkpt>
      <trkpt lat="41.611928700" lon="2.538964300">
        <ele>139.50</ele>
        <time>2012-11-25T11:49:25Z</time>
      </trkpt>
      <trkpt lat="41.611868700" lon="2.538806300">
        <ele>141.00</ele>
        <time>2012-11-25T11:49:30Z</time>
      </trkpt>
      <trkpt lat="41.611610500" lon="2.538755200">
        <ele>141.40</ele>
        <time>2012-11-25T11:49:37Z</time>
      </trkpt>
      <trkpt lat="41.611559700" lon="2.538751500">
        <ele>141.40</ele>
        <time>2012-11-25T11:49:37Z</time>
      </trkpt>
      <trkpt lat="41.611450700" lon="2.538753000">
        <ele>141.00</ele>
        <time>2012-11-25T11:49:39Z</time>
      </trkpt>
      <trkpt lat="41.611339500" lon="2.538762200">
        <ele>140.00</ele>
        <time>2012-11-25T11:49:42Z</time>
      </trkpt>
      <trkpt lat="41.611224700" lon="2.538769500">
        <ele>139.50</ele>
        <time>2012-11-25T11:49:44Z</time>
      </trkpt>
      <trkpt lat="41.610975400" lon="2.538840400">
        <ele>138.10</ele>
        <time>2012-11-25T11:49:49Z</time>
      </trkpt>
      <trkpt lat="41.610717800" lon="2.538994500">
        <ele>136.60</ele>
        <time>2012-11-25T11:49:56Z</time>
      </trkpt>
      <trkpt lat="41.610529500" lon="2.539093400">
        <ele>135.70</ele>
        <time>2012-11-25T11:50:00Z</time>
      </trkpt>
      <trkpt lat="41.610351200" lon="2.539188400">
        <ele>135.20</ele>
        <time>2012-11-25T11:50:05Z</time>
      </trkpt>
      <trkpt lat="41.609958700" lon="2.539422300">
        <ele>133.30</ele>
        <time>2012-11-25T11:50:14Z</time>
      </trkpt>
      <trkpt lat="41.609748900" lon="2.539551900">
        <ele>132.30</ele>
        <time>2012-11-25T11:50:21Z</time>
      </trkpt>
      <trkpt lat="41.609653700" lon="2.539628000">
        <ele>131.40</ele>
        <time>2012-11-25T11:50:26Z</time>
      </trkpt>
      <trkpt lat="41.609531800" lon="2.539685500">
        <ele>130.90</ele>
        <time>2012-11-25T11:50:33Z</time>
      </trkpt>
      <trkpt lat="41.609399900" lon="2.539770600">
        <ele>130.40</ele>
        <time>2012-11-25T11:50:38Z</time>
      </trkpt>
      <trkpt lat="41.609281000" lon="2.539848500">
        <ele>129.40</ele>
        <time>2012-11-25T11:50:45Z</time>
      </trkpt>
      <trkpt lat="41.609182800" lon="2.539973800">
        <ele>128.90</ele>
        <time>2012-11-25T11:50:52Z</time>
      </trkpt>
      <trkpt lat="41.609145300" lon="2.540018700">
        <ele>128.50</ele>
        <time>2012-11-25T11:50:57Z</time>
      </trkpt>
      <trkpt lat="41.609148300" lon="2.540036800">
        <ele>128.50</ele>
        <time>2012-11-25T11:51:02Z</time>
      </trkpt>
      <trkpt lat="41.609138600" lon="2.540138600">
        <ele>128.50</ele>
        <time>2012-11-25T11:51:09Z</time>
      </trkpt>
      <trkpt lat="41.609099300" lon="2.540218600">
        <ele>128.50</ele>
        <time>2012-11-25T11:51:18Z</time>
      </trkpt>
      <trkpt lat="41.609099600" lon="2.540236200">
        <ele>128.00</ele>
        <time>2012-11-25T11:51:23Z</time>
      </trkpt>
      <trkpt lat="41.609118500" lon="2.540274300">
        <ele>128.50</ele>
        <time>2012-11-25T11:51:36Z</time>
      </trkpt>
      <trkpt lat="41.609028200" lon="2.540314800">
        <ele>128.50</ele>
        <time>2012-11-25T11:51:41Z</time>
      </trkpt>
      <trkpt lat="41.608975400" lon="2.540346400">
        <ele>128.50</ele>
        <time>2012-11-25T11:51:42Z</time>
      </trkpt>
      <trkpt lat="41.608936500" lon="2.540445900">
        <ele>128.00</ele>
        <time>2012-11-25T11:51:46Z</time>
      </trkpt>
      <trkpt lat="41.608882600" lon="2.540507000">
        <ele>128.00</ele>
        <time>2012-11-25T11:51:53Z</time>
      </trkpt>
      <trkpt lat="41.608874100" lon="2.540515300">
        <ele>128.50</ele>
        <time>2012-11-25T11:51:55Z</time>
      </trkpt>
      <trkpt lat="41.608862100" lon="2.540395600">
        <ele>127.50</ele>
        <time>2012-11-25T11:52:00Z</time>
      </trkpt>
      <trkpt lat="41.608770900" lon="2.540330600">
        <ele>127.00</ele>
        <time>2012-11-25T11:52:03Z</time>
      </trkpt>
      <trkpt lat="41.608367000" lon="2.540363700">
        <ele>126.10</ele>
        <time>2012-11-25T11:52:12Z</time>
      </trkpt>
      <trkpt lat="41.608082100" lon="2.540378300">
        <ele>125.60</ele>
        <time>2012-11-25T11:52:21Z</time>
      </trkpt>
      <trkpt lat="41.607862700" lon="2.540383800">
        <ele>125.60</ele>
        <time>2012-11-25T11:52:28Z</time>
      </trkpt>
      <trkpt lat="41.607721300" lon="2.540398600">
        <ele>124.60</ele>
        <time>2012-11-25T11:52:33Z</time>
      </trkpt>
      <trkpt lat="41.607714500" lon="2.540409100">
        <ele>124.60</ele>
        <time>2012-11-25T11:52:36Z</time>
      </trkpt>
      <trkpt lat="41.607673500" lon="2.540418000">
        <ele>124.60</ele>
        <time>2012-11-25T11:52:40Z</time>
      </trkpt>
      <trkpt lat="41.607562300" lon="2.540610100">
        <ele>124.20</ele>
        <time>2012-11-25T11:52:45Z</time>
      </trkpt>
      <trkpt lat="41.607547200" lon="2.540639000">
        <ele>124.20</ele>
        <time>2012-11-25T11:52:47Z</time>
      </trkpt>
      <trkpt lat="41.607454400" lon="2.540770500">
        <ele>124.20</ele>
        <time>2012-11-25T11:52:54Z</time>
      </trkpt>
      <trkpt lat="41.607334800" lon="2.540787800">
        <ele>124.20</ele>
        <time>2012-11-25T11:52:57Z</time>
      </trkpt>
      <trkpt lat="41.607196700" lon="2.540765500">
        <ele>123.70</ele>
        <time>2012-11-25T11:52:59Z</time>
      </trkpt>
      <trkpt lat="41.606950700" lon="2.540697900">
        <ele>123.20</ele>
        <time>2012-11-25T11:53:06Z</time>
      </trkpt>
      <trkpt lat="41.606528000" lon="2.540520200">
        <ele>121.70</ele>
        <time>2012-11-25T11:53:15Z</time>
      </trkpt>
      <trkpt lat="41.606404600" lon="2.540453200">
        <ele>121.70</ele>
        <time>2012-11-25T11:53:18Z</time>
      </trkpt>
      <trkpt lat="41.606116200" lon="2.540348100">
        <ele>120.30</ele>
        <time>2012-11-25T11:53:27Z</time>
      </trkpt>
      <trkpt lat="41.605922200" lon="2.540387300">
        <ele>120.30</ele>
        <time>2012-11-25T11:53:34Z</time>
      </trkpt>
      <trkpt lat="41.605942700" lon="2.540466400">
        <ele>120.80</ele>
        <time>2012-11-25T11:53:39Z</time>
      </trkpt>
      <trkpt lat="41.606066100" lon="2.540514300">
        <ele>121.30</ele>
        <time>2012-11-25T11:53:48Z</time>
      </trkpt>
      <trkpt lat="41.606099600" lon="2.540537400">
        <ele>121.30</ele>
        <time>2012-11-25T11:53:50Z</time>
      </trkpt>
      <trkpt lat="41.606145500" lon="2.540553400">
        <ele>121.70</ele>
        <time>2012-11-25T11:53:58Z</time>
      </trkpt>
      <trkpt lat="41.606156000" lon="2.540550000">
        <ele>121.70</ele>
        <time>2012-11-25T11:54:14Z</time>
      </trkpt>
      <trkpt lat="41.606207400" lon="2.540567800">
        <ele>122.20</ele>
        <time>2012-11-25T11:54:19Z</time>
      </trkpt>
      <trkpt lat="41.606242600" lon="2.540576500">
        <ele>122.20</ele>
        <time>2012-11-25T11:54:21Z</time>
      </trkpt>
      <trkpt lat="41.606379100" lon="2.540598800">
        <ele>120.80</ele>
        <time>2012-11-25T11:54:26Z</time>
      </trkpt>
      <trkpt lat="41.606408400" lon="2.540606600">
        <ele>120.30</ele>
        <time>2012-11-25T11:54:28Z</time>
      </trkpt>
      <trkpt lat="41.606479300" lon="2.540681100">
        <ele>120.30</ele>
        <time>2012-11-25T11:54:33Z</time>
      </trkpt>
      <trkpt lat="41.606474700" lon="2.540803200">
        <ele>120.30</ele>
        <time>2012-11-25T11:54:37Z</time>
      </trkpt>
      <trkpt lat="41.606525300" lon="2.540895000">
        <ele>121.30</ele>
        <time>2012-11-25T11:54:40Z</time>
      </trkpt>
      <trkpt lat="41.606498900" lon="2.540802800">
        <ele>122.20</ele>
        <time>2012-11-25T11:54:45Z</time>
      </trkpt>
      <trkpt lat="41.606411300" lon="2.540812800">
        <ele>122.70</ele>
        <time>2012-11-25T11:54:51Z</time>
      </trkpt>
      <trkpt lat="41.606395900" lon="2.540874600">
        <ele>122.70</ele>
        <time>2012-11-25T11:54:52Z</time>
      </trkpt>
      <trkpt lat="41.606464100" lon="2.540959900">
        <ele>122.70</ele>
        <time>2012-11-25T11:54:59Z</time>
      </trkpt>
      <trkpt lat="41.606596700" lon="2.540975200">
        <ele>124.20</ele>
        <time>2012-11-25T11:55:06Z</time>
      </trkpt>
      <trkpt lat="41.606619900" lon="2.541067000">
        <ele>124.20</ele>
        <time>2012-11-25T11:55:08Z</time>
      </trkpt>
      <trkpt lat="41.606699900" lon="2.541382100">
        <ele>126.10</ele>
        <time>2012-11-25T11:55:18Z</time>
      </trkpt>
      <trkpt lat="41.606777200" lon="2.541664800">
        <ele>128.00</ele>
        <time>2012-11-25T11:55:27Z</time>
      </trkpt>
      <trkpt lat="41.606846100" lon="2.541906200">
        <ele>129.40</ele>
        <time>2012-11-25T11:55:36Z</time>
      </trkpt>
      <trkpt lat="41.606860300" lon="2.541966100">
        <ele>129.40</ele>
        <time>2012-11-25T11:55:38Z</time>
      </trkpt>
      <trkpt lat="41.606932700" lon="2.542084600">
        <ele>130.40</ele>
        <time>2012-11-25T11:55:43Z</time>
      </trkpt>
      <trkpt lat="41.607014700" lon="2.542255700">
        <ele>131.80</ele>
        <time>2012-11-25T11:55:50Z</time>
      </trkpt>
      <trkpt lat="41.607073900" lon="2.542353400">
        <ele>132.80</ele>
        <time>2012-11-25T11:55:55Z</time>
      </trkpt>
      <trkpt lat="41.607093300" lon="2.542365700">
        <ele>133.30</ele>
        <time>2012-11-25T11:56:04Z</time>
      </trkpt>
      <trkpt lat="41.607080300" lon="2.542425100">
        <ele>133.30</ele>
        <time>2012-11-25T11:56:25Z</time>
      </trkpt>
      <trkpt lat="41.607098200" lon="2.542449200">
        <ele>133.30</ele>
        <time>2012-11-25T11:56:42Z</time>
      </trkpt>
      <trkpt lat="41.607129800" lon="2.542397200">
        <ele>133.30</ele>
        <time>2012-11-25T11:57:01Z</time>
      </trkpt>
    </trkseg>
  </trk>
</gpx>
